[[{"header":{"parameterUnit":"m.s-1","parameterCategory":1,"la1":30.6,"la2":29.2853,"lo1":-89.7004,"lo2":-87.6739,"dy":0.0162,"dx":0.0183,"nx":112,"ny":82,"refTime":"2025-03-09T06:00:00:Z","depth":0,"parameterNumber":2,"parameterNumberName":"U-component_of_WINDS"},"data":[0.0,0.0,0.0,0.0,0.0,0.0,0.0,0.0,0.0,0.0,0.0,0.0,0.0,0.0,0.0,0.0,0.0,0.0,0.0,0.0,0.0,0.0,0.0,0.0,0.0,0.0,0.0,0.0,0.0,0.0,0.0,0.0,0.0,0.0,0.0,0.0,0.0,0.0,0.0,0.0,0.0,0.0,0.0,0.0,0.0,0.0,0.0,0.0,0.0,0.0,0.0,0.0,0.0,0.0,0.0,0.0,0.0,0.0,0.0,0.0,0.0,0.0,0.0,0.0,0.0,0.0,0.0,0.0,0.0,0.0,0.0,0.0,0.0,0.0,0.0,0.0,0.0,0.0,0.0,0.0,0.0,0.0,0.0,0.0,0.0,0.0,0.0,0.0,0.0,0.0,0.579,0.7067,0.541,0.3681,0.2311,0.0166,-0.1496,-0.2481,0.0,0.0,0.0,0.0,0.0,0.0,0.0,0.0,0.0,0.0,0.0,0.0,0.0,0.0,0.0,0.0,0.0,0.0,0.0,0.0,0.0,0.0,0.0,0.0,0.0,0.0,0.0,0.0,0.0,0.0,0.0,0.0,0.0,0.0,0.0,0.0,0.0,0.0,0.0,0.0,0.0,0.0,0.0,0.0,0.0,0.0,0.0,0.0,0.0,0.0,0.0,0.0,0.0,0.0,0.0,0.0,0.0,0.0,0.0,0.0,0.0,0.0,0.0,0.0,0.0,0.0,0.0,0.0,0.0,0.0,0.0,0.0,0.0,0.0,0.0,0.0,0.0,0.0,0.0,0.0,0.0,0.0,0.0,0.0,0.0,0.0,0.0,0.0,0.0,0.0,0.0,0.0,0.0,0.0,0.0,0.0,0.0,0.0,0.0,0.0,0.0,0.0,0.0,0.0,0.6327,0.6665,0.4772,0.3127,0.228,0.0167,-0.1283,-0.1743,0.0,0.0,0.0,0.0,0.0,0.0,0.0,0.0,0.0,0.0,0.0,0.0,0.0,0.0,0.0,0.0,0.0,0.0,0.0,0.0,0.0,0.0,0.0,0.0,0.0,0.0,0.0,0.0,0.0,0.0,0.0,0.0,0.0,0.0,0.0,0.0,0.0,0.0,0.0,0.0,0.0,0.0,0.0,0.0,0.0,0.0,0.0,0.0,0.0,0.0,0.0,0.0,0.0,0.0,0.0,0.0,0.0,0.0,0.0,0.0,0.0,0.0,0.0,0.0,0.0,0.0,0.0,0.0,0.0,0.0,0.0,0.0,0.0,0.0,0.0,0.0,0.0,0.0,0.0,0.0,0.0,0.0,0.0,0.0,0.0,0.0,0.0,0.0,0.0,0.0,0.0,0.0,0.0,0.0,0.0,0.0,0.0,0.0,0.0,0.0,0.0,0.0,0.0,0.6431,0.661,0.6598,0.4614,0.2991,0.2258,0.0167,-0.1256,-0.1578,-0.2059,0.0,0.0,0.0,0.0,0.0,0.0,0.0,0.0,0.0,0.0,0.0,0.0,0.0,0.0,0.0,0.0,0.0,0.0,0.0,0.0,0.0,0.0,0.0,0.0,0.0,0.0,0.0,0.0,0.0,0.0,0.0,0.0,0.0,0.0,0.0,0.0,0.0,0.0,0.0,0.0,0.0,0.0,0.0,0.0,0.0,0.0,0.0,0.0,0.0,0.0,0.0,0.0,0.0,0.0,0.0,0.0,0.0,0.0,0.0,0.0,0.0,0.0,0.0,0.0,0.0,0.0,0.0,0.0,0.0,0.0,0.0,0.0,0.0,0.0,0.0,0.0,0.0,0.0,0.0,0.0,0.0,0.0,0.0,0.0,0.0,0.0,0.0,0.0,0.0,0.0,0.0,0.0,0.0,0.0,0.0,0.0,0.0,0.0,0.0,0.0,0.0,0.0,0.6683,0.6567,0.613,0.4258,0.2747,0.2007,0.0138,-0.1152,-0.1508,-0.1868,0.0,0.0,0.0,0.0,0.0,0.0,0.0,0.0,0.0,0.0,0.0,0.0,0.0,0.0,0.0,0.0,0.0,0.0,0.0,0.0,0.0,0.0,0.0,0.0,0.0,0.0,0.0,0.0,0.0,0.0,0.0,0.0,0.0,0.0,0.0,0.0,0.0,0.0,0.0,0.0,0.0,0.0,0.0,0.0,0.0,0.0,0.0,0.0,0.0,0.0,0.0,0.0,0.0,0.0,0.0,0.0,0.0,0.0,0.0,0.0,0.0,0.0,0.0,0.0,0.0,0.0,0.0,0.0,0.0,0.0,0.0,0.0,0.0,0.0,0.0,0.0,0.0,0.0,0.0,0.0,0.0,0.0,0.0,0.0,0.0,0.0,0.0,0.0,0.0,0.0,0.0,0.0,0.0,0.0,0.0,0.0,0.0,0.0,0.0,0.0,0.0,0.0,0.6395,0.6075,0.4696,0.3194,0.198,0.1229,0.0,-0.0909,-0.1289,-0.1525,0.0,0.0,0.0,0.0,0.0,0.0,0.0,0.0,0.0,0.0,0.0,0.0,0.0,0.0,0.0,0.0,0.0,0.0,0.0,0.0,0.0,0.0,0.0,0.0,0.0,0.0,0.0,0.0,0.0,0.0,0.0,0.0,0.0,0.0,0.0,0.0,0.0,0.0,0.0,0.0,0.0,0.0,0.0,0.0,0.0,0.0,0.0,0.0,0.0,0.0,0.0,0.0,0.0,0.0,0.0,0.0,0.0,0.0,0.0,0.0,0.0,0.0,0.0,0.0,0.0,0.0,0.0,0.0,0.0,0.0,0.0,0.0,0.0,0.0,0.0,0.0,0.0,0.0,0.0,0.0,0.0,0.0,0.0,0.0,0.0,0.0,0.0,0.0,0.0,0.0,0.0,0.0,0.0,0.0,0.0,0.0,0.0,0.0,0.0,0.0,0.0,0.0,0.5076,0.4636,0.4433,0.2668,0.1396,0.1118,-0.0572,-0.1535,-0.1309,0.0,0.0,0.0,0.0,0.0,0.0,0.0,0.0,0.0,0.0,0.0,0.0,0.0,0.0,0.0,0.0,0.0,0.0,0.0,0.0,0.0,0.0,0.0,0.0,0.0,0.0,0.0,0.0,0.0,0.0,0.0,0.0,0.0,0.0,0.0,0.0,0.0,0.0,0.0,0.0,0.0,0.0,0.0,0.0,0.0,0.0,0.0,0.0,0.0,0.0,0.0,0.0,0.0,0.0,0.0,0.0,0.0,0.0,0.0,0.0,0.0,0.0,0.0,0.0,0.0,0.0,0.0,0.0,0.0,0.0,0.0,0.0,0.0,0.0,0.0,0.0,0.0,0.0,0.0,0.0,0.0,0.0,0.0,0.0,0.0,0.0,0.0,0.0,0.0,0.0,0.0,0.0,0.0,0.0,0.0,0.0,0.0,0.0,0.0,0.0,0.0,0.0,0.4308,0.3672,0.3216,0.3336,0.2004,0.0922,0.0447,-0.1121,-0.1952,-0.1693,0.0,0.0,0.0,0.0,0.0,0.0,0.0,0.0,0.0,0.0,0.0,0.0,0.0,0.0,0.0,0.0,0.0,0.0,0.0,0.0,0.0,0.0,0.0,0.0,0.0,0.0,0.0,0.0,0.0,0.0,0.0,0.0,0.0,0.0,0.0,0.0,0.0,0.0,0.0,0.0,0.0,0.0,0.0,0.0,0.0,0.0,0.0,0.0,0.0,0.0,0.0,0.0,0.0,0.0,0.0,0.0,0.0,0.0,0.0,0.0,0.0,0.0,0.0,0.0,0.0,0.0,0.0,0.0,0.0,0.0,0.0,0.0,0.0,0.0,0.0,0.0,0.0,0.0,0.0,0.0,0.0,0.0,0.0,0.0,0.0,0.0,0.0,0.0,0.0,0.0,0.0,0.0,0.0,0.0,0.0,0.0,0.0,0.0,0.0,0.0,0.0,0.0,0.2377,0.2243,0.1896,0.1146,0.1062,0.0475,-0.0978,-0.1548,-0.2022,0.0,0.0,0.0,0.0,0.0,0.0,0.0,0.0,0.0,0.0,0.0,0.0,0.0,0.0,0.0,0.0,0.0,0.0,0.0,0.0,0.0,0.0,0.0,0.0,0.0,0.0,0.0,0.0,0.0,0.0,0.0,0.0,0.0,0.0,0.0,0.0,0.0,0.0,0.0,0.0,0.0,0.0,0.0,0.0,0.0,0.0,0.0,0.0,0.0,0.0,0.0,0.0,0.0,0.0,0.0,0.0,0.0,0.0,0.0,0.0,0.0,0.0,0.0,0.0,0.0,0.0,0.0,0.0,0.0,0.0,0.0,0.0,0.0,0.0,0.0,0.0,0.0,0.0,0.0,0.0,0.0,0.0,0.0,0.0,0.0,0.0,0.0,0.0,0.0,0.0,0.0,0.0,0.0,0.0,0.0,0.0,0.0,0.0,0.0,0.0,0.0,0.0,0.0,0.1162,0.0416,-0.0222,-0.0417,-0.0918,-0.1394,-0.1842,-0.2385,-0.2654,-0.2501,0.0,0.0,0.0,0.0,0.0,0.0,0.0,0.0,0.0,0.0,0.0,0.0,0.0,0.0,0.0,0.0,0.0,0.0,0.0,0.0,0.0,0.0,0.0,0.0,0.0,0.0,0.0,0.0,0.0,0.0,0.0,0.0,0.0,0.0,0.0,0.0,0.0,0.0,0.0,0.0,0.0,0.0,0.0,0.0,0.0,0.0,0.0,0.0,0.0,0.0,0.0,0.0,0.0,0.0,0.0,0.0,0.0,0.0,0.0,0.0,0.0,0.0,0.0,0.0,0.0,0.0,0.0,0.0,0.0,0.0,0.0,0.0,0.0,0.0,0.0,0.0,0.0,0.0,0.0,0.0,0.0,0.0,0.0,0.0,0.0,0.0,0.0,0.0,0.0,0.0,0.0,0.0,0.0,0.0,0.0,0.0,0.0,0.0,0.0,0.0,0.0,0.0,-0.0404,-0.1051,-0.1528,-0.1528,-0.1921,-0.2343,-0.2649,-0.3011,-0.3259,-0.3361,0.0,0.0,0.0,0.0,0.0,0.0,0.0,0.0,0.0,0.0,0.0,0.0,0.0,0.0,0.0,0.0,0.0,0.0,0.0,0.0,0.0,0.0,0.0,0.0,0.0,0.0,0.0,0.0,0.0,0.0,0.0,0.0,0.0,0.0,0.0,0.0,0.0,0.0,0.0,0.0,0.0,0.0,0.0,0.0,0.0,0.0,0.0,0.0,0.0,0.0,0.0,0.0,0.0,0.0,0.0,0.0,0.0,0.0,0.0,0.0,0.0,0.0,0.0,0.0,0.0,0.0,0.0,0.0,0.0,0.0,0.0,0.0,0.0,0.0,0.0,0.0,0.0,0.0,0.0,0.0,0.0,0.0,0.0,0.0,0.0,0.0,0.0,0.0,0.0,0.0,0.0,0.0,0.0,0.0,0.0,0.0,0.0,0.0,0.0,0.0,0.0,0.0,-0.2219,-0.2378,-0.2506,-0.2506,-0.2452,-0.2704,-0.3428,-0.3558,-0.3901,-0.4662,0.0,0.0,0.0,0.0,0.0,0.0,0.0,0.0,0.0,0.0,0.0,0.0,0.0,0.0,0.0,0.0,0.0,0.0,0.0,0.0,0.0,0.0,0.0,0.0,0.0,0.0,0.0,0.0,0.0,0.0,0.0,0.0,0.0,0.0,0.0,0.0,0.0,0.0,0.0,0.0,0.0,0.0,0.0,0.0,0.0,0.0,0.0,0.0,0.0,0.0,0.0,0.0,0.0,0.0,0.0,0.0,0.0,0.0,0.0,0.0,-0.3462,0.0,0.0,0.0,0.0,0.0,0.0,0.0,0.0,0.0,0.0,0.0,0.0,0.0,0.0,0.0,0.0,0.0,0.0,0.0,0.0,0.0,0.0,0.0,0.0,0.0,0.0,0.0,0.0,0.0,0.0,0.0,0.0,0.0,0.0,0.0,0.0,0.0,0.0,0.0,0.0,0.0,-0.3785,-0.4358,-0.4796,-0.4796,-0.4312,-0.407,-0.4239,-0.4644,-0.4827,-0.4701,-0.4651,0.0,0.0,0.0,0.0,0.0,0.0,0.0,0.0,0.0,0.0,0.0,0.0,0.0,0.0,0.0,0.0,0.0,0.0,0.0,0.0,0.0,0.0,0.0,0.0,0.0,0.0,0.0,0.0,0.0,0.0,0.0,0.0,0.0,0.0,0.0,0.0,0.0,0.0,0.0,0.0,0.0,0.0,0.0,0.0,0.0,0.0,0.0,0.0,0.0,0.0,0.0,0.0,0.0,0.0,0.0,0.0,0.0,0.0,0.0,0.0,-0.4181,0.0,0.0,0.0,0.0,0.0,0.0,0.0,0.0,0.0,0.0,0.0,0.0,0.0,0.0,0.0,0.0,0.0,0.0,0.0,0.0,0.0,0.0,0.0,0.0,0.0,0.0,0.0,0.0,0.0,0.0,0.0,0.0,0.0,0.0,0.0,0.0,0.0,0.0,0.0,0.0,-0.5081,-0.5627,-0.6036,-0.6036,-0.5714,-0.55,-0.55,-0.5761,-0.5937,-0.5936,-0.5615,0.0,0.0,0.0,0.0,0.0,0.0,0.0,0.0,0.0,0.0,0.0,0.0,0.0,0.0,0.0,0.0,0.0,0.0,0.0,0.0,0.0,0.0,0.0,0.0,0.0,0.0,0.0,0.0,0.0,0.0,0.0,0.0,0.0,0.0,0.0,0.0,0.0,0.0,0.0,0.0,0.0,0.0,0.0,0.0,0.0,0.0,0.0,0.0,0.0,0.0,0.0,0.0,0.0,-0.4499,-0.4981,-0.5743,-0.5913,-0.6596,-0.7546,-0.6096,-0.5481,-0.5471,-0.5189,0.0,0.0,0.0,0.0,0.0,0.0,0.0,0.0,0.0,0.0,0.0,0.0,0.0,0.0,0.0,0.0,0.0,0.0,0.0,0.0,0.0,0.0,0.0,0.0,-0.3882,-0.4594,0.0,0.0,0.0,0.0,0.0,0.0,0.0,0.0,0.0,0.0,0.0,0.0,-0.6379,-0.6742,-0.6956,-0.6956,-0.6848,-0.6718,-0.6615,-0.6723,-0.6945,-0.7283,-0.669,-0.6361,0.0,0.0,0.0,0.0,0.0,0.0,0.0,0.0,0.0,0.0,0.0,0.0,0.0,0.0,0.0,0.0,0.0,0.0,0.0,0.0,0.0,0.0,0.0,0.0,0.0,0.0,0.0,0.0,0.0,0.0,0.0,0.0,-0.0915,-0.0987,0.0,0.0,0.0,0.0,0.0,0.0,0.0,0.0,0.0,0.0,0.0,0.0,0.0,-0.1631,-0.2668,-0.3589,-0.4588,-0.5735,-0.5925,-0.6094,-0.6249,-0.7219,-0.7842,-0.8095,-0.788,0.0,-0.7004,-0.6722,0.0,0.0,0.0,0.0,0.0,0.0,0.0,0.0,0.0,0.0,0.0,0.0,0.0,0.0,0.0,0.0,0.0,0.0,0.0,0.0,0.0,0.0,-0.3383,-0.4942,-0.5481,-0.5946,0.0,-0.6026,-0.494,-0.4885,-0.5366,0.0,0.0,0.0,0.0,0.0,0.0,0.0,-0.801,-0.8319,-0.8423,-0.8423,-0.7856,-0.7223,-0.6642,-0.7182,-0.748,-0.7308,-0.7527,-0.7554,-0.7339,-0.6977,0.0,0.0,0.0,0.0,0.0,0.0,0.0,0.0,0.0,0.0,0.0,0.0,0.0,0.0,0.0,0.0,0.0,0.0,0.0,0.0,0.0,0.0,0.0,0.0,0.0,0.0,0.0,0.0,0.0,-0.0793,-0.0444,-0.0858,-0.037,0.0,0.0,0.0,0.0,0.0,0.0,0.0,0.0,0.0,0.0,0.0,-0.0786,-0.1798,-0.299,-0.3982,-0.5087,-0.6281,-0.6434,-0.691,-0.7686,-0.8308,-0.9405,-1.0784,-1.0784,-1.0228,-0.9135,-0.7184,-0.6354,-0.6189,0.0,0.0,0.0,0.0,-0.5013,-0.5324,-0.6037,-0.6355,0.0,-0.7273,0.0,0.0,0.0,0.0,0.0,0.0,0.0,0.0,0.0,0.0,0.0,-0.6665,-0.7142,-0.7677,-0.8304,-0.8054,-0.7465,0.0,-0.6954,-0.6944,-0.5819,0.0,0.0,0.0,0.0,-0.7276,-0.8806,-0.9184,-0.9448,-0.9854,-0.9581,-0.929,-0.8992,-0.9259,-0.9217,-0.8745,-0.8739,-0.8514,-0.8031,-0.7896,-0.7471,0.0,0.0,0.0,0.0,0.0,0.0,0.0,0.0,0.0,0.0,0.0,0.0,0.0,0.0,0.0,0.0,0.0,0.0,0.0,0.0,0.0,0.0,0.0,0.0,0.0,0.0,0.0,0.0,-0.0579,-0.017,-0.0604,-0.0284,0.0,0.0,0.0,0.0,0.0,0.0,0.0,0.0,0.0,0.0,0.0,-0.0945,-0.2017,-0.3278,-0.4372,-0.5557,-0.6763,-0.6875,-0.7458,-0.8439,-0.9266,-1.0647,-1.2416,-1.2771,-1.2307,-1.1126,-0.8268,-0.7131,-0.7082,-0.5978,-0.5566,-0.5566,-0.5566,-0.5685,-0.5931,-0.6655,-0.6924,-0.7025,-0.7486,0.0,-0.7104,-0.5688,0.0,0.0,0.0,0.0,-0.6971,-0.7014,-0.8049,-0.9015,-0.875,-0.9207,-0.9649,-0.9593,-0.9938,-0.9837,0.0,-0.8496,-0.8326,-0.6701,0.0,0.0,0.0,0.0,-0.723,-0.9164,-0.9524,-0.9952,-1.0825,-1.0845,-1.0788,-1.0788,-1.0788,-1.0593,-1.009,-0.9859,-0.953,-0.9044,-0.9136,-0.882,-0.8053,0.0,0.0,0.0,0.0,0.0,0.0,0.0,0.0,0.0,0.0,0.0,0.0,0.0,0.0,0.0,0.0,0.0,0.0,0.0,0.0,0.0,0.0,0.0,0.0,0.0,0.0,0.0,0.0,0.0,-0.0029,-0.0031,0.0,0.0,0.0,0.0,0.0,0.0,0.0,0.0,0.0,0.0,0.0,-0.1171,-0.2414,-0.3761,-0.4972,-0.6214,-0.7543,-0.755,-0.7607,-0.775,-1.0099,-1.1253,-1.1446,-1.2643,-1.3091,-1.2761,-1.0778,-0.855,-0.6336,-0.6057,-0.5959,-0.5959,-0.5959,-0.6179,-0.645,-0.6359,-0.6443,-0.6672,-0.7671,-0.777,-0.7289,-0.6129,-0.6233,0.0,0.0,-0.7716,-0.8748,-0.9955,-1.0325,-1.0688,-1.1734,-1.1995,-1.1972,-1.1784,-1.1766,-1.1272,0.0,-0.9636,-0.9383,-0.7396,0.0,-0.6778,-0.5956,-0.5831,-0.6701,-0.9084,-0.9185,-0.9623,-1.1121,-1.1002,-1.0788,-1.0788,-1.0788,-1.0788,-1.0737,-1.0746,-1.0713,-1.0687,-1.0934,-1.0652,-0.9801,-0.8859,0.0,0.0,0.0,0.0,0.0,0.0,0.0,0.0,0.0,0.0,0.0,0.0,0.0,0.0,0.0,0.0,0.0,0.0,0.0,0.0,0.0,0.0,0.0,0.0,0.0,0.0,0.0,0.0,0.0,0.0,0.0,0.0,0.0,0.0,0.0,0.0,0.0,0.0,-0.0823,-0.1278,-0.1299,-0.253,-0.3817,-0.5058,-0.5524,-0.6363,-0.76,-0.76,-0.7969,-0.8753,-1.0683,-1.1957,-1.2702,-1.4019,-1.4164,-1.3326,-1.1625,-0.9806,-0.8014,-0.7094,-0.6701,-0.6701,-0.6701,-0.6768,-0.698,-0.7724,-0.7963,-0.804,-0.8958,-0.9101,-0.8953,-0.9249,-0.9542,-0.9918,-1.0785,-1.1739,-1.2647,-1.3179,-1.3829,-1.4402,-1.4808,-1.4246,-1.3741,-1.4288,-1.3208,-1.2105,-1.1922,-1.1233,-1.0236,-0.8776,-0.7931,-0.7294,-0.6726,-0.6222,-0.6552,-0.8335,-0.8969,-0.9743,-1.0961,-1.1496,-1.1866,-1.2126,-1.2157,-1.194,-1.1466,-1.1441,-1.1266,-1.0813,-1.131,-1.1322,-1.0751,-1.0545,-0.9627,0.0,0.0,0.0,0.0,0.0,0.0,0.0,0.0,0.0,0.0,0.0,0.0,0.0,0.0,0.0,0.0,0.0,0.0,0.0,0.0,0.0,0.0,0.0,0.0,0.0,-0.0364,-0.06,-0.0611,-0.0978,-0.1223,-0.1219,-0.1197,-0.1217,-0.1199,-0.1245,-0.1281,-0.1301,-0.2172,-0.2694,-0.2694,-0.3933,-0.4996,-0.5841,-0.6272,-0.692,-0.7746,-0.7746,-0.8122,-0.8926,-1.0896,-1.2199,-1.2959,-1.4296,-1.4209,-1.2959,-1.1472,-1.03,-0.9275,-0.7822,-0.725,-0.725,-0.725,-0.7559,-0.808,-0.9217,-0.975,-0.9976,-1.0508,-1.083,-1.1145,-1.1853,-1.2275,-1.2692,-1.3549,-1.4501,-1.5389,-1.5794,-1.6422,-1.6917,-1.6917,-1.6113,-1.5339,-1.5331,-1.4256,-1.3317,-1.3398,-1.2269,-1.0929,-0.9757,-0.8893,-0.819,-0.7613,-0.7054,-0.7118,-0.8348,-0.8902,-0.9679,-1.0897,-1.1579,-1.2156,-1.2657,-1.2812,-1.2691,-1.2212,-1.2365,-1.2184,-1.1534,-1.1981,-1.2091,-1.1764,-1.1411,-1.0561,-0.9208,0.0,0.0,0.0,0.0,0.0,0.0,0.0,0.0,0.0,0.0,0.0,0.0,0.0,0.0,0.0,0.0,0.0,0.0,0.0,0.0,0.0,0.0,0.0,-0.0065,-0.1067,-0.1819,-0.186,-0.2888,-0.3595,-0.3623,-0.3606,-0.3624,-0.3624,-0.3716,-0.3801,-0.3801,-0.3951,-0.4038,-0.4038,-0.5225,-0.5944,-0.606,-0.7233,-0.7892,-0.7988,-0.7988,-0.8038,-0.8137,-1.073,-1.1896,-1.2042,-1.3392,-1.3204,-1.1896,-1.0632,-1.0096,-0.9964,-0.8339,-0.7708,-0.7752,-0.7752,-0.8531,-0.9776,-1.0805,-1.1685,-1.233,-1.233,-1.3,-1.3755,-1.3755,-1.4366,-1.508,-1.505,-1.5739,-1.6716,-1.7691,-1.7933,-1.7933,-1.797,-1.7578,-1.6719,-1.4956,-1.4892,-1.4914,-1.3954,-1.2813,-1.1636,-1.0439,-1.0008,-0.9528,-0.8627,-0.8235,0.0,-0.9145,-0.9007,-0.9382,-1.0884,-1.1208,-1.1559,-1.2245,-1.2651,-1.29,-1.2905,-1.3443,-1.3529,-1.2954,-1.3037,-1.303,-1.2895,-1.135,-1.0491,-1.0418,0.0,0.0,0.0,0.0,0.0,0.0,0.0,0.0,0.0,0.0,0.0,0.0,0.0,0.0,0.0,0.0,0.0,0.0,0.0,0.0,0.0,-0.1305,-0.1294,-0.1304,-0.1607,-0.2146,-0.3145,-0.3547,-0.379,-0.3894,-0.3891,-0.3872,-0.3872,-0.3933,-0.3923,-0.3923,-0.4925,-0.5427,-0.5427,-0.6726,-0.7389,-0.743,-0.7776,-0.7948,-0.7988,-0.7988,-0.8528,-0.9509,-1.1165,-1.2431,-1.3445,-1.4704,-1.5051,-1.4615,-1.3343,-1.2807,-1.2603,-1.0272,-0.9894,-1.0711,-1.0711,-1.1415,-1.2365,-1.2547,-1.3693,-1.5028,-1.5028,-1.6083,-1.7378,-1.7493,-1.8166,-1.8738,-1.8053,-1.8088,-1.835,-1.8632,-1.8719,-1.8875,-1.9659,-1.877,-1.7761,-1.7908,-1.6516,-1.5305,-1.572,-1.5002,-1.4128,-1.3519,-1.2853,-1.1907,-1.0547,-0.9751,0.0,-0.8436,-0.8815,-0.9419,-1.008,-1.0748,-1.1467,-1.2237,-1.2407,-1.2591,-1.2876,-1.3065,-1.3262,-1.3552,-1.3165,-1.2936,-1.2905,-1.184,-1.112,0.0,0.0,0.0,0.0,0.0,0.0,0.0,0.0,0.0,0.0,0.0,0.0,0.0,0.0,0.0,0.0,0.0,0.0,0.0,0.0,0.0,0.0,-0.1795,-0.2163,-0.3238,-0.3407,-0.3696,-0.4454,-0.5066,-0.5435,-0.5499,-0.5504,-0.5504,-0.5504,-0.5546,-0.557,-0.557,-0.6406,-0.6819,-0.6819,-0.7595,-0.7988,-0.7988,-0.8577,-0.8825,-0.8825,-0.9361,-1.0047,-1.0828,-1.2134,-1.3151,0.0,-1.4704,-1.4997,-1.4902,-1.359,-1.3392,0.0,0.0,0.0,0.0,0.0,-1.3042,-1.3467,-1.3936,-1.5311,-1.6819,-1.6819,-1.8333,-2.0062,-1.9767,-2.0343,-2.0883,-1.9933,-1.9678,-1.9678,-1.9678,-1.9678,-1.9844,-2.044,-1.9659,-1.8742,-1.872,-1.7604,-1.6625,-1.6594,-1.6463,0.0,-1.6133,-1.4898,-1.3648,-1.2751,-1.1912,-1.1152,-1.0457,-1.0645,-1.0916,-1.1109,-1.1443,-1.1829,-1.2293,-1.2049,0.0,0.0,0.0,-1.3056,-1.3485,-1.3124,0.0,0.0,0.0,0.0,0.0,0.0,0.0,0.0,-1.1051,-1.0186,0.0,0.0,0.0,0.0,0.0,0.0,0.0,0.0,0.0,0.0,0.0,0.0,0.0,0.0,0.0,0.0,-0.2219,-0.3054,-0.5468,-0.5807,-0.5862,-0.5834,-0.6882,-0.7631,-0.7648,-0.7648,-0.7648,-0.7648,-0.7767,-0.7883,-0.8028,0.0,0.0,0.0,0.0,-0.8432,-0.8432,-0.9608,-1.0194,-1.0243,-1.1361,-1.1994,-1.2188,-1.3343,-1.3974,-1.4118,-1.4118,-1.4118,-1.4022,-1.2818,-1.306,-1.4022,-1.2818,-1.2334,-1.2479,-1.3488,-1.3731,-1.3625,-1.4822,0.0,0.0,-1.7827,-1.9774,-2.1873,-2.0915,-2.126,-2.1773,-2.0741,-2.0401,-2.0401,-2.0401,-2.0401,-2.044,-2.0566,-2.0339,-1.9748,-1.8462,-1.8593,-1.8556,-1.7289,-1.7721,-1.8303,-1.8303,-1.6483,-1.507,-1.5019,-1.4352,-1.3851,-1.3758,-1.3349,-1.305,-1.3009,0.0,0.0,-1.2539,-1.1842,-1.1447,-1.1486,-1.2298,-1.2864,-1.3065,-1.3024,-1.2832,-1.2428,-1.2822,-1.3457,-1.4374,-1.4424,-1.5021,-1.6009,-1.2744,-1.1994,0.0,0.0,0.0,0.0,0.0,0.0,0.0,0.0,0.0,0.0,0.0,0.0,0.0,0.0,0.0,-0.4279,-0.4707,-0.5359,-0.684,-0.725,-0.7359,-0.7385,-0.7606,-0.7818,-0.7894,-0.7904,-0.7904,-0.7904,-0.7931,-0.8435,-0.9506,-0.9587,-1.0096,-1.1116,-1.1165,-1.1165,-1.1165,-1.1409,-1.1512,-1.156,0.0,0.0,-1.3536,-1.3782,-1.4459,-1.5439,-1.5439,-1.5439,-1.5391,-1.5146,-1.5194,-1.5391,-1.5146,-1.5051,-1.4956,-1.4166,-1.3843,-1.385,-1.4094,-1.5464,-1.7201,-1.7908,-2.0149,-2.2338,-2.1004,-2.126,0.0,-1.9816,-1.9323,-1.9323,-1.9323,-1.9323,-1.952,-2.0401,-2.085,-2.0901,-2.0232,-2.0504,-2.0642,-1.9944,-1.9966,-2.0107,-2.0107,-1.8596,-1.7244,-1.6925,-1.6163,-1.5387,-1.4728,-1.397,-1.3354,-1.3033,-1.2912,-1.3033,-1.3338,-1.2628,-1.2304,-1.2579,-1.2618,-1.2725,-1.2945,-1.3377,-1.3659,-1.3734,-1.3821,-1.3952,-1.4152,-1.4712,-1.5091,-1.5319,-1.5189,-1.5035,0.0,0.0,0.0,0.0,0.0,0.0,0.0,0.0,0.0,0.0,0.0,-0.3572,-0.3161,0.0,-0.3943,-0.5165,-0.5528,-0.6167,-0.7429,-0.7719,-0.7811,-0.7811,-0.7879,-0.7907,-0.7982,-0.8627,-0.9019,-0.9019,-0.9604,-1.0239,-1.0925,-1.0974,-1.1214,-1.1901,-1.1896,-1.1896,-1.1896,-1.2576,-1.2909,-1.2915,-1.3547,-1.422,-1.4854,-1.4854,-1.5194,-1.5784,-1.5784,-1.5784,-1.5784,-1.5784,-1.6204,-1.6763,-1.6763,-1.6339,-1.573,-1.5099,-1.4854,-1.4854,-1.4854,-1.6162,-1.7922,-1.837,-2.0426,-2.2572,-2.1859,-2.2188,-2.244,-2.0923,-2.0498,-2.0391,-1.9913,-1.9805,-1.9923,-2.0479,-2.1174,-2.1576,-2.1114,-2.1379,-2.1565,-2.1083,-2.0791,-2.059,-2.059,-1.9879,-1.9237,-1.9018,-1.8423,-1.7859,-1.7441,-1.6282,-1.5415,-1.5217,-1.4243,-1.3686,-1.3875,-1.2651,-1.201,-1.2372,-1.1942,-1.185,-1.2272,-1.2595,-1.2814,-1.2905,-1.2905,-1.3003,-1.3245,-1.3599,-1.4043,-1.4614,-1.5639,-1.6094,0.0,0.0,0.0,0.0,0.0,0.0,0.0,-0.4714,-0.4795,-0.4336,-0.4577,-0.4701,-0.4055,-0.4212,-0.4848,-0.6078,-0.6434,-0.7035,-0.8361,-0.8601,-0.8572,-0.8572,-0.8448,-0.8382,-0.8382,-0.9608,-1.0386,-1.0386,-1.1312,-1.1994,-1.2285,-1.2517,-1.2753,-1.3,-1.323,-1.3369,-1.3369,-1.447,-1.4864,-1.4638,-1.5663,-1.6062,-1.5784,-1.5784,-1.5784,-1.5784,-1.5784,-1.5784,-1.5825,-1.6062,-1.6756,-1.7731,-1.8211,-1.774,-1.676,-1.6311,-1.6123,-1.6123,-1.6123,-1.7375,-1.8929,-1.9093,-2.0754,-2.2656,-2.2705,-2.2993,-2.3194,-2.2499,-2.2291,-2.2113,-2.1375,-2.1011,-2.0857,-2.0857,-2.1441,-2.1949,-2.1706,-2.205,-2.2321,-2.1973,-2.1558,-2.1215,-2.1112,-2.1101,-2.1037,-2.0878,-2.038,-2.0045,-2.014,-1.8816,-1.7868,-1.7771,-1.6059,-1.4763,-1.436,-1.2821,-1.1868,-1.187,-1.1261,-1.1153,-1.1711,-1.1711,-1.1797,-1.1939,-1.1939,-1.2151,-1.2521,-1.2668,-1.327,-1.4279,-1.5471,-1.6413,-0.4429,-0.4372,-0.4257,-0.4528,-0.4718,-0.4918,0.0,-0.5562,-0.5683,-0.5729,-0.6038,-0.6261,-0.6175,-0.6447,-0.7183,-0.848,-0.905,-0.978,-1.1081,-1.1351,-1.1424,-1.1424,-1.0471,-0.9756,-0.9756,-1.0925,-1.1707,-1.1707,-1.1799,-1.2431,-1.359,-1.4702,-1.5833,-1.7016,-1.8103,-1.864,-1.864,-1.8786,-1.8349,-1.7257,-1.7404,-1.6897,-1.5784,-1.5784,-1.5784,-1.5784,-1.5784,-1.5784,-1.5872,-1.7037,-1.7544,-1.7909,-1.9932,-2.0651,-2.0248,-1.8118,-1.7303,-1.7303,-1.7303,-1.8202,-1.9454,-2.0228,-2.1403,-2.2542,-2.2677,-2.2727,-2.2871,-2.3231,-2.3331,-2.3294,-2.3184,-2.2515,-2.1849,-2.1849,-2.1914,-2.2088,-2.2457,-2.3281,-2.3919,-2.3725,-2.3648,-2.3449,-2.2898,-2.2811,-2.2567,-2.1877,-2.1055,-2.0671,-2.102,-2.0209,-1.9485,-1.9119,-1.8182,-1.6829,-1.4989,-1.4246,-1.3271,-1.1905,-1.1721,-1.1721,-1.1783,-1.1783,-1.2119,-1.2855,-1.2855,-1.2879,-1.2921,-1.3635,-1.4288,-1.4829,-1.5682,-1.6832,-0.5809,-0.5316,-0.4763,-0.4884,-0.5189,-0.5481,-0.5671,-0.5898,-0.6112,-0.6257,-0.6529,-0.6763,-0.6848,-0.7764,-0.8736,-0.9393,-1.0362,-1.1231,-1.1761,-1.248,-1.2907,-1.2627,-1.2895,-1.2581,-1.1249,-1.228,-1.3054,-1.3054,-1.4435,-1.5535,-1.6062,-1.7252,-1.818,-1.8726,-1.9222,-1.9497,-1.9497,-1.9497,-1.891,-1.7692,-1.7692,-1.7037,-1.5784,-1.5784,-1.5784,-1.5825,-1.6574,-1.6897,-1.703,-1.8929,-2.0138,-2.0989,-2.3179,-2.443,-2.4682,-2.1689,-2.0563,-2.0563,-2.0563,-2.0971,-2.1555,-2.1917,-2.226,-2.2728,-2.4006,-2.4015,-2.3754,-2.459,-2.4629,-2.4228,-2.3672,-2.3184,-2.2888,-2.2888,-2.3331,-2.3797,-2.3999,-2.456,-2.4982,-2.4943,-2.4682,-2.4305,-2.371,-2.364,-2.3392,-2.272,-2.2279,-2.2274,-2.2909,-2.1987,-2.0943,-2.0046,-1.878,-1.7656,-1.6787,-1.5644,-1.4671,-1.4001,-1.3264,-1.2657,-1.2159,-1.1908,-1.1741,-1.1608,-1.1753,-1.2103,-1.2641,-1.3188,-1.3838,-1.4609,-1.6148,-1.7471,-0.6314,-0.5662,-0.5127,-0.5251,-0.5623,-0.5939,-0.5979,-0.6224,-0.6474,-0.6576,-0.6807,-0.6974,-0.7078,-0.8416,-0.966,-1.018,-1.1791,-1.3086,-1.3428,-1.4461,-1.5059,-1.472,-1.5516,-1.5513,-1.3939,-1.4407,-1.4836,-1.4965,-1.6955,-1.8187,-1.8187,-1.936,-1.9988,-1.9988,-2.0314,-2.0494,-2.0494,-2.0494,-1.9906,-1.868,-1.868,-1.8033,-1.6835,-1.6835,-1.6835,-1.6882,-1.8103,-1.864,-1.8816,-2.1139,-2.2785,-2.408,-2.6176,-2.7747,-2.8499,-2.6305,-2.5126,-2.4556,-2.4315,-2.4272,-2.427,-2.368,-2.3325,-2.3434,-2.5109,-2.515,-2.4792,-2.591,-2.5937,-2.5445,-2.454,-2.4108,-2.3927,-2.3927,-2.4264,-2.4671,-2.4933,-2.5231,-2.5471,-2.559,-2.5297,-2.4858,-2.4318,-2.423,-2.4092,-2.3712,-2.3653,-2.3799,-2.4247,-2.3629,-2.2709,-2.1546,-2.0076,-1.9008,-1.8533,-1.7086,-1.5985,-1.5514,-1.4629,-1.375,-1.2961,-1.2647,-1.2207,-1.1617,-1.1808,-1.2244,-1.2928,-1.3614,-1.437,-1.5195,-1.7167,-1.8733,-0.5214,-0.503,-0.5201,-0.5671,-0.6054,-0.6323,-0.646,-0.6688,-0.6866,-0.6873,-0.6987,-0.7092,-0.7095,-0.8416,-0.9936,-1.1232,-1.3776,-1.6021,-1.7343,-1.8153,-1.8685,-1.873,-1.834,-1.8216,-1.8564,-1.7709,-1.7219,-1.7569,-1.8726,-1.9451,-1.9451,-2.0576,-2.1248,-2.1248,-2.2403,-2.3003,-2.3003,-2.3003,-2.2403,-2.1203,-2.1203,-2.0576,-1.9405,-1.9405,-1.9405,-1.9443,-2.0507,-2.0997,-2.1175,-2.3506,-2.5099,-2.6242,-2.8526,-3.0024,-3.1032,-3.1951,-3.0942,-2.8984,-2.8056,-2.7758,-2.7399,-2.5408,-2.4734,-2.4851,-2.5411,-2.5567,-2.5791,-2.6931,-2.7233,-2.7095,-2.6556,-2.5699,-2.4933,-2.4933,-2.4228,-2.3818,-2.4791,-2.5004,-2.5107,-2.5531,-2.5586,-2.541,-2.4883,-2.4763,-2.4849,-2.5005,-2.5034,-2.4866,-2.4358,-2.4881,-2.4981,-2.4083,-2.2898,-2.1528,-1.9878,-1.8617,-1.7223,-1.5611,-1.5473,-1.5077,-1.4262,-1.4221,-1.4213,-1.418,-1.4197,-1.4197,-1.4262,-1.5897,-1.6892,-1.7359,-1.9037,-2.0918,-0.6269,-0.5892,-0.5754,-0.6044,-0.6407,-0.6504,-0.5742,-0.6316,-0.6806,-0.6054,-0.7021,-0.8013,-0.8122,-0.9895,-1.1634,-1.2366,-1.4176,-1.6044,-1.7468,-1.9241,-2.0403,-2.0607,-2.0643,-2.0921,-2.1629,-1.9609,-1.8428,-1.8878,-2.0034,-2.0702,-2.0702,-2.1854,-2.2492,-2.2492,-2.2906,-2.3091,-2.3091,-2.3091,-2.2492,-2.1293,-2.0486,-1.9898,-1.9534,-2.0236,-2.0552,-2.0686,-2.2568,-2.342,-2.3634,-2.6621,-2.8056,-2.8619,-3.1386,-3.2701,-3.3115,-3.4129,-3.4349,-3.383,-3.1735,-3.055,-2.972,-2.8364,-2.7434,-2.6886,-2.7168,-2.7021,-2.6885,-2.7606,-2.7557,-2.7284,-2.7317,-2.7035,-2.6773,-2.6773,-2.6523,-2.6236,-2.6035,-2.599,-2.6045,-2.6167,-2.6197,-2.6021,-2.5435,-2.5335,-2.5608,-2.6361,-2.6241,-2.5966,-2.5783,-2.5987,-2.6027,-2.5727,-2.4359,-2.307,-2.2018,-2.1014,-2.0008,-1.8945,-1.8586,-1.7798,-1.6397,-1.6102,-1.5437,-1.4312,-1.448,-1.5149,-1.6365,-1.7164,-1.8484,-2.027,-2.1424,-2.2578,-0.6583,-0.623,-0.6067,-0.642,-0.6376,-0.607,-0.5369,-0.5799,-0.6305,-0.5947,-0.7094,-0.8384,-0.8942,-1.0595,-1.2062,-1.2806,-1.4514,-1.6321,-1.8103,-2.0197,-2.1773,-2.2385,-2.2839,-2.3362,-2.4049,-2.2399,-2.1154,-2.0775,-2.1515,-2.1933,-2.1933,-2.2677,-2.3091,-2.3091,-2.3091,-2.3091,-2.3091,-2.3091,-2.2721,-2.1933,-2.1177,-2.1016,-2.1435,-2.212,-2.266,-2.3126,-2.5039,-2.6035,-2.6563,-2.9066,-3.049,-3.1316,-3.3233,-3.4211,-3.4643,-3.5559,-3.6196,-3.6307,-3.4249,-3.3279,-3.2654,-3.096,-2.9745,-2.8852,-2.866,-2.8138,-2.7684,-2.8226,-2.8147,-2.7898,-2.7968,-2.7993,-2.8007,-2.8124,-2.8149,-2.7953,-2.7095,-2.6939,-2.685,-2.6555,-2.6499,-2.6373,-2.5996,-2.5945,-2.6349,-2.7338,-2.7286,-2.7182,-2.7246,-2.705,-2.6982,-2.7185,-2.5847,-2.4745,-2.4156,-2.3141,-2.222,-2.1436,-2.0846,-2.005,-1.8988,-1.8438,-1.7659,-1.6584,-1.6708,-1.7497,-1.8924,-1.948,-2.0696,-2.2583,-2.3449,-2.4394,-0.6089,-0.6016,-0.6175,-0.6745,-0.6061,-0.5264,-0.5414,-0.5352,-0.5564,-0.6597,-0.7449,-0.8361,-0.9561,-1.0521,-1.15,-1.2628,-1.4774,-1.7062,-1.9204,-2.1124,-2.2804,-2.4105,-2.4853,-2.5424,-2.5927,-2.5853,-2.5077,-2.3381,0.0,-2.3178,-2.3091,-2.3091,-2.3091,-2.3091,-2.3178,-2.3178,-2.3178,-2.3266,-2.3256,-2.3256,-2.3256,-2.3844,-2.4872,-2.4957,-2.5546,-2.6637,-2.7763,-2.8748,-2.9681,-3.0867,-3.2393,-3.3993,-3.4061,-3.4677,-3.5636,-3.6337,-3.663,-3.6584,-3.5684,-3.5843,-3.6014,-3.3225,-3.1687,-3.0781,-2.9972,-2.9063,-2.8412,-2.89,-2.9001,-2.8922,-2.8725,-2.8662,-2.8718,-2.9022,-2.9107,-2.8885,-2.7966,-2.7769,-2.755,-2.6714,-2.6521,-2.6499,-2.6499,-2.6631,-2.7038,-2.793,-2.8231,-2.8406,-2.8621,-2.8109,-2.7926,-2.8501,-2.7408,-2.6529,-2.6226,-2.5039,-2.3955,-2.3064,-2.2352,-2.1914,-2.1872,-2.1158,-2.0771,-2.0707,-2.0707,-2.1075,-2.1834,-2.2662,-2.3478,-2.429,-2.5106,-2.6244,-0.6171,-0.6316,-0.6694,-0.6849,-0.6743,-0.6571,-0.6396,-0.7004,-0.7666,-0.8119,-0.956,-1.0742,-1.0605,-1.2033,-1.3208,-1.3118,-1.512,-1.7332,-1.9237,-2.1414,-2.343,-2.5057,-2.5501,-2.6311,-2.7952,-2.6725,-2.6084,0.0,-2.5273,-2.4006,-2.3135,-2.3091,-2.3091,-2.3091,-2.392,-2.4382,-2.4382,-2.5221,-2.5641,-2.5641,-2.5641,-2.5808,-2.6099,-2.6901,-2.7429,-2.7804,-2.9628,-3.0556,-3.0904,-3.2579,-3.3567,-3.4061,-3.4839,-3.5608,-3.6337,-3.6523,-3.7336,-3.827,-3.8052,-3.7738,-3.7214,-3.5767,-3.4738,-3.3878,-3.2967,-3.2099,-3.1399,-3.1123,-3.0538,-3.0213,-3.1037,-3.0729,-3.0311,-3.0559,-3.0637,-3.029,-2.8958,-2.8684,-2.8427,-2.7571,-2.6905,-2.6499,-2.6499,-2.7046,-2.7759,-2.861,-2.8911,-2.913,-2.9334,-2.9202,-2.9124,-2.9234,-2.8934,-2.8459,-2.7799,-2.7419,-2.6899,-2.6119,-2.5474,-2.4832,-2.4193,-2.3538,-2.2899,-2.2262,-2.2232,-2.2635,-2.3502,-2.3703,-2.479,-2.665,-2.6844,-2.7726,-0.6428,-0.663,-0.69,-0.6964,-0.6977,-0.693,-0.6996,-0.7763,-0.862,-0.9241,-1.0526,-1.158,-1.1622,-1.2844,-1.3912,-1.413,-1.5812,-1.7771,-1.9758,-2.1748,-2.376,-2.5743,-2.6491,-2.7459,-2.9137,-2.8251,-2.7719,-2.8072,-2.6491,-2.5263,-2.4648,-2.4595,-2.4595,-2.4595,-2.5221,-2.5546,-2.5546,-2.6182,-2.6524,-2.6524,-2.6919,-2.7371,-2.7853,-2.8895,-2.9642,-3.0126,0.0,-3.2069,-3.25,-3.3567,-3.4245,-3.4758,-3.564,-3.6259,-3.6691,-3.735,-3.8157,-3.8935,-3.9315,-3.9156,-3.8663,-3.7776,-3.6671,-3.556,-3.4691,-3.3542,-3.2524,-3.2228,-3.1758,-3.1564,-3.2369,-3.2198,-3.1877,-3.2145,-3.2463,-3.2314,-3.0725,-3.0461,-2.993,-2.8059,-2.7351,-2.704,-2.704,-2.7384,-2.8149,-2.938,-2.9651,-3.0017,-3.0834,-3.0142,-2.98,-3.0306,-3.0127,-3.0038,-3.0122,-2.9618,-2.9085,-2.8673,-2.7714,-2.6969,-2.6484,-2.557,-2.4831,-2.4357,-2.435,-2.4767,-2.559,-2.5851,-2.6988,-2.8853,-2.855,-2.9163,-0.6738,-0.69,-0.7026,-0.745,-0.7418,-0.7468,-0.8246,-0.8894,-0.9621,-1.0632,-1.1294,-1.1905,-1.2559,-1.3273,-1.4164,-1.5287,-1.6774,-1.8492,-2.0496,-2.2221,-2.4033,-2.6254,-2.7452,-2.8557,-2.9702,-2.9792,-2.9443,-2.856,-2.7671,-2.6953,-2.6513,-2.6625,-2.6819,-2.7082,-2.7082,-2.7163,-2.7325,-2.7325,-2.7325,-2.7325,-2.8139,-2.9015,-2.9948,-3.0823,-3.1707,-3.2593,0.0,0.0,-3.4027,-3.4129,-3.4725,-3.5554,-3.6306,-3.6676,-3.6934,-3.837,-3.8962,-3.9166,-3.9876,-4.0096,-3.9969,-3.9166,-3.785,-3.6444,-3.5637,-3.4249,-3.2996,-3.2996,-3.289,-3.287,-3.3327,-3.333,-3.3303,-3.3583,-3.4226,-3.4402,-3.2853,-3.2523,-3.1721,-2.899,-2.8298,-2.816,-2.816,-2.8132,-2.8683,-3.0325,-3.0569,-3.1086,-3.2544,-3.1124,-3.0466,-3.163,-3.1313,-3.1437,-3.2535,-3.155,-3.0898,-3.0898,-2.961,-2.8858,-2.8858,-2.7575,-2.687,-2.687,-2.6845,-2.7145,-2.7782,-2.8387,-2.9394,-3.0701,-3.0152,-3.0544,-0.6822,-0.697,-0.7534,-0.9425,-1.0144,-1.091,-1.3158,-1.3712,-1.3801,-1.4166,-1.4003,-1.3622,-1.3117,-1.4025,-1.5031,-1.561,-1.7687,-1.9674,-2.1022,-2.3118,-2.4978,-2.6348,-2.7452,-2.8557,-2.9702,-2.9792,-3.0062,-3.0606,-3.0467,-2.9256,-2.6637,-2.7238,-2.843,-3.0162,-3.0237,-3.0637,-3.1529,-3.1529,-3.1529,-3.1529,-3.1711,-3.1893,-3.2064,-3.2244,-3.2437,-3.2629,-3.3415,0.0,-3.4061,-3.4905,-3.5359,-3.5554,-3.6306,-3.701,-3.769,-3.858,-3.9315,-3.9901,-4.0045,-4.0096,-3.9969,-3.9166,-3.8286,-3.7408,-3.6599,-3.5723,-3.5001,-3.5001,-3.4394,-3.3979,-3.4853,-3.4464,-3.3926,-3.4252,-3.4897,-3.5223,-3.4447,-3.3712,-3.3066,-3.2521,-3.1326,-3.0427,-3.0427,-3.0423,-3.0769,-3.1812,-3.1959,-3.2315,-3.3282,-3.2638,-3.2369,-3.3085,-3.3067,-3.307,-3.3227,-3.3021,-3.2911,-3.2911,-3.2188,-3.1775,-3.1775,-3.0539,-2.9853,-2.9853,-2.9319,-2.9114,-2.9238,-2.9909,-3.0649,-3.1419,-3.1303,-3.1658,-0.7994,-0.8,-0.844,-1.0072,-1.1893,-1.3653,-1.505,-1.5942,-1.6297,-1.5749,-1.494,-1.4158,-1.3572,-1.444,-1.5411,-1.5867,-1.7703,-1.9782,-2.1846,-2.3094,-2.4673,-2.7065,-2.7804,-2.873,-3.0355,-3.052,-3.0908,-3.1852,-3.1924,-3.1262,-2.977,-3.0087,-3.0786,-3.1793,-3.183,-3.2073,-3.2593,-3.2593,-3.2593,-3.2593,-3.3101,-3.3345,-3.3345,-3.3871,-3.4124,-3.4124,-3.4591,0.0,-3.4806,-3.5294,-3.5733,-3.6149,-3.6919,-3.7703,-3.8497,-3.9545,-4.0011,-4.0146,-4.0417,-4.0319,-3.9969,-3.9166,-3.8386,-3.7661,-3.6843,-3.6086,-3.5504,-3.5504,-3.5166,-3.499,-3.5864,-3.5708,-3.5492,-3.6091,-3.6708,-3.7094,-3.6879,-3.6194,-3.5394,-3.4601,-3.356,-3.2803,-3.2803,-3.2811,-3.3121,-3.3994,-3.4132,-3.4388,-3.5175,-3.4985,-3.4591,-3.4109,-3.4065,-3.4207,-3.4525,-3.4201,-3.3964,-3.3964,-3.3357,-3.2971,-3.2971,-3.1748,-3.1072,-3.1072,-3.0399,-3.0058,-3.0058,-3.1121,-3.2175,-3.3219,-3.3219,-3.3571,-0.9563,-0.9534,-0.9976,-1.1527,-1.3963,-1.6173,-1.6814,-1.7801,-1.8172,-1.6646,-1.553,-1.4681,-1.4219,-1.4898,-1.5815,-1.6709,-1.8024,-1.9956,-2.2902,-2.3511,-2.477,-2.7758,-2.8307,-2.9188,-3.1018,-3.1217,-3.1669,-3.282,-3.3248,-3.3303,-3.2925,-3.289,-3.2996,-3.322,-3.322,-3.322,-3.322,-3.322,-3.322,-3.322,-3.3959,-3.4312,-3.4361,-3.5133,-3.5504,-3.5504,-3.5504,0.0,0.0,-3.5668,-3.6086,-3.6722,-3.7815,-3.8586,-3.9258,-4.061,-4.075,-4.0336,-4.0756,-4.0552,-3.9969,-3.9166,-3.8386,-3.7661,-3.6843,-3.6086,-3.5504,-3.5504,-3.5619,-3.5863,-3.6446,-3.6737,-3.7084,-3.8015,-3.8554,-3.8954,-3.9361,-3.8747,-3.7805,-3.6565,-3.5735,-3.5222,-3.5222,-3.5194,-3.5439,-3.6131,-3.6248,-3.644,-3.697,-3.7045,-3.6589,-3.5444,-3.5179,-3.5285,-3.5814,-3.5165,-3.4742,-3.4742,-3.4201,-3.3858,-3.3858,-3.2781,-3.2168,-3.2167,-3.1661,-3.1392,-3.1403,-3.2808,-3.407,-3.5152,-3.5152,-3.5432,-1.1336,-1.1609,-1.2632,-1.5741,-1.7409,-1.8762,-2.0642,-2.0781,-1.9903,-1.7574,-1.6625,-1.5999,-1.5293,-1.5601,-1.6677,-1.8912,-1.9714,-2.1124,-2.4205,-2.5516,-2.6665,-2.7965,-2.9028,-3.005,-3.1106,-3.1217,-3.1924,-3.3739,-3.5342,-3.5535,-3.3945,-3.3876,-3.4293,-3.5213,-3.5213,-3.5213,-3.5213,-3.5213,-3.5213,-3.5213,-3.5326,-3.5359,-3.5359,-3.5472,-3.5504,-3.5504,-3.5504,0.0,0.0,-3.6212,-3.6554,-3.6797,-3.884,-3.9665,-3.9867,-4.1216,-4.1335,-4.0833,-4.088,-4.0552,-3.9969,-3.9166,-3.8386,-3.7661,-3.6843,-3.6086,-3.5504,-3.5504,-3.5975,-3.6523,-3.6584,-3.7144,-3.8032,-3.9306,-3.9649,-4.0031,-4.1262,-4.0515,-3.9564,-3.943,-3.8379,-3.7511,-3.7511,-3.7501,-3.7511,-3.7607,-3.7653,-3.7745,-3.7793,-3.7793,-3.7742,-3.7607,-3.7006,-3.6608,-3.6694,-3.596,-3.5498,-3.5498,-3.543,-3.5397,-3.5397,-3.4695,-3.4325,-3.4308,-3.4308,-3.4297,-3.4324,-3.5723,-3.6492,-3.6609,-3.6609,-3.6642,-1.6062,-1.6333,-1.7033,-1.8139,-1.9821,-2.1167,-2.1135,-2.1303,-2.0846,-1.868,-1.7515,-1.6799,-1.6508,-1.6493,-1.7073,-1.8732,-1.9116,-2.0268,-2.3188,-2.4062,-2.5416,-2.8149,-2.8635,-2.987,-3.263,-3.2393,-3.3149,-3.5906,-3.7144,-3.7492,-3.6815,-3.5997,-3.5546,-3.5504,-3.5504,-3.5504,-3.5504,-3.5504,-3.5504,-3.5504,-3.5943,-3.6165,-3.6165,-3.6165,-3.6165,-3.6134,-3.5701,0.0,0.0,-3.6306,-3.6889,-3.7483,-3.9132,-4.0082,-4.0569,-4.1473,-4.1424,-4.0903,-4.0903,-4.0552,-4.0045,-3.9731,-3.9102,-3.833,-3.7557,-3.7115,-3.689,-3.689,-3.7086,-3.7411,-3.7873,-3.8826,-3.9792,-4.0353,-4.1023,-4.1697,-4.2223,-4.1923,-4.1424,-4.1068,-4.0295,-3.9571,-3.9236,-3.9446,-3.9545,-3.9226,-3.9481,-3.96,-3.9257,-3.9208,-3.9208,-3.9208,-3.8159,-3.7449,-3.7449,-3.7178,-3.6969,-3.6969,-3.6969,-3.6969,-3.6969,-3.6296,-3.5934,-3.5932,-3.5556,-3.5546,-3.5915,-3.6871,-3.7565,-3.801,-3.8417,-3.8403,-2.0215,-2.0696,-2.1303,-2.1381,-2.2534,-2.3385,-2.2261,-2.2033,-2.1523,-1.9682,-1.8546,-1.7897,-1.7856,-1.7922,-1.8327,-1.9486,-1.9724,-2.0807,-2.3858,-2.405,-2.5057,-2.8251,-2.8385,-2.9385,-3.2387,-3.3246,-3.4755,-3.7455,-3.8619,-3.9072,-3.8797,-3.7975,-3.7037,-3.5863,-3.5619,-3.5504,-3.5504,-3.5504,-3.5504,-3.5504,-3.6038,-3.6384,-3.6615,-3.6615,-3.6615,-3.6584,-3.629,0.0,0.0,-3.6798,-3.7568,-3.8177,-3.9758,-4.0816,-4.149,-4.1916,-4.1686,-4.1155,-4.0972,-4.0552,-4.0096,-4.0096,-3.9731,-3.9156,-3.8624,-3.8149,-3.7793,-3.7793,-3.795,-3.833,-3.9249,-4.0175,-4.0995,-4.1358,-4.217,-4.2867,-4.2921,-4.2885,-4.2641,-4.194,-4.1313,-4.078,-4.0417,-4.0655,-4.0827,-4.0642,-4.092,-4.1036,-4.0642,-4.0594,-4.0594,-4.0594,-3.9667,-3.8841,-3.8268,-3.8041,-3.7905,-3.7905,-3.7905,-3.7905,-3.7905,-3.7393,-3.7203,-3.7353,-3.71,-3.726,-3.7842,-3.8394,-3.8914,-3.9426,-3.9735,-3.9756,-2.2938,-2.397,-2.5097,-2.6091,-2.5891,-2.537,-2.4952,-2.3583,-2.1975,-2.05,-1.9858,-1.954,-1.94,-1.9984,-2.0839,-2.1971,-2.2331,-2.3708,-2.7243,-2.6717,-2.6613,-2.8311,-2.8444,-2.8707,-2.9482,-3.3507,-3.6618,-3.7892,-3.9598,0.0,-3.9242,-3.9547,-3.8797,-3.6661,-3.5894,-3.5504,-3.5504,-3.5504,-3.5504,-3.5504,-3.5504,-3.5894,-3.6615,-3.6615,-3.6615,0.0,0.0,0.0,0.0,-3.7946,-3.8766,-3.8782,-4.0948,-4.2142,-4.2674,-4.2692,-4.2302,-4.1725,-4.111,-4.0552,-4.0096,-4.0096,-4.0096,-4.007,-4.007,-3.8995,-3.7793,-3.7793,-3.8346,-3.9212,-4.0532,-4.088,-4.1201,-4.24,-4.2941,-4.324,-4.3442,-4.3332,-4.2923,-4.1967,-4.1313,-4.0903,-4.088,-4.0903,-4.111,-4.1686,-4.1789,-4.1789,-4.1789,-4.1789,-4.1789,-4.1789,-4.1771,-4.1016,-3.9144,-3.8328,-3.7905,-3.7905,-3.7905,-3.7905,-3.7905,-3.7882,-3.8142,-3.8667,-3.9387,-4.0014,-4.0556,-4.0782,-4.0886,-4.088,-4.0326,-4.0375,-2.5054,-2.5928,-2.6642,-2.5559,-2.535,-2.4964,-2.346,-2.3007,-2.2477,-2.105,-2.065,-2.0535,-2.0504,-2.0677,-2.1605,-2.3931,-2.3989,-2.466,-2.7285,-2.7635,-2.7966,-2.8825,-3.0853,-3.2302,-3.2533,-3.5737,-3.8251,-3.9282,-4.1233,-4.2259,-4.1941,-4.1191,-3.9462,-3.6676,-3.6353,-3.6006,-3.5504,-3.5504,-3.5504,-3.5504,-3.6006,-3.6661,-3.7427,-3.7427,-3.7703,0.0,0.0,0.0,0.0,-3.8398,-3.912,-3.9573,-4.1181,-4.2162,-4.2711,-4.2711,-4.2577,-4.2322,-4.1707,-4.1133,-4.0655,-4.0655,-4.0392,-4.0096,-4.0096,-3.9756,-3.9375,-3.9375,-3.98,-4.0346,-4.0786,-4.1512,-4.2268,-4.2905,-4.3395,-4.3759,-4.3833,-4.3778,-4.3481,-4.2581,-4.2262,-4.2,-4.1578,-4.1853,-4.2059,-4.1814,-4.2142,-4.2282,-4.1853,-4.181,-4.181,-4.181,-4.181,-4.1555,-4.0954,-4.0687,-4.0386,-3.999,-4.0341,-4.0386,-3.9967,-4.0341,-4.0634,-4.0809,-4.1038,-4.1464,-4.2035,-4.2106,-4.2142,-4.2101,-4.1105,-4.0967,-2.6374,-2.7282,-2.7808,-2.6539,-2.5961,-2.5295,-2.3669,-2.3127,-2.2669,-2.1691,-2.1354,-2.1275,-2.1462,-2.1882,-2.2734,-2.431,-2.4699,-2.5571,-2.7806,-2.853,-2.9209,-3.0206,-3.1482,-3.2792,-3.4028,-3.6397,-3.8612,-4.0498,-4.2302,-4.3344,-4.34,-4.2373,-4.0556,-3.7874,-3.7007,-3.6384,-3.5926,-3.5651,-3.5504,-3.5504,-3.5975,-3.6753,-3.7793,-3.7793,-3.8189,0.0,0.0,0.0,0.0,-3.9242,-3.9966,-4.0538,-4.1697,-4.2482,-4.2976,-4.277,-4.2711,-4.2616,-4.2,-4.1556,-4.1246,-4.1246,-4.1013,-4.0744,-4.0744,-4.0594,-4.0417,-4.0417,-4.0821,-4.1291,-4.1512,-4.223,-4.2996,-4.3411,-4.3881,-4.4175,-4.4028,-4.4001,-4.3749,-4.2865,-4.2711,-4.2577,-4.2203,-4.246,-4.2655,-4.2464,-4.2771,-4.2865,-4.2483,-4.2426,-4.2426,-4.2426,-4.2548,-4.2586,-4.2446,-4.2062,-4.1643,-4.1251,-4.1599,-4.1621,-4.1268,-4.1599,-4.1916,-4.2142,-4.2142,-4.2422,-4.2995,-4.2807,-4.2578,-4.2342,-4.1599,-4.1556,0.0,-2.7826,-2.8388,-2.8338,-2.7304,-2.6067,-2.5101,-2.3793,0.0,-2.2375,-2.1943,-2.1827,-2.2358,-2.3362,-2.4038,-2.3833,-2.4891,-2.657,-2.896,-2.9599,-3.0535,-3.2472,-3.104,-3.1108,-3.4246,-3.5969,-3.8204,-4.1416,-4.2831,-4.3586,-4.3707,-4.3102,-4.1908,-4.0073,-3.7988,-3.6812,-3.6691,-3.6022,-3.5651,-3.5587,-3.5651,-3.6399,-3.7806,-3.7892,-3.8342,0.0,0.0,0.0,0.0,-4.0357,-4.1213,-4.1653,-4.2408,-4.3032,-4.3444,-4.2939,-4.2769,-4.2674,-4.2121,-4.1895,-4.1853,-4.1793,-4.181,-4.181,-4.181,-4.1424,-4.0972,-4.0972,-4.1402,-4.2,-4.258,-4.2996,-4.3391,-4.3918,-4.4337,-4.4487,-4.4106,-4.4001,-4.3749,-4.2922,-4.2769,-4.2769,-4.2769,-4.2769,-4.292,-4.3427,-4.3515,-4.3515,-4.3515,-4.3515,-4.3515,-4.3531,-4.382,-4.3896,-4.3597,-4.2564,-4.194,-4.1874,-4.1895,-4.1898,-4.1874,-4.1898,-4.2183,-4.275,-4.2769,-4.2995,-4.3515,-4.2958,-4.2422,-4.1937,-4.1895,-4.2183,-2.4883,0.0,-2.6274,-2.5811,-2.5548,-2.5082,0.0,-2.3614,-2.3369,-2.2474,-2.2209,-2.2517,-2.375,-2.3592,-2.4252,-2.7199,-2.7368,-2.8288,-3.1668,-3.2514,-3.3482,-3.5381,-3.4571,-3.4448,-3.5937,-3.8251,-4.0124,-4.1224,-4.29,-4.389,-4.3927,-4.3393,-4.2758,-4.2047,-4.0486,-3.8973,-3.7544,-3.7354,-3.6935,-3.6368,-3.6965,-3.7442,-3.7835,-3.8863,-3.9725,0.0,0.0,0.0,-4.1079,-4.1433,-4.1919,-4.2428,-4.2617,-4.3032,-4.3479,-4.3357,-4.3303,-4.3286,-4.316,-4.2828,-4.242,-4.1958,-4.181,-4.181,-4.181,-4.1686,-4.1599,-4.1599,-4.2021,-4.2581,-4.2977,-4.3463,-4.3915,-4.4359,-4.4527,-4.4487,-4.4106,-4.4001,-4.3862,-4.339,-4.3303,-4.3303,-4.3303,-4.3303,-4.3339,-4.3479,-4.3515,-4.3515,-4.3515,-4.3515,-4.3597,-4.3849,-4.3955,-4.4106,-4.4323,-4.3804,-4.321,-4.2539,-4.2865,-4.2921,-4.25,-4.2865,-4.3178,-4.3303,-4.3303,-4.3375,-4.3515,-4.2958,-4.2827,-4.3087,-4.2675,-4.2789,-2.4301,-2.5082,-2.5621,-2.5281,-2.518,-2.4936,-2.4154,-2.3772,-2.3401,-2.2821,-2.2594,-2.2832,-2.4013,-2.4133,-2.4866,-2.7358,-2.8426,-3.0356,-3.4442,-3.5839,-3.6834,-3.7961,-3.7176,-3.6938,0.0,-3.9454,-4.0863,-4.2017,-4.3134,-4.3852,-4.4001,-4.3584,-4.321,-4.2941,-4.2194,-4.0923,-3.9092,-3.8731,-3.8363,-3.7943,-3.8363,-3.8774,-3.9118,-3.984,-4.0584,0.0,0.0,0.0,-4.2203,-4.2203,-4.2541,-4.3087,-4.3087,-4.3232,-4.3515,-4.3515,-4.3515,-4.3515,-4.3515,-4.3303,-4.3014,-4.2696,-4.2581,-4.2581,-4.2581,-4.2833,-4.299,-4.2391,-4.2736,-4.3351,-4.3529,-4.4027,-4.4521,-4.458,-4.4593,-4.4581,-4.4558,-4.4438,-4.4441,-4.4811,-4.4887,-4.4934,-4.5121,-4.4997,-4.4868,-4.4887,-4.4719,-4.4668,-4.4853,-4.4887,-4.5013,-4.5386,-4.5565,-4.5674,-4.5738,-4.5529,-4.4777,-4.337,-4.3425,-4.3375,-4.3069,-4.3357,-4.3515,-4.3515,-4.3864,-4.4048,-4.4048,-4.4145,-4.4309,-4.4599,-4.4309,-4.4327,-2.4459,-2.5216,-2.5792,-2.5603,-2.544,-2.5229,-2.4846,-2.4022,-2.3299,-2.3212,-2.3072,-2.3289,-2.4319,-2.524,-2.6118,-2.7001,-2.952,-3.2807,-3.6926,-3.873,-3.9681,-3.9773,-3.9008,-3.8822,-3.9716,-4.0221,-4.1176,-4.285,-4.3318,-4.3612,-4.3912,-4.3693,-4.3507,-4.3324,-4.3306,-4.2613,-4.1139,-4.0331,-3.9853,-3.9756,-3.9808,-4.01,-4.0614,-4.0814,-4.1293,-4.1937,0.0,0.0,-4.2826,-4.2826,-4.3087,-4.3515,-4.3515,-4.3515,-4.3515,-4.3515,-4.3515,-4.3515,-4.3515,-4.3515,-4.3515,-4.3515,-4.3588,-4.3681,-4.3681,-4.4284,-4.4744,-4.3596,-4.3804,-4.4401,-4.4516,-4.4997,-4.5403,-4.5123,-4.5009,-4.5052,-4.5338,-4.5179,-4.5267,-4.6294,-4.6536,-4.669,-4.7051,-4.682,-4.6598,-4.6601,-4.6298,-4.6198,-4.6554,-4.6601,-4.6735,-4.7127,-4.7438,-4.7498,-4.7277,-4.7095,-4.6271,-4.4584,-4.4079,-4.3882,-4.3882,-4.3882,-4.3882,-4.3882,-4.4544,-4.4892,-4.4892,-4.5571,-4.5902,-4.5902,-4.5902,-4.5902,-2.4987,-2.5847,-2.6213,-2.5198,-2.5404,-2.5566,-2.4412,-2.4002,-2.3751,-2.3287,-2.3696,-2.4784,-2.6908,-2.7821,-2.8848,-3.0645,-3.3354,-3.6004,-3.8178,-3.9477,-4.0088,-3.9823,-4.0065,-4.011,-3.9825,-4.1332,-4.2217,-4.2029,-4.2941,-4.3513,-4.3563,-4.3804,-4.3909,-4.3872,-4.3872,-4.3757,-4.3474,-4.2411,-4.1561,-4.0936,-4.1288,-4.1138,-4.0637,-4.1816,-4.2444,-4.2596,0.0,-4.3303,-4.3375,-4.3375,-4.3427,-4.3515,-4.3515,-4.3515,-4.3515,-4.3515,-4.3515,-4.3515,-4.3515,-4.3515,-4.3515,-4.3515,-4.3956,-4.4525,-4.4525,-4.5317,-4.6171,-4.596,-4.602,-4.6266,-4.6885,-4.7129,-4.7186,-4.7152,-4.6872,-4.6577,-4.6358,-4.6254,-4.6278,-4.6472,-4.678,-4.7037,-4.7092,-4.7051,-4.7023,-4.701,-4.6968,-4.6953,-4.701,-4.701,-4.7127,-4.7486,-4.7556,-4.7687,-4.7942,-4.7352,-4.6873,-4.6553,-4.591,-4.5535,-4.5535,-4.5535,-4.5535,-4.5535,-4.5645,-4.5718,-4.5718,-4.5847,-4.5902,-4.5902,-4.5902,-4.5902,-2.4601,-2.5338,-2.5862,-2.5528,-2.6306,-2.7011,-2.657,-2.615,-2.5904,-2.6131,-2.6321,-2.7034,-2.894,-2.9715,-3.1079,-3.427,-3.7041,-3.9246,-4.0467,-4.1446,-4.1868,-4.1415,0.0,-4.1963,-4.1407,-4.2447,-4.3014,-4.2734,0.0,0.0,-4.3515,-4.3646,-4.382,-4.3982,-4.4001,-4.4102,-4.4318,-4.3585,-4.2957,-4.2445,-4.2643,-4.2509,-4.2205,-4.2848,-4.3124,-4.316,0.0,-4.3515,-4.3515,-4.3515,-4.3515,-4.3515,-4.3515,-4.3515,-4.3551,-4.3993,-4.4158,-4.4213,-4.4654,-4.48,-4.48,-4.48,-4.5039,-4.5386,-4.5611,-4.6347,-4.7236,-4.7669,-4.7454,-4.7174,-4.751,-4.7739,-4.7822,-4.7643,-4.7455,-4.7359,-4.7456,-4.7477,-4.7667,-4.8324,-4.8596,-4.8795,-4.9014,-4.8876,-4.8713,-4.8713,-4.8543,-4.8488,-4.8688,-4.8713,-4.8857,-4.9241,-4.9273,-4.9333,-4.9481,-4.8988,-4.8031,-4.6496,-4.6096,-4.5902,-4.5902,-4.5902,-4.5902,-4.5902,-4.6342,-4.6562,-4.6562,-4.6985,-4.7205,-4.7205,-4.7205,-4.7205,-2.4496,-2.5004,-2.5634,-2.6231,-2.6997,-2.7796,-2.8496,-2.8186,-2.8063,-2.9057,-2.9334,-2.9803,-3.1133,-3.2097,-3.3885,-3.7596,-3.9874,-4.1475,-4.228,-4.3025,-4.3303,-4.2769,-4.3178,-4.3286,-4.275,-4.3196,-4.3444,-4.3321,0.0,0.0,-4.3515,-4.3563,-4.3742,-4.4001,-4.4001,-4.4146,-4.446,-4.4076,-4.3788,-4.3631,-4.3531,-4.3515,-4.3515,-4.3515,-4.3515,-4.3515,-4.3515,-4.3515,-4.3515,-4.3515,-4.3515,-4.3533,-4.3699,-4.3901,-4.414,-4.4745,-4.4984,-4.5076,-4.5681,-4.5902,-4.5902,-4.5902,-4.6084,-4.6391,-4.6692,-4.7473,-4.8386,-4.8998,-4.8762,-4.8321,-4.8321,-4.8527,-4.8635,-4.8394,-4.8246,-4.8272,-4.8647,-4.8726,-4.8983,-4.991,-5.0171,-5.0336,-5.0653,-5.0432,-5.0249,-5.0249,-5.0146,-5.0164,-5.0481,-5.0707,-5.0952,-5.124,-5.1087,-5.0932,-5.0853,-5.075,-4.9725,-4.7469,-4.6871,-4.6562,-4.6471,-4.6544,-4.6597,-4.6597,-4.7205,-4.7519,-4.7519,-4.8051,-4.8306,-4.8306,-4.8306,-4.8306,-2.5382,-2.5687,-2.6046,-2.7191,-2.6807,-2.6605,-2.8379,-2.8831,-2.9267,-3.0643,-3.1989,-3.3157,-3.3878,-3.5882,-3.8158,-4.0434,-4.1177,-4.174,-4.257,-4.316,-4.3303,-4.2769,-4.3178,-4.3286,-4.275,-4.3196,-4.3286,0.0,0.0,0.0,-4.3515,-4.3788,-4.3986,-4.4001,-4.4001,-4.3998,-4.4028,-4.371,-4.3695,-4.3955,-4.3646,-4.3515,-4.3515,-4.3515,-4.3515,-4.3515,-4.3515,-4.3515,-4.3515,-4.3515,-4.3515,-4.357,-4.4323,-4.5076,-4.5736,-4.5792,-4.581,-4.581,-4.5883,-4.5902,-4.5902,-4.5902,-4.6664,-4.7578,-4.7593,-4.871,-4.9936,-5.0004,-5.0235,-5.0471,-5.0471,-5.0481,-5.051,-5.0481,-5.0197,-4.994,-4.9954,-4.9973,-4.9992,-5.0092,-5.041,-5.0663,-5.0702,-5.0673,-5.0663,-5.0663,-5.1267,-5.1738,-5.1777,-5.248,-5.299,-5.3029,-5.2288,-5.1657,-5.1291,-5.196,-5.2175,-5.1598,-4.9746,-4.8526,-4.8142,-4.849,-4.8695,-4.8695,-4.8734,-4.8771,-4.8771,-4.8458,-4.8306,-4.8306,-4.8306,-4.8306,-2.5014,-2.5958,-2.6925,-2.7525,-2.821,-2.9096,-3.0474,-3.1223,-3.2212,-3.4336,-3.5006,-3.54,-3.5935,-3.7867,-3.9662,-4.0467,-4.1812,-4.2849,-4.3141,-4.3375,-4.3427,-4.3214,-4.3375,-4.3427,-4.3214,-4.3392,-4.341,0.0,0.0,0.0,-4.3515,-4.3612,-4.3677,-4.3677,-4.3677,-4.3677,-4.3677,-4.3546,-4.3546,-4.3695,-4.3546,-4.3515,-4.3515,-4.3515,-4.3515,-4.3515,-4.3515,-4.3515,-4.3551,-4.403,-4.425,-4.4323,-4.5131,-4.5626,-4.5957,-4.6471,-4.6636,-4.6728,-4.7223,-4.7555,-4.7784,-4.7784,-4.8238,-4.8875,-4.9122,-4.9619,-5.0159,-5.041,-5.0575,-5.0712,-5.0712,-5.0712,-5.0712,-5.0712,-5.0575,-5.0607,-5.1105,-5.122,-5.1374,-5.1911,-5.215,-5.2241,-5.2241,-5.2241,-5.2241,-5.2241,-5.251,-5.2712,-5.2712,-5.301,-5.3203,-5.3203,-5.2914,-5.2661,-5.2478,-5.2785,-5.2793,-5.2403,-5.0929,-5.0022,-4.9861,-5.0006,-5.0065,-5.0065,-5.057,-5.0705,-5.0441,-5.0303,-5.0102,-4.9848,-4.9848,-4.9848,-2.4556,-2.5595,-2.6921,-2.7663,-2.9017,-3.0689,-3.2755,-3.3634,-3.4773,-3.7403,-3.7778,-3.7702,-3.7952,-3.939,-4.0548,-4.0558,-4.2208,-4.3515,-4.3515,-4.3515,-4.3515,-4.3515,-4.3515,-4.3515,-4.3515,-4.3515,0.0,0.0,0.0,0.0,0.0,-4.3515,-4.3515,-4.3515,-4.3515,-4.3515,-4.3515,-4.3515,-4.3515,-4.3515,-4.3515,-4.3515,-4.3515,-4.3515,-4.3626,-4.3883,-4.3883,-4.4011,-4.4287,-4.4856,-4.5241,-4.5498,-4.6067,-4.6434,-4.6728,-4.7278,-4.7555,-4.7739,-4.8292,-4.8744,-4.9092,-4.9092,-4.9371,-4.9746,-5.0019,-5.0374,-5.073,-5.0998,-5.1279,-5.1491,-5.1491,-5.1279,-5.1144,-5.1414,-5.1491,-5.1645,-5.2192,-5.2308,-5.2481,-5.3087,-5.3203,-5.3203,-5.3203,-5.3203,-5.3203,-5.3203,-5.3433,-5.3606,-5.3606,-5.3837,-5.3895,-5.3645,-5.3837,-5.3895,-5.3626,-5.3837,-5.3879,-5.359,-5.2565,-5.1735,-5.1189,-5.1291,-5.1362,-5.1362,-5.1907,-5.2061,-5.1772,-5.1642,-5.1374,-5.0985,-5.0985,-5.0906,-2.4125,-2.4615,-2.5801,-2.7725,-2.894,-3.076,-3.4967,-3.5877,-3.6627,-3.944,-4.0188,-4.0238,-3.9976,-4.0561,-4.1113,-4.113,-4.2451,-4.3515,-4.3515,-4.3515,-4.3515,-4.3515,-4.3515,-4.3515,-4.3515,-4.3515,0.0,0.0,0.0,0.0,0.0,-4.3496,-4.3496,-4.3515,-4.3496,-4.3496,-4.3515,-4.3515,-4.3515,-4.3515,-4.3515,-4.3515,-4.3515,-4.3515,-4.3956,-4.4691,-4.4727,-4.5168,-4.5902,-4.5902,-4.6397,-4.7113,-4.7113,-4.759,-4.8306,-4.8306,-4.855,-4.8913,-4.8913,-4.9171,-4.9522,-4.9522,-4.9773,-5.0123,-5.0123,-5.0944,-5.1904,-5.1904,-5.2519,-5.3203,-5.3222,-5.2558,-5.2135,-5.301,-5.3203,-5.3203,-5.3222,-5.3222,-5.3222,-5.3222,-5.3222,-5.3222,-5.3222,-5.3222,-5.3222,-5.3222,-5.3972,-5.4511,-5.4511,-5.5203,-5.5395,-5.4607,-5.5222,-5.5376,-5.4587,-5.5241,-5.5703,-5.5703,-5.4953,-5.3766,-5.2099,-5.2408,-5.2628,-5.2628,-5.2628,-5.2628,-5.2628,-5.2224,-5.182,-5.1428,-5.1428,-5.1213,-2.4293,-2.6145,-2.8385,-2.8961,-3.1599,-3.4495,-3.6281,-3.714,-3.8374,-4.1236,-4.1684,-4.1537,-4.1458,-4.1723,-4.2018,-4.2261,-4.298,-4.3515,-4.3515,-4.3515,-4.3515,-4.3515,-4.3515,-4.3515,-4.3515,-4.3515,0.0,0.0,0.0,0.0,0.0,-4.3726,-4.374,-4.3515,-4.3726,-4.3742,-4.3496,-4.3515,-4.3515,-4.3515,-4.3515,-4.3515,-4.3533,-4.4085,-4.447,-4.4728,-4.5296,-4.5681,-4.5938,-4.6526,-4.7204,-4.7938,-4.7938,-4.8255,-4.8709,-4.8709,-4.898,-4.9326,-4.9326,-4.9575,-4.9924,-4.9924,-5.0195,-5.063,-5.1195,-5.1612,-5.2019,-5.2635,-5.301,-5.3337,-5.3953,-5.3914,-5.3645,-5.328,-5.3203,-5.3376,-5.3972,-5.4107,-5.428,-5.4857,-5.4953,-5.4953,-5.4953,-5.4953,-5.4953,-5.4953,-5.4948,-5.4918,-5.4918,-5.5389,-5.5607,-5.5376,-5.5549,-5.5588,-5.5357,-5.5549,-5.5703,-5.5703,-5.5472,-5.4869,-5.3797,-5.3867,-5.3931,-5.3931,-5.4487,-5.4633,-5.4358,-5.4232,-5.3973,-5.3572,-5.3572,-5.3524,-2.4777,-2.6849,-2.9345,-3.0677,-3.3239,-3.6061,-3.8486,-3.9517,-4.0564,-4.2651,-4.2819,-4.2573,-4.2579,-4.2646,-4.2757,-4.2964,-4.3385,-4.3693,-4.3693,-4.358,-4.3515,-4.3515,-4.3515,-4.3515,-4.3515,0.0,0.0,0.0,0.0,0.0,0.0,-4.3896,-4.3971,-4.3946,-4.3971,-4.3893,-4.3693,-4.3582,-4.3515,-4.3515,-4.3515,-4.3515,-4.3533,-4.4342,-4.4856,-4.5241,-4.6379,-4.6856,-4.6893,-4.7369,-4.7846,-4.8306,-4.8306,-4.855,-4.8897,-4.8897,-4.9265,-4.9746,-4.9746,-4.9987,-5.0336,-5.0336,-5.0724,-5.1279,-5.175,-5.2385,-5.3049,-5.3568,-5.3953,-5.4318,-5.4838,-5.4972,-5.4838,-5.4318,-5.4184,-5.4337,-5.4857,-5.4972,-5.5126,-5.5607,-5.5703,-5.5703,-5.5703,-5.5703,-5.5703,-5.5703,-5.5489,-5.5331,-5.5331,-5.5554,-5.5703,-5.5703,-5.6011,-5.6233,-5.6233,-5.653,-5.6722,-5.6722,-5.6722,-5.6511,-5.603,-5.5338,-5.4972,-5.4972,-5.5453,-5.5577,-5.5331,-5.5331,-5.5134,-5.475,-5.475,-5.464,-2.5376,-2.6989,-2.9218,-3.2492,-3.4246,-3.6395,-4.1124,-4.2379,-4.2821,-4.3774,-4.3707,-4.3466,-4.3503,-4.3454,-4.3429,-4.3454,-4.3797,-4.4043,-4.4043,-4.3788,-4.3597,-4.3597,-4.3597,-4.3597,-4.3597,0.0,0.0,0.0,0.0,0.0,0.0,-4.4073,-4.4247,-4.458,-4.4276,-4.4058,-4.4001,-4.3693,-4.3531,-4.3515,-4.3515,-4.3515,-4.3533,-4.4342,-4.5186,-4.6085,-4.7572,-4.8233,-4.8306,-4.8306,-4.8306,-4.8306,-4.8306,-4.8568,-4.8945,-4.8945,-4.9456,-5.0159,-5.0159,-5.038,-5.0712,-5.0789,-5.1298,-5.1923,-5.2096,-5.3241,-5.4511,-5.4587,-5.5145,-5.5703,-5.5703,-5.5703,-5.5703,-5.5703,-5.5703,-5.5703,-5.5703,-5.5703,-5.5703,-5.5703,-5.5703,-5.5722,-5.5799,-5.5818,-5.5838,-5.5863,-5.5904,-5.5923,-5.5882,-5.5904,-5.5934,-5.5934,-5.6656,-5.7118,-5.7118,-5.7838,-5.83,-5.83,-5.83,-5.83,-5.83,-5.678,-5.5934,-5.5934,-5.5934,-5.5895,-5.5818,-5.5895,-5.5704,-5.5275,-5.5351,-5.5194,-2.5448,-2.7461,-2.9961,-3.2694,-3.6024,-3.9363,-4.2235,-4.2975,-4.3455,-4.4916,-4.4945,-4.4799,-4.5055,-4.468,-4.4417,-4.4669,-4.4594,-4.4474,-4.4474,-4.4406,-4.4364,-4.4364,-4.4364,-4.4364,-4.4364,0.0,0.0,0.0,0.0,0.0,-4.4474,-4.4732,-4.4781,-4.4612,-4.4769,-4.4587,-4.4016,-4.3924,-4.3756,0.0,-4.3515,-4.3515,-4.3533,-4.4342,-4.548,-4.6856,-4.7204,-4.7718,-4.8306,-4.8306,-4.8306,-4.8306,-4.8306,-4.8745,-4.9371,-4.9371,-4.9866,-5.0565,-5.0565,-5.0624,-5.0808,-5.1433,-5.175,-5.2154,-5.353,-5.4203,-5.4626,-5.5261,-5.5568,-5.5703,-5.5703,-5.5703,-5.5703,-5.5703,-5.5703,-5.5703,-5.5703,-5.5703,-5.5703,-5.5703,-5.5703,-5.5915,-5.6599,-5.6714,-5.6817,-5.7136,-5.7496,-5.7612,-5.7232,-5.7515,-5.7742,-5.7742,-5.7915,-5.803,-5.803,-5.8184,-5.83,-5.83,-5.83,-5.83,-5.83,-5.7934,-5.7742,-5.7742,-5.7742,-5.7396,-5.6714,-5.7415,-5.7343,-5.6614,-5.7286,-5.7577,-2.6344,-2.8514,-3.1133,-3.4941,-3.8044,-4.0613,-4.2251,-4.2918,-4.3563,-4.48,-4.5222,-4.54,-4.5568,-4.5303,-4.514,-4.5312,-4.5063,-4.4849,-4.4849,-4.4695,-4.4593,-4.4593,-4.4593,-4.4593,0.0,0.0,0.0,0.0,0.0,-4.467,-4.4837,-4.5019,-4.5096,-4.5085,-4.5096,-4.4931,-4.4535,-4.419,-4.3909,-4.3742,-4.358,-4.3515,-4.3533,-4.4342,-4.5572,-4.7094,-4.7094,-4.7553,-4.8306,-4.8306,-4.8402,-4.8586,-4.8586,-4.9075,-4.9787,-4.9787,-5.0171,-5.077,-5.1144,-5.1279,-5.1414,-5.226,-5.2799,-5.3318,-5.4222,-5.4761,-5.5164,-5.5568,-5.5703,-5.5703,-5.5703,-5.6011,-5.6329,-5.6329,-5.5992,-5.5799,-5.6233,-5.6329,-5.6453,-5.6857,-5.6934,-5.7088,-5.753,-5.7607,-5.7697,-5.7895,-5.8138,-5.8204,-5.7959,-5.8138,-5.83,-5.83,-5.8646,-5.8877,-5.8877,-5.9261,-5.9492,-5.9492,-5.9492,-5.9492,-5.9492,-5.9492,-5.9127,-5.8319,-5.83,-5.8088,-5.7607,-5.8088,-5.8069,-5.7627,-5.8088,-5.83,-2.6742,-2.9292,-3.2285,-3.7128,-3.9457,-4.0825,-4.187,-4.2704,-4.3516,-4.436,-4.5128,-4.5657,-4.5635,-4.5635,-4.5637,-4.5603,-4.5381,-4.5191,-4.5191,-4.4943,-4.4769,-4.4769,-4.4769,-4.4769,0.0,0.0,0.0,0.0,0.0,-4.4896,-4.518,-4.5191,-4.5312,-4.5586,-4.5332,-4.5169,-4.5096,-4.4489,-4.4161,-4.4087,-4.382,-4.3679,-4.3697,-4.438,-4.5493,-4.6892,-4.6892,-4.7424,-4.8306,-4.8383,-4.8604,-4.8913,-4.898,-4.9441,-5.0092,-5.0092,-5.0347,-5.0827,-5.1625,-5.1904,-5.2077,-5.3087,-5.3914,-5.453,-5.4664,-5.5164,-5.5722,-5.5876,-5.5915,-5.5953,-5.6107,-5.6684,-5.7234,-5.7234,-5.6665,-5.6338,-5.708,-5.7234,-5.7434,-5.8165,-5.8415,-5.8511,-5.8511,-5.8627,-5.8723,-5.8723,-5.8723,-5.8723,-5.8723,-5.8723,-5.8723,-5.8723,-5.9338,-5.9723,-5.9723,-6.0396,-6.08,-6.08,-6.08,-6.08,-6.08,-6.08,-6.0146,-5.8761,-5.8723,-5.8665,-5.8511,-5.8665,-5.8646,-5.8511,-5.8665,-5.8723,-2.4573,-2.8395,-3.289,-3.6422,-3.8655,-4.037,-4.1781,-4.2854,-4.3757,-4.4528,-4.5313,-4.5836,-4.577,-4.5763,-4.5733,-4.5629,-4.5568,-4.5522,-4.5522,-4.5495,-4.5476,-4.5476,-4.5476,-4.5476,0.0,0.0,0.0,0.0,-4.5476,-4.5495,-4.5522,-4.5522,-4.5559,-4.5594,-4.5559,-4.5381,-4.5096,-4.5,-4.4806,-4.4514,-4.4474,-4.4447,-4.4465,-4.456,-4.5143,-4.6067,-4.6067,-4.6911,-4.8344,-4.8675,-4.8846,-4.8947,-4.928,-4.9706,-5.0092,-5.0092,-5.0347,-5.0827,-5.1625,-5.1904,-5.2173,-5.3799,-5.4414,-5.4626,-5.5318,-5.5607,-5.5857,-5.6618,-5.683,-5.7003,-5.7761,-5.805,-5.8127,-5.8127,-5.805,-5.7992,-5.8107,-5.8127,-5.8165,-5.828,-5.8858,-5.9338,-5.9338,-5.9973,-6.0473,-6.0473,-6.0473,-6.0473,-6.0473,-6.0473,-6.0473,-6.0473,-6.055,-6.0627,-6.0627,-6.0723,-6.08,-6.08,-6.08,-6.08,-6.08,-6.08,-6.0685,-6.0473,-6.0473,-6.0089,-5.9338,-6.0108,-6.0089,-5.9358,-6.0108,-6.0473,-2.6423,-3.0038,-3.3691,-3.7084,-3.8876,-4.0096,-4.1217,-4.2205,-4.3095,-4.3925,-4.4787,-4.5484,-4.5794,-4.5826,-4.5776,-4.5711,-4.566,-4.5594,-4.5594,-4.5594,-4.5594,-4.5594,-4.5594,-4.5594,0.0,0.0,0.0,0.0,-4.5594,-4.5594,-4.5594,-4.5594,-4.5594,-4.5594,-4.5594,-4.5522,-4.5371,-4.5201,-4.4931,-4.4593,-4.4593,-4.4593,-4.4612,-4.5064,-4.5735,-4.6517,-4.6517,-4.745,-4.898,-4.9155,-4.9371,-4.9589,-4.9773,-5.008,-5.0489,-5.0938,-5.1216,-5.1568,-5.2895,-5.3356,-5.3568,-5.478,-5.5164,-5.5241,-5.5588,-5.603,-5.6522,-5.6887,-5.7349,-5.7819,-5.8204,-5.8627,-5.8973,-5.8973,-5.9358,-5.9704,-5.9704,-5.9319,-5.9127,-5.9608,-5.9992,-6.0223,-6.0223,-6.055,-6.08,-6.08,-6.08,-6.08,-6.08,-6.08,-6.08,-6.08,-6.08,-6.08,-6.08,-6.08,-6.08,-6.08,-6.08,-6.08,-6.08,-6.08,-6.08,-6.08,-6.08,-6.0608,-6.0223,-6.0608,-6.0589,-6.0242,-6.0608,-6.08,-2.7324,-3.0156,-3.2656,-3.6367,-3.8021,-3.9099,-4.0427,-4.1384,-4.2322,-4.3398,-4.4351,-4.5211,-4.5883,-4.5933,-4.5856,-4.5816,-4.5723,-4.5643,-4.5603,-4.5594,-4.5594,-4.5594,-4.5594,-4.5594,0.0,0.0,0.0,0.0,-4.5594,-4.5594,-4.5594,-4.5594,-4.5594,-4.5594,-4.5594,-4.5594,-4.5594,-4.5352,-4.5107,-4.4842,-4.4842,-4.4842,-4.4879,-4.5695,-4.653,-4.7283,-4.7322,-4.8164,-4.9504,-4.9603,-4.9827,-5.0104,-5.0206,-5.0432,-5.0808,-5.1606,-5.1904,-5.2154,-5.3895,-5.4491,-5.4626,-5.5434,-5.5703,-5.5742,-5.5953,-5.6483,-5.7099,-5.7522,-5.8107,-5.8665,-5.8877,-5.9377,-5.9838,-5.9838,-6.0319,-6.08,-6.08,-6.0281,-6.0012,-6.0666,-6.08,-6.08,-6.08,-6.08,-6.08,-6.08,-6.08,-6.08,-6.08,-6.08,-6.08,-6.08,-6.08,-6.08,-6.08,-6.08,-6.08,-6.08,-6.08,-6.08,-6.08,-6.08,-6.08,-6.08,-6.08,-6.08,-6.08,-6.08,-6.08,-6.08,-6.08,-6.08,-2.4921,-2.6602,-2.8359,-3.2617,-3.4941,-3.6855,-3.9375,-4.0625,-4.1719,-4.3359,-4.4394,-4.5254,-4.6113,-4.6173,-4.6014,-4.5834,-4.579,-4.5747,-4.562,-4.5594,-4.5594,-4.5594,-4.5594,-4.5594,0.0,0.0,0.0,0.0,-4.5594,-4.5594,-4.5594,-4.5594,-4.5594,-4.5594,-4.5594,-4.5594,-4.5594,-4.5577,-4.5568,-4.5559,-4.5559,-4.5559,-4.5578,-4.6454,-4.7271,-4.8058,-4.8169,-4.8707,-4.9518,-4.9911,-5.008,-5.0147,-5.0534,-5.0673,-5.0808,-5.1606,-5.1904,-5.2154,-5.3895,-5.4491,-5.4626,-5.5434,-5.5703,-5.5838,-5.6676,-5.6964,-5.733,-5.8915,-5.9396,-5.9627,-6.0454,-6.0704,-6.0723,-6.0723,-6.0762,-6.08,-6.08,-6.0762,-6.0742,-6.0781,-6.08,-6.08,-6.08,-6.08,-6.08,-6.08,-6.08,-6.08,-6.08,-6.08,-6.08,-6.08,-6.08,-6.08,-6.08,-6.08,-6.08,-6.08,-6.08,-6.08,-6.08,-6.08,-6.08,-6.08,-6.08,-6.08,-6.08,-6.08,-6.08,-6.08,-6.08,-6.08,-2.4389,-2.6281,-2.841,-3.1068,-3.3431,-3.5503,-3.705,-3.8945,-4.0684,-4.1855,-4.2754,-4.3769,-4.5195,-4.5807,-4.6075,-4.5997,-4.5924,-4.5855,-4.5799,-4.5794,-4.5794,-4.5794,-4.5794,0.0,0.0,0.0,0.0,0.0,0.0,-4.5594,-4.5594,-4.5594,-4.5594,-4.5594,-4.5594,-4.5594,-4.5594,-4.5594,-4.5594,-4.5594,-4.5594,-4.5594,-4.5652,-4.7048,-4.7836,-4.8173,-4.9337,-4.9996,-5.0272,-5.0421,-5.0483,-5.0493,-5.0634,-5.101,-5.1568,-5.2433,-5.3087,-5.3722,-5.4876,-5.5261,-5.5318,-5.5607,-5.6069,-5.6599,-5.6907,-5.7753,-5.8723,-5.9338,-5.9896,-6.0416,-6.0723,-6.08,-6.08,-6.08,-6.08,-6.08,-6.08,-6.08,-6.08,-6.08,-6.08,-6.08,-6.08,-6.08,-6.08,-6.08,-6.08,-6.08,-6.08,-6.08,-6.08,-6.08,-6.08,-6.08,-6.08,-6.08,-6.08,-6.08,-6.08,-6.08,-6.08,-6.08,-6.08,-6.08,-6.08,-6.08,-6.08,-6.08,-6.08,-6.08,-6.08,-6.08,-2.3756,-2.5604,-2.7886,-3.016,-3.1829,-3.3501,-3.5873,-3.7538,-3.9082,-4.084,-4.1836,-4.2832,-4.4297,-4.5209,-4.5815,-4.6054,-4.603,-4.5944,-4.5907,-4.5899,-4.5899,-4.5899,-4.5899,0.0,0.0,0.0,0.0,0.0,0.0,0.0,-4.5665,-4.5665,-4.5665,-4.5665,-4.5665,-4.5651,-4.5594,-4.5594,-4.5594,-4.5594,-4.5594,-4.5594,-4.5671,-4.7336,-4.8105,-4.8202,-4.9933,-5.0712,-5.0712,-5.0712,-5.0712,-5.0712,-5.0712,-5.1183,-5.2,-5.2876,-5.376,-5.4626,-5.5415,-5.5703,-5.5742,-5.603,-5.6541,-5.7121,-5.7755,-5.8676,-5.9573,-5.9903,-6.038,-6.08,-6.08,-6.08,-6.08,-6.08,-6.08,-6.08,-6.08,-6.08,-6.08,-6.08,-6.08,-6.08,-6.08,-6.08,-6.08,-6.08,-6.08,-6.08,-6.08,-6.08,-6.08,-6.08,-6.08,-6.08,-6.08,-6.08,-6.08,-6.08,-6.08,-6.08,-6.08,-6.08,-6.08,-6.08,-6.08,-6.08,-6.08,-6.08,-6.08,-6.08,-6.08,-6.08,0.0,0.0,0.0,-2.9605,-2.9938,-3.0776,-3.5786,-3.6398,-3.6875,-4.0332,-4.1699,-4.2539,-4.3476,-4.4355,-4.5173,-4.5945,-4.6091,-4.605,-4.5924,-4.5912,-4.5912,-4.5912,-4.5912,0.0,0.0,0.0,0.0,0.0,-4.5809,-4.5809,-4.5809,-4.5809,-4.5809,-4.5809,-4.5803,-4.5733,-4.5603,-4.5594,-4.5594,-4.5594,-4.5594,-4.5594,-4.5671,-4.7336,-4.8105,-4.8202,-4.9933,-5.0712,-5.0712,-5.0712,-5.0712,-5.0712,-5.0712,-5.1202,-5.2038,-5.2895,-5.378,-5.4645,-5.5434,-5.5703,-5.5838,-5.6714,-5.7022,-5.7394,-5.9232,-5.9679,-5.9755,-6.073,-6.0915,-6.0816,-6.0816,-6.0804,-6.0812,-6.0812,-6.0793,-6.08,-6.08,-6.08,-6.08,-6.08,-6.08,-6.08,-6.08,-6.08,-6.08,-6.08,-6.08,-6.08,-6.08,-6.08,-6.08,-6.08,-6.08,-6.08,-6.08,-6.08,-6.08,-6.08,-6.08,-6.08,-6.08,-6.08,-6.08,-6.08,-6.08,-6.08,-6.08,-6.08,-6.08,-6.08,-6.08,-6.08,-2.3062,0.0,0.0,0.0,0.0,0.0,-3.0275,-3.1942,-3.3968,-3.6727,-3.8053,-3.953,-4.2191,-4.2925,-4.3593,-4.5075,-4.5836,-4.6225,-4.6199,-4.6198,-4.6198,-4.6198,-4.6198,0.0,0.0,0.0,0.0,0.0,-4.5867,-4.5867,-4.5867,-4.5867,-4.5867,-4.5867,-4.5826,-4.5776,-4.5747,-4.5651,-4.5594,-4.5594,-4.5594,-4.5594,-4.5671,-4.7336,-4.8105,-4.8202,-4.9933,-5.0712,-5.0712,-5.0712,-5.0712,-5.0712,-5.0712,-5.1587,-5.2876,-5.3106,-5.4126,-5.5395,-5.5607,-5.5703,-5.5838,-5.6714,-5.7486,-5.8294,-5.9459,-6.0278,-6.0859,-6.1149,-6.1179,-6.1162,-6.1162,-6.1042,-6.0935,-6.0935,-6.086,-6.08,-6.08,-6.08,-6.08,-6.08,-6.08,-6.08,-6.08,-6.08,-6.08,-6.08,-6.08,-6.08,-6.08,-6.08,-6.08,-6.08,-6.08,-6.08,-6.08,-6.08,-6.08,-6.08,-6.08,-6.08,-6.08,-6.08,-6.08,-6.08,-6.08,-6.08,-6.08,-6.08,-6.08,-6.08,-6.08,-6.08,-2.3681,-2.4429,-2.5489,-2.5726,0.0,0.0,-2.9227,-3.0616,-3.2327,-3.5207,-3.6528,-3.7887,-4.0239,-4.1293,-4.2165,-4.3242,-4.4433,-4.5469,-4.6191,-4.6308,-4.6308,-4.6308,-4.6308,0.0,0.0,-4.6177,-4.614,-4.5992,-4.5985,-4.5985,-4.5985,-4.6039,-4.6042,-4.5985,-4.5946,-4.5875,-4.5803,-4.5711,-4.5668,-4.5594,-4.5594,-4.5594,-4.5671,-4.7336,-4.8105,-4.8202,-4.9933,-5.0712,-5.0712,-5.0712,-5.0712,-5.0731,-5.1068,-5.2029,-5.3251,-5.3677,-5.466,-5.5789,-5.5879,-5.6126,-5.656,-5.7422,-5.8354,-5.9301,-6.0223,-6.0882,-6.132,-6.1379,-6.1334,-6.1303,-6.1303,-6.1158,-6.0997,-6.0997,-6.0904,-6.08,-6.08,-6.08,-6.08,-6.08,-6.08,-6.08,-6.08,-6.08,-6.08,-6.08,-6.08,-6.08,-6.08,-6.08,-6.08,-6.08,-6.08,-6.0819,-6.0882,-6.0873,-6.0924,-6.1011,-6.1011,-6.1011,-6.1011,-6.0934,-6.0873,-6.0873,-6.0831,-6.08,-6.08,-6.08,-6.08,-6.08,-6.08,-6.08,-2.4827,-2.527,-2.6234,-2.7547,-2.6945,0.0,-3.0323,-3.0726,-3.1287,-3.4413,-3.5639,-3.6526,-3.7719,-3.9318,-4.0508,-4.0721,-4.2266,-4.4062,-4.5898,-4.6152,-4.6191,-4.6289,-4.6308,0.0,-4.6308,-4.6308,-4.6247,-4.612,-4.6119,-4.6119,-4.6119,-4.6245,-4.6247,-4.6138,-4.6113,-4.6004,-4.584,-4.5815,-4.5749,-4.5632,-4.5627,-4.561,-4.5687,-4.7345,-4.8115,-4.8219,-4.998,-5.073,-5.073,-5.073,-5.074,-5.0808,-5.1607,-5.2454,-5.3359,-5.4351,-5.5246,-5.5959,-5.6146,-5.6722,-5.7545,-5.8415,-5.9302,-6.022,-6.1208,-6.1432,-6.1359,-6.1495,-6.144,-6.1334,-6.1334,-6.1188,-6.104,-6.104,-6.0905,-6.08,-6.08,-6.08,-6.08,-6.08,-6.08,-6.08,-6.08,-6.08,-6.08,-6.08,-6.08,-6.08,-6.08,-6.08,-6.08,-6.08,-6.08,-6.0847,-6.0979,-6.0997,-6.1097,-6.1297,-6.1303,-6.1297,-6.1259,-6.1128,-6.1014,-6.0981,-6.0858,-6.08,-6.08,-6.08,-6.08,-6.08,-6.08,-6.08,-2.7295,-2.7928,-2.8386,-2.7293,-2.8298,0.0,-2.7098,-2.7625,-2.8876,-3.0153,-3.0668,-3.1768,-3.4645,-3.6116,-3.713,-3.7856,-4.0076,-4.2519,-4.4922,-4.5254,-4.5508,-4.6211,0.0,0.0,-4.6308,-4.6308,-4.6289,-4.6268,-4.6268,-4.6268,-4.6268,-4.6289,-4.6289,-4.6268,-4.6168,-4.6077,-4.605,-4.5931,-4.5872,-4.5841,-4.5796,-4.5768,-4.5819,-4.7377,-4.8155,-4.836,-5.0101,-5.0918,-5.1027,-5.1027,-5.0972,-5.0945,-5.1753,-5.2664,-5.3636,-5.4533,-5.5394,-5.6152,-5.6181,-5.6722,-5.7545,-5.8415,-5.9367,-6.0337,-6.1228,-6.1551,-6.1632,-6.1657,-6.1635,-6.1612,-6.1612,-6.1424,-6.124,-6.124,-6.101,-6.08,-6.08,-6.08,-6.08,-6.08,-6.08,-6.08,-6.08,-6.08,-6.08,-6.08,-6.08,-6.08,-6.08,-6.08,-6.08,-6.08,-6.08,-6.0847,-6.0979,-6.0997,-6.1097,-6.1297,-6.1303,-6.1227,-6.1073,-6.1179,-6.1116,-6.0845,-6.0816,-6.08,-6.08,-6.08,-6.08,-6.08,-6.08,-6.08,-2.8315,-2.8444,-2.8702,-2.8253,-2.8422,0.0,0.0,-2.7342,-2.7935,-2.9976,-2.9786,-3.0175,-3.3199,-3.4189,-3.4858,-3.5758,-3.7789,-3.9844,-4.1562,-4.3281,-4.4512,-4.4941,0.0,0.0,-4.5644,-4.6035,-4.6308,-4.6308,-4.6308,-4.6308,-4.6308,-4.6308,-4.6308,-4.6308,-4.6226,-4.6173,-4.6108,-4.6036,-4.5974,-4.5899,-4.5876,-4.5839,-4.5917,-4.754,-4.8348,-4.8505,-5.0246,-5.1045,-5.1089,-5.1089,-5.1347,-5.1775,-5.256,-5.3155,-5.377,-5.5139,-5.5915,-5.6371,-5.6868,-5.7604,-5.8443,-5.9282,-6.0182,-6.1022,-6.147,-6.1656,-6.1699,-6.1699,-6.1699,-6.1699,-6.1699,-6.1504,-6.1303,-6.1303,-6.1046,-6.08,-6.08,-6.08,-6.08,-6.08,-6.08,-6.08,-6.08,-6.08,-6.08,-6.08,-6.08,-6.08,-6.08,-6.08,-6.08,-6.08,-6.08,-6.0882,-6.1135,-6.1065,-6.1116,-6.1378,-6.1348,-6.1289,-6.125,-6.1188,-6.1044,-6.0793,-6.08,-6.08,-6.08,-6.08,-6.08,-6.08,-6.08,-6.08,-2.9819,-2.9807,-3.0124,-2.9831,-2.92,-2.8631,0.0,0.0,0.0,-3.0009,-2.9371,-2.9105,-3.1443,0.0,0.0,0.0,0.0,0.0,0.0,-3.9978,0.0,-4.2891,0.0,0.0,0.0,-4.4844,-4.541,-4.623,-4.5683,-4.5605,-4.6269,-4.6308,-4.6308,-4.6308,-4.6308,-4.6247,-4.6144,-4.6144,-4.6082,-4.5981,-4.594,-4.6029,-4.6244,-4.778,-4.8602,-4.8876,-5.0449,-5.112,-5.116,-5.116,-5.1697,-5.26,-5.3358,-5.3754,-5.4134,-5.5826,-5.6448,-5.6571,-5.7557,-5.8476,-5.9336,-6.0137,-6.0996,-6.1699,-6.1699,-6.1699,-6.1699,-6.1699,-6.1699,-6.1699,-6.1699,-6.1504,-6.1303,-6.1303,-6.1046,-6.08,-6.08,-6.08,-6.08,-6.08,-6.08,-6.08,-6.08,-6.08,-6.08,-6.08,-6.08,-6.08,-6.08,-6.08,-6.08,-6.08,-6.08,-6.0923,-6.1214,-6.1085,-6.1126,-6.1448,-6.1354,-6.1328,-6.1409,-6.1123,-6.0915,-6.0834,-6.0816,-6.08,-6.08,-6.08,-6.08,-6.08,-6.08,-6.08,-3.4101,-3.5618,0.0,0.0,-3.2822,-3.3324,0.0,0.0,-2.7595,-2.6366,0.0,-2.6157,-2.7237,0.0,0.0,0.0,0.0,0.0,-3.2831,-3.4369,-3.6739,-3.9941,0.0,0.0,0.0,-4.1445,-4.2207,-4.6016,-4.3496,-4.3105,-4.6133,-4.6308,-4.6308,-4.6308,-4.6308,-4.6289,-4.6289,-4.6288,-4.6268,-4.6248,-4.6122,-4.6489,-4.727,-4.8109,-4.8998,-4.9872,-5.0784,-5.126,-5.1365,-5.1365,-5.1873,-5.2752,-5.3481,-5.433,-5.5232,-5.621,-5.6581,-5.6699,-5.7597,-5.8476,-5.9336,-6.0137,-6.0996,-6.1699,-6.1699,-6.1699,-6.1699,-6.1699,-6.1699,-6.1699,-6.1699,-6.1504,-6.1303,-6.1303,-6.1046,-6.08,-6.08,-6.08,-6.08,-6.08,-6.08,-6.08,-6.08,-6.08,-6.08,-6.08,-6.08,-6.08,-6.08,-6.08,-6.08,-6.08,-6.08,-6.0858,-6.1014,-6.1014,-6.1085,-6.1301,-6.1314,-6.1227,-6.1062,-6.0914,-6.0871,-6.0972,-6.0858,-6.08,-6.08,-6.08,-6.08,-6.08,-6.08,-6.08,0.0,0.0,0.0,0.0,0.0,0.0,-2.8125,0.0,-2.6645,0.0,0.0,0.0,0.0,0.0,0.0,0.0,-2.9749,0.0,0.0,0.0,-3.3604,0.0,0.0,0.0,0.0,0.0,0.0,0.0,-4.2493,-4.2439,-4.5391,-4.6035,-4.6308,-4.6308,-4.6308,-4.6308,-4.6308,-4.6308,-4.6308,-4.6308,-4.6754,-4.7161,-4.755,-4.8883,-4.9726,-5.0169,-5.0969,-5.1344,-5.1445,-5.1953,-5.2676,-5.3535,-5.4351,-5.4939,-5.541,-5.6289,-5.6914,-5.748,-5.8359,-5.9199,-6.0039,-6.0879,-6.1406,-6.1699,-6.1699,-6.1699,-6.1699,-6.1699,-6.1699,-6.1699,-6.1699,-6.1504,-6.1326,-6.1407,-6.11,-6.0819,-6.0904,-6.0847,-6.08,-6.08,-6.08,-6.08,-6.08,-6.08,-6.08,-6.08,-6.08,-6.08,-6.08,-6.08,-6.08,-6.08,-6.08,-6.0847,-6.0979,-6.0925,-6.0945,-6.112,-6.1135,-6.1059,-6.0883,-6.0895,-6.0924,-6.0873,-6.0831,-6.08,-6.08,-6.08,-6.08,-6.08,-6.08,-6.08,-3.7398,0.0,0.0,0.0,0.0,0.0,0.0,0.0,0.0,0.0,0.0,0.0,0.0,0.0,-2.816,-2.8332,0.0,-2.9466,0.0,-2.9187,0.0,0.0,0.0,0.0,0.0,0.0,0.0,0.0,0.0,-4.0957,-4.4762,-4.5564,-4.6034,-4.6289,-4.6308,-4.6308,-4.6308,-4.6308,-4.6426,-4.666,-4.7305,-4.7851,-4.8359,-4.9629,-5.0312,-5.0566,-5.1152,-5.1543,-5.1816,-5.2441,-5.3359,-5.4414,-5.5058,-5.5449,-5.5723,-5.6367,-5.7148,-5.8027,-5.8906,-5.9883,-6.0859,-6.1484,-6.1699,-6.1699,-6.1699,-6.1699,-6.1699,-6.1699,-6.1699,-6.1699,-6.1699,-6.1537,-6.1369,-6.1488,-6.1208,-6.0954,-6.1056,-6.1019,-6.0923,-6.0869,-6.0847,-6.0845,-6.0823,-6.08,-6.08,-6.08,-6.08,-6.08,-6.08,-6.08,-6.08,-6.08,-6.1012,-6.12,-6.1293,-6.1406,-6.1527,-6.1621,-6.1631,-6.1579,-6.1485,-6.1588,-6.1579,-6.1493,-6.1262,-6.1146,-6.1146,-6.0916,-6.08,-6.08,-6.08,-6.08,0.0,0.0,0.0,-3.4999,0.0,0.0,0.0,0.0,-2.9965,0.0,0.0,0.0,0.0,-3.1657,-3.1114,-2.9528,-2.9939,0.0,0.0,0.0,0.0,0.0,0.0,0.0,0.0,0.0,0.0,0.0,0.0,0.0,-4.4534,-4.4926,-4.5355,-4.6269,-4.6308,-4.6308,-4.6308,-4.6308,-4.6719,-4.7558,-4.7598,-4.8476,-5.0117,-5.0176,-5.0625,-5.1367,-5.1387,-5.1875,-5.2656,-5.2695,-5.3711,-5.5254,-5.5293,-5.582,-5.6562,-5.6582,-5.7148,-5.8027,-5.8906,-6.0273,-6.166,-6.1699,-6.1699,-6.1699,-6.1699,-6.1699,-6.1699,-6.1699,-6.1699,-6.1699,-6.1699,-6.1605,-6.1481,-6.1504,-6.1383,-6.1291,-6.1297,-6.1297,-6.122,-6.1031,-6.0988,-6.0954,-6.0819,-6.08,-6.08,-6.08,-6.08,-6.08,-6.08,-6.08,-6.08,-6.08,-6.155,-6.2062,-6.2055,-6.2762,-6.3224,-6.3236,-6.3236,-6.3224,-6.3224,-6.3224,-6.3224,-6.3224,-6.2454,-6.2062,-6.2062,-6.1204,-6.08,-6.08,-6.08,-6.08,0.0,0.0,-4.3084,-3.7894,0.0,0.0,0.0,0.0,0.0,0.0,0.0,0.0,0.0,-3.2528,-3.1987,-3.0293,-3.0267,-2.9547,0.0,0.0,0.0,0.0,0.0,-3.2648,0.0,0.0,0.0,0.0,-3.6373,0.0,0.0,-4.4531,-4.5283,-4.6134,-4.6248,-4.6308,-4.6308,-4.6875,-4.7305,-4.7617,-4.8769,-4.9629,-5.0215,-5.0742,-5.1133,-5.1406,-5.1406,-5.1894,-5.2734,-5.332,-5.4258,-5.5351,-5.5937,-5.6699,-5.7461,-5.7461,-5.8008,-5.8965,-6.0371,-6.123,-6.1699,-6.1699,-6.1699,-6.1699,-6.1699,-6.1699,-6.1699,-6.1699,-6.1699,-6.1699,-6.1699,-6.1606,-6.1515,-6.1609,-6.1458,-6.1312,-6.14,-6.1354,-6.1409,-6.1787,-6.1859,-6.1998,-6.2386,-6.2454,-6.2262,-6.1755,-6.2108,-6.2454,-6.2454,-6.2454,-6.2454,-6.2454,-6.2724,-6.2897,-6.2897,-6.3147,-6.3288,-6.3288,-6.3288,-6.3288,-6.3288,-6.3288,-6.3288,-6.3288,-6.3031,-6.2897,-6.2897,-6.2608,-6.2454,-6.2454,-6.2454,-6.1858,-4.3673,-4.4067,0.0,-3.9685,-3.7836,0.0,-3.2662,0.0,0.0,0.0,0.0,0.0,0.0,0.0,-3.3795,-3.2442,-3.1192,-2.9404,0.0,-2.6404,0.0,0.0,0.0,-3.0794,-3.0865,-3.0269,-3.1829,-3.6488,-3.5201,0.0,0.0,0.0,-4.4902,-4.6069,-4.6225,-4.6445,-4.6758,-4.7324,-4.791,-4.8535,-4.9668,-5.0351,-5.0644,-5.1152,-5.1406,-5.1426,-5.1738,-5.2363,-5.3223,-5.4101,-5.498,-5.582,-5.6387,-5.7129,-5.789,-5.789,-5.8633,-5.9824,-6.1211,-6.1699,-6.1699,-6.1699,-6.1699,-6.1699,-6.1699,-6.1699,-6.1699,-6.1699,-6.1699,-6.1699,-6.1699,-6.1634,-6.1584,-6.1679,-6.1575,-6.1462,-6.1549,-6.176,-6.2002,-6.2303,-6.2618,-6.2932,-6.3257,-6.357,-6.3474,-6.2647,-6.2974,-6.3288,-6.3288,-6.3288,-6.3288,-6.3288,-6.3589,-6.3897,-6.4205,-6.4224,-6.4224,-6.4224,-6.4224,-6.4224,-6.4224,-6.4224,-6.4224,-6.4224,-6.3916,-6.3762,-6.3762,-6.3455,-6.3288,-6.3288,-6.3288,-6.2724]},{"header":{"parameterUnit":"m.s-1","parameterCategory":1,"la1":30.6,"la2":29.2853,"lo1":-89.7004,"lo2":-87.6739,"dy":0.0162,"dx":0.0183,"nx":112,"ny":82,"refTime":"2025-03-09T06:00:00:Z","depth":0,"parameterNumber":3,"parameterNumberName":"V-component_of_WINDS"},"data":[0.0,0.0,0.0,0.0,0.0,0.0,0.0,0.0,0.0,0.0,0.0,0.0,0.0,0.0,0.0,0.0,0.0,0.0,0.0,0.0,0.0,0.0,0.0,0.0,0.0,0.0,0.0,0.0,0.0,0.0,0.0,0.0,0.0,0.0,0.0,0.0,0.0,0.0,0.0,0.0,0.0,0.0,0.0,0.0,0.0,0.0,0.0,0.0,0.0,0.0,0.0,0.0,0.0,0.0,0.0,0.0,0.0,0.0,0.0,0.0,0.0,0.0,0.0,0.0,0.0,0.0,0.0,0.0,0.0,0.0,0.0,0.0,0.0,0.0,0.0,0.0,0.0,0.0,0.0,0.0,0.0,0.0,0.0,0.0,0.0,0.0,0.0,0.0,0.0,0.0,2.1237,2.2244,2.3907,2.5004,2.5148,2.5429,2.4466,2.1773,0.0,0.0,0.0,0.0,0.0,0.0,0.0,0.0,0.0,0.0,0.0,0.0,0.0,0.0,0.0,0.0,0.0,0.0,0.0,0.0,0.0,0.0,0.0,0.0,0.0,0.0,0.0,0.0,0.0,0.0,0.0,0.0,0.0,0.0,0.0,0.0,0.0,0.0,0.0,0.0,0.0,0.0,0.0,0.0,0.0,0.0,0.0,0.0,0.0,0.0,0.0,0.0,0.0,0.0,0.0,0.0,0.0,0.0,0.0,0.0,0.0,0.0,0.0,0.0,0.0,0.0,0.0,0.0,0.0,0.0,0.0,0.0,0.0,0.0,0.0,0.0,0.0,0.0,0.0,0.0,0.0,0.0,0.0,0.0,0.0,0.0,0.0,0.0,0.0,0.0,0.0,0.0,0.0,0.0,0.0,0.0,0.0,0.0,0.0,0.0,0.0,0.0,0.0,0.0,2.094,2.4034,2.4839,2.5237,2.5425,2.5546,2.4478,2.1845,0.0,0.0,0.0,0.0,0.0,0.0,0.0,0.0,0.0,0.0,0.0,0.0,0.0,0.0,0.0,0.0,0.0,0.0,0.0,0.0,0.0,0.0,0.0,0.0,0.0,0.0,0.0,0.0,0.0,0.0,0.0,0.0,0.0,0.0,0.0,0.0,0.0,0.0,0.0,0.0,0.0,0.0,0.0,0.0,0.0,0.0,0.0,0.0,0.0,0.0,0.0,0.0,0.0,0.0,0.0,0.0,0.0,0.0,0.0,0.0,0.0,0.0,0.0,0.0,0.0,0.0,0.0,0.0,0.0,0.0,0.0,0.0,0.0,0.0,0.0,0.0,0.0,0.0,0.0,0.0,0.0,0.0,0.0,0.0,0.0,0.0,0.0,0.0,0.0,0.0,0.0,0.0,0.0,0.0,0.0,0.0,0.0,0.0,0.0,0.0,0.0,0.0,0.0,2.009,2.1875,2.4518,2.5047,2.5273,2.5486,2.5566,2.4479,2.1877,2.0443,0.0,0.0,0.0,0.0,0.0,0.0,0.0,0.0,0.0,0.0,0.0,0.0,0.0,0.0,0.0,0.0,0.0,0.0,0.0,0.0,0.0,0.0,0.0,0.0,0.0,0.0,0.0,0.0,0.0,0.0,0.0,0.0,0.0,0.0,0.0,0.0,0.0,0.0,0.0,0.0,0.0,0.0,0.0,0.0,0.0,0.0,0.0,0.0,0.0,0.0,0.0,0.0,0.0,0.0,0.0,0.0,0.0,0.0,0.0,0.0,0.0,0.0,0.0,0.0,0.0,0.0,0.0,0.0,0.0,0.0,0.0,0.0,0.0,0.0,0.0,0.0,0.0,0.0,0.0,0.0,0.0,0.0,0.0,0.0,0.0,0.0,0.0,0.0,0.0,0.0,0.0,0.0,0.0,0.0,0.0,0.0,0.0,0.0,0.0,0.0,0.0,0.0,2.2118,2.3189,2.47,2.511,2.534,2.5507,2.5214,2.3976,2.1568,1.9402,0.0,0.0,0.0,0.0,0.0,0.0,0.0,0.0,0.0,0.0,0.0,0.0,0.0,0.0,0.0,0.0,0.0,0.0,0.0,0.0,0.0,0.0,0.0,0.0,0.0,0.0,0.0,0.0,0.0,0.0,0.0,0.0,0.0,0.0,0.0,0.0,0.0,0.0,0.0,0.0,0.0,0.0,0.0,0.0,0.0,0.0,0.0,0.0,0.0,0.0,0.0,0.0,0.0,0.0,0.0,0.0,0.0,0.0,0.0,0.0,0.0,0.0,0.0,0.0,0.0,0.0,0.0,0.0,0.0,0.0,0.0,0.0,0.0,0.0,0.0,0.0,0.0,0.0,0.0,0.0,0.0,0.0,0.0,0.0,0.0,0.0,0.0,0.0,0.0,0.0,0.0,0.0,0.0,0.0,0.0,0.0,0.0,0.0,0.0,0.0,0.0,0.0,2.2487,2.4593,2.5032,2.5327,2.5509,2.5595,2.418,2.2501,2.0702,1.7433,0.0,0.0,0.0,0.0,0.0,0.0,0.0,0.0,0.0,0.0,0.0,0.0,0.0,0.0,0.0,0.0,0.0,0.0,0.0,0.0,0.0,0.0,0.0,0.0,0.0,0.0,0.0,0.0,0.0,0.0,0.0,0.0,0.0,0.0,0.0,0.0,0.0,0.0,0.0,0.0,0.0,0.0,0.0,0.0,0.0,0.0,0.0,0.0,0.0,0.0,0.0,0.0,0.0,0.0,0.0,0.0,0.0,0.0,0.0,0.0,0.0,0.0,0.0,0.0,0.0,0.0,0.0,0.0,0.0,0.0,0.0,0.0,0.0,0.0,0.0,0.0,0.0,0.0,0.0,0.0,0.0,0.0,0.0,0.0,0.0,0.0,0.0,0.0,0.0,0.0,0.0,0.0,0.0,0.0,0.0,0.0,0.0,0.0,0.0,0.0,0.0,0.0,2.188,2.385,2.4981,2.5387,2.5567,2.5601,2.4974,2.3426,2.0662,0.0,0.0,0.0,0.0,0.0,0.0,0.0,0.0,0.0,0.0,0.0,0.0,0.0,0.0,0.0,0.0,0.0,0.0,0.0,0.0,0.0,0.0,0.0,0.0,0.0,0.0,0.0,0.0,0.0,0.0,0.0,0.0,0.0,0.0,0.0,0.0,0.0,0.0,0.0,0.0,0.0,0.0,0.0,0.0,0.0,0.0,0.0,0.0,0.0,0.0,0.0,0.0,0.0,0.0,0.0,0.0,0.0,0.0,0.0,0.0,0.0,0.0,0.0,0.0,0.0,0.0,0.0,0.0,0.0,0.0,0.0,0.0,0.0,0.0,0.0,0.0,0.0,0.0,0.0,0.0,0.0,0.0,0.0,0.0,0.0,0.0,0.0,0.0,0.0,0.0,0.0,0.0,0.0,0.0,0.0,0.0,0.0,0.0,0.0,0.0,0.0,0.0,2.005,2.2238,2.4024,2.5131,2.5468,2.5608,2.5602,2.5053,2.3493,2.0653,0.0,0.0,0.0,0.0,0.0,0.0,0.0,0.0,0.0,0.0,0.0,0.0,0.0,0.0,0.0,0.0,0.0,0.0,0.0,0.0,0.0,0.0,0.0,0.0,0.0,0.0,0.0,0.0,0.0,0.0,0.0,0.0,0.0,0.0,0.0,0.0,0.0,0.0,0.0,0.0,0.0,0.0,0.0,0.0,0.0,0.0,0.0,0.0,0.0,0.0,0.0,0.0,0.0,0.0,0.0,0.0,0.0,0.0,0.0,0.0,0.0,0.0,0.0,0.0,0.0,0.0,0.0,0.0,0.0,0.0,0.0,0.0,0.0,0.0,0.0,0.0,0.0,0.0,0.0,0.0,0.0,0.0,0.0,0.0,0.0,0.0,0.0,0.0,0.0,0.0,0.0,0.0,0.0,0.0,0.0,0.0,0.0,0.0,0.0,0.0,0.0,0.0,2.1274,2.384,2.5516,2.5599,2.5603,2.5601,2.5606,2.4013,2.2272,0.0,0.0,0.0,0.0,0.0,0.0,0.0,0.0,0.0,0.0,0.0,0.0,0.0,0.0,0.0,0.0,0.0,0.0,0.0,0.0,0.0,0.0,0.0,0.0,0.0,0.0,0.0,0.0,0.0,0.0,0.0,0.0,0.0,0.0,0.0,0.0,0.0,0.0,0.0,0.0,0.0,0.0,0.0,0.0,0.0,0.0,0.0,0.0,0.0,0.0,0.0,0.0,0.0,0.0,0.0,0.0,0.0,0.0,0.0,0.0,0.0,0.0,0.0,0.0,0.0,0.0,0.0,0.0,0.0,0.0,0.0,0.0,0.0,0.0,0.0,0.0,0.0,0.0,0.0,0.0,0.0,0.0,0.0,0.0,0.0,0.0,0.0,0.0,0.0,0.0,0.0,0.0,0.0,0.0,0.0,0.0,0.0,0.0,0.0,0.0,0.0,0.0,0.0,2.1277,2.3824,2.5448,2.5465,2.5491,2.5528,2.5539,2.4493,2.2854,2.0552,0.0,0.0,0.0,0.0,0.0,0.0,0.0,0.0,0.0,0.0,0.0,0.0,0.0,0.0,0.0,0.0,0.0,0.0,0.0,0.0,0.0,0.0,0.0,0.0,0.0,0.0,0.0,0.0,0.0,0.0,0.0,0.0,0.0,0.0,0.0,0.0,0.0,0.0,0.0,0.0,0.0,0.0,0.0,0.0,0.0,0.0,0.0,0.0,0.0,0.0,0.0,0.0,0.0,0.0,0.0,0.0,0.0,0.0,0.0,0.0,0.0,0.0,0.0,0.0,0.0,0.0,0.0,0.0,0.0,0.0,0.0,0.0,0.0,0.0,0.0,0.0,0.0,0.0,0.0,0.0,0.0,0.0,0.0,0.0,0.0,0.0,0.0,0.0,0.0,0.0,0.0,0.0,0.0,0.0,0.0,0.0,0.0,0.0,0.0,0.0,0.0,0.0,2.1774,2.4079,2.5442,2.5442,2.5474,2.5498,2.5468,2.4975,2.3565,2.0923,0.0,0.0,0.0,0.0,0.0,0.0,0.0,0.0,0.0,0.0,0.0,0.0,0.0,0.0,0.0,0.0,0.0,0.0,0.0,0.0,0.0,0.0,0.0,0.0,0.0,0.0,0.0,0.0,0.0,0.0,0.0,0.0,0.0,0.0,0.0,0.0,0.0,0.0,0.0,0.0,0.0,0.0,0.0,0.0,0.0,0.0,0.0,0.0,0.0,0.0,0.0,0.0,0.0,0.0,0.0,0.0,0.0,0.0,0.0,0.0,0.0,0.0,0.0,0.0,0.0,0.0,0.0,0.0,0.0,0.0,0.0,0.0,0.0,0.0,0.0,0.0,0.0,0.0,0.0,0.0,0.0,0.0,0.0,0.0,0.0,0.0,0.0,0.0,0.0,0.0,0.0,0.0,0.0,0.0,0.0,0.0,0.0,0.0,0.0,0.0,0.0,0.0,2.2528,2.4416,2.5443,2.5443,2.5468,2.5462,2.5395,2.5318,2.412,2.1472,0.0,0.0,0.0,0.0,0.0,0.0,0.0,0.0,0.0,0.0,0.0,0.0,0.0,0.0,0.0,0.0,0.0,0.0,0.0,0.0,0.0,0.0,0.0,0.0,0.0,0.0,0.0,0.0,0.0,0.0,0.0,0.0,0.0,0.0,0.0,0.0,0.0,0.0,0.0,0.0,0.0,0.0,0.0,0.0,0.0,0.0,0.0,0.0,0.0,0.0,0.0,0.0,0.0,0.0,0.0,0.0,0.0,0.0,0.0,0.0,2.3694,0.0,0.0,0.0,0.0,0.0,0.0,0.0,0.0,0.0,0.0,0.0,0.0,0.0,0.0,0.0,0.0,0.0,0.0,0.0,0.0,0.0,0.0,0.0,0.0,0.0,0.0,0.0,0.0,0.0,0.0,0.0,0.0,0.0,0.0,0.0,0.0,0.0,0.0,0.0,0.0,0.0,2.2318,2.4101,2.5112,2.5112,2.526,2.5339,2.5331,2.4605,2.3334,2.1424,1.8829,0.0,0.0,0.0,0.0,0.0,0.0,0.0,0.0,0.0,0.0,0.0,0.0,0.0,0.0,0.0,0.0,0.0,0.0,0.0,0.0,0.0,0.0,0.0,0.0,0.0,0.0,0.0,0.0,0.0,0.0,0.0,0.0,0.0,0.0,0.0,0.0,0.0,0.0,0.0,0.0,0.0,0.0,0.0,0.0,0.0,0.0,0.0,0.0,0.0,0.0,0.0,0.0,0.0,0.0,0.0,0.0,0.0,0.0,0.0,0.0,2.5499,0.0,0.0,0.0,0.0,0.0,0.0,0.0,0.0,0.0,0.0,0.0,0.0,0.0,0.0,0.0,0.0,0.0,0.0,0.0,0.0,0.0,0.0,0.0,0.0,0.0,0.0,0.0,0.0,0.0,0.0,0.0,0.0,0.0,0.0,0.0,0.0,0.0,0.0,0.0,0.0,2.2119,2.3897,2.4904,2.4904,2.5,2.5068,2.5068,2.4588,2.3701,2.235,1.9826,0.0,0.0,0.0,0.0,0.0,0.0,0.0,0.0,0.0,0.0,0.0,0.0,0.0,0.0,0.0,0.0,0.0,0.0,0.0,0.0,0.0,0.0,0.0,0.0,0.0,0.0,0.0,0.0,0.0,0.0,0.0,0.0,0.0,0.0,0.0,0.0,0.0,0.0,0.0,0.0,0.0,0.0,0.0,0.0,0.0,0.0,0.0,0.0,0.0,0.0,0.0,0.0,0.0,2.9878,3.1009,3.2365,3.2295,3.2601,3.3016,3.047,2.9396,2.9338,2.7662,0.0,0.0,0.0,0.0,0.0,0.0,0.0,0.0,0.0,0.0,0.0,0.0,0.0,0.0,0.0,0.0,0.0,0.0,0.0,0.0,0.0,0.0,0.0,0.0,2.6771,2.6222,0.0,0.0,0.0,0.0,0.0,0.0,0.0,0.0,0.0,0.0,0.0,0.0,2.2065,2.3708,2.4663,2.4663,2.4693,2.4749,2.4797,2.4768,2.4321,2.3364,2.1216,1.9578,0.0,0.0,0.0,0.0,0.0,0.0,0.0,0.0,0.0,0.0,0.0,0.0,0.0,0.0,0.0,0.0,0.0,0.0,0.0,0.0,0.0,0.0,0.0,0.0,0.0,0.0,0.0,0.0,0.0,0.0,0.0,0.0,2.1504,2.2615,0.0,0.0,0.0,0.0,0.0,0.0,0.0,0.0,0.0,0.0,0.0,0.0,0.0,2.8723,3.0881,3.181,3.2648,3.3378,3.4257,3.4783,3.4993,3.4706,3.5011,3.5775,3.5363,0.0,3.0796,2.9117,0.0,0.0,0.0,0.0,0.0,0.0,0.0,0.0,0.0,0.0,0.0,0.0,0.0,0.0,0.0,0.0,0.0,0.0,0.0,0.0,0.0,0.0,2.9691,2.9531,2.9574,2.9225,0.0,2.4625,2.1611,1.9777,1.8637,0.0,0.0,0.0,0.0,0.0,0.0,0.0,2.2462,2.3492,2.4118,2.4118,2.4268,2.4484,2.479,2.4639,2.4182,2.3356,2.2175,2.1111,2.0233,1.7656,0.0,0.0,0.0,0.0,0.0,0.0,0.0,0.0,0.0,0.0,0.0,0.0,0.0,0.0,0.0,0.0,0.0,0.0,0.0,0.0,0.0,0.0,0.0,0.0,0.0,0.0,0.0,0.0,0.0,2.2017,2.3941,2.3832,2.4255,2.4238,0.0,0.0,0.0,0.0,0.0,0.0,0.0,0.0,0.0,3.0449,3.1338,3.2294,3.3343,3.4615,3.5358,3.5622,3.6488,3.7056,3.7362,3.7669,3.8074,3.8559,3.8559,3.7517,3.5645,3.2916,3.1056,2.9754,0.0,0.0,0.0,0.0,2.8429,2.9444,2.9346,2.9579,0.0,2.7996,0.0,0.0,0.0,0.0,0.0,0.0,0.0,0.0,0.0,0.0,0.0,3.119,3.1245,3.1078,3.0592,2.8676,2.6142,0.0,2.1644,2.0311,1.8317,0.0,0.0,0.0,0.0,2.1745,2.2498,2.3315,2.3757,2.357,2.364,2.3735,2.3891,2.381,2.3701,2.3546,2.2692,2.2109,2.1915,1.9729,1.7982,0.0,0.0,0.0,0.0,0.0,0.0,0.0,0.0,0.0,0.0,0.0,0.0,0.0,0.0,0.0,0.0,0.0,0.0,0.0,0.0,0.0,0.0,0.0,0.0,0.0,0.0,0.0,0.0,2.4134,2.6035,2.5168,2.6034,2.6172,0.0,0.0,0.0,0.0,0.0,0.0,2.9512,3.1055,3.2363,3.3476,3.4635,3.5529,3.6101,3.7284,3.8034,3.8354,3.8988,3.9517,3.9918,4.0336,4.062,4.0768,4.0659,4.0413,3.9782,3.6357,3.4286,3.3138,3.1866,3.1365,3.1365,3.1365,3.2038,3.3006,3.3267,3.3471,3.341,3.1947,0.0,2.9448,2.6905,0.0,0.0,0.0,0.0,2.8898,3.1154,3.1548,3.157,3.2373,3.251,3.2443,3.2256,3.164,3.0052,0.0,2.494,2.3593,2.1581,0.0,0.0,0.0,0.0,2.3196,2.349,2.3873,2.3952,2.3549,2.3324,2.32,2.32,2.32,2.3311,2.3555,2.3016,2.2795,2.3034,2.1393,1.9868,1.852,0.0,0.0,0.0,0.0,0.0,0.0,0.0,0.0,0.0,0.0,0.0,0.0,0.0,0.0,0.0,0.0,0.0,0.0,0.0,0.0,0.0,0.0,0.0,0.0,0.0,0.0,0.0,0.0,0.0,2.6973,2.8379,0.0,0.0,0.0,0.0,2.8164,3.0449,3.2246,3.3105,3.4004,3.5293,3.6992,3.6993,3.8107,4.045,4.0497,4.1273,4.2777,4.2816,4.2865,4.2859,4.2267,4.1995,4.1983,4.1679,4.152,4.1255,3.8216,3.6312,3.5255,3.4353,3.4013,3.4013,3.4013,3.5045,3.6346,3.5608,3.5851,3.6445,3.6088,3.4867,3.3393,3.2672,3.116,0.0,0.0,3.0947,3.1017,3.231,3.2624,3.2774,3.3368,3.3524,3.3345,3.2708,3.2548,3.1832,0.0,2.8286,2.7155,2.5898,0.0,2.5744,2.5926,2.6035,2.6147,2.6287,2.5672,2.4988,2.4402,2.3661,2.32,2.32,2.32,2.32,2.3224,2.3177,2.3171,2.3182,2.2112,2.1249,2.0664,1.8366,0.0,0.0,0.0,0.0,0.0,0.0,0.0,0.0,0.0,0.0,0.0,0.0,0.0,0.0,0.0,0.0,0.0,0.0,0.0,0.0,0.0,0.0,0.0,0.0,0.0,0.0,0.0,0.0,3.0312,3.1855,0.0,3.0801,3.1504,3.2148,3.2402,3.3809,3.5019,3.5859,3.7725,3.9041,3.9666,4.0644,4.1544,4.2336,4.2317,4.2574,4.3104,4.3104,4.2998,4.2786,4.2848,4.2754,4.2539,4.2205,4.2177,4.2265,4.0879,3.9886,3.9169,3.8512,3.8245,3.8245,3.8245,3.863,3.9089,3.861,3.8282,3.7827,3.6434,3.519,3.4159,3.3634,3.3004,3.2566,3.3071,3.3035,3.3054,3.4,3.412,3.4031,3.4261,3.4181,3.3903,3.3358,3.3317,3.2923,3.1365,3.0143,2.8905,2.7521,2.7431,2.7223,2.6242,2.6686,2.703,2.6739,2.6327,2.5632,2.4474,2.3967,2.3415,2.2685,2.2624,2.2695,2.2873,2.2885,2.2972,2.3189,2.2623,2.1982,2.133,1.9832,1.7731,0.0,0.0,0.0,0.0,0.0,0.0,0.0,0.0,0.0,0.0,0.0,0.0,0.0,0.0,0.0,0.0,0.0,0.0,0.0,0.0,0.0,0.0,0.0,0.0,0.0,3.0349,3.2358,3.2943,3.4478,3.5018,3.3845,3.4276,3.4842,3.5429,3.6815,3.7869,3.8454,4.0606,4.1808,4.1808,4.2808,4.3424,4.3634,4.3594,4.3694,4.3932,4.3932,4.3824,4.3627,4.3701,4.3619,4.34,4.3039,4.3089,4.34,4.319,4.2902,4.2496,4.1694,4.1381,4.1381,4.1381,4.1286,4.1088,4.0528,3.9659,3.8575,3.7257,3.6126,3.5212,3.4918,3.4544,3.4289,3.4506,3.4371,3.4261,3.4657,3.4623,3.4493,3.4493,3.4164,3.3855,3.3837,3.3584,3.3169,3.2545,3.1651,3.0649,2.9482,2.9203,2.8799,2.7805,2.8032,2.8157,2.7736,2.7296,2.6594,2.544,2.462,2.3793,2.2952,2.253,2.2374,2.255,2.2422,2.2499,2.2883,2.2297,2.1926,2.1837,2.0427,1.8619,1.64,0.0,0.0,0.0,0.0,0.0,0.0,0.0,0.0,0.0,0.0,0.0,0.0,0.0,0.0,0.0,0.0,0.0,0.0,0.0,0.0,0.0,0.0,0.0,2.9648,3.26,3.4718,3.4774,3.6193,3.6503,3.4832,3.6208,3.7207,3.7207,3.9493,4.0878,4.0878,4.2492,4.3426,4.3426,4.3338,4.3679,4.4531,4.4415,4.4759,4.5594,4.5594,4.5586,4.5568,4.4908,4.4593,4.4553,4.4146,4.4223,4.4593,4.4931,4.5074,4.4944,4.3664,4.3165,4.3137,4.3137,4.289,4.2343,4.1224,3.9927,3.8811,3.8811,3.789,3.679,3.679,3.6009,3.5101,3.5135,3.4939,3.4656,3.4256,3.4174,3.4174,3.4155,3.3588,3.3261,3.409,3.335,3.2632,3.3075,3.2843,3.2408,3.189,3.1147,3.0684,3.0847,3.0206,0.0,2.9453,2.8677,2.7939,2.7368,2.5625,2.437,2.4033,2.3,2.2344,2.2296,2.1884,2.1809,2.2268,2.1171,2.1107,2.2279,2.0215,1.8637,1.7642,0.0,0.0,0.0,0.0,0.0,0.0,0.0,0.0,0.0,0.0,0.0,0.0,0.0,0.0,0.0,0.0,0.0,0.0,0.0,0.0,0.0,3.0656,3.2943,3.3197,3.5061,3.7086,3.8877,4.0038,4.0762,4.0909,4.136,4.1637,4.1637,4.2298,4.2691,4.2691,4.3649,4.4199,4.4199,4.4672,4.5062,4.5313,4.5255,4.5364,4.5594,4.5594,4.5457,4.5222,4.4781,4.4447,4.415,4.3788,4.3712,4.3839,4.4161,4.4299,4.4317,4.4494,4.4399,4.4189,4.4189,4.3548,4.2597,4.1688,4.0337,3.9023,3.9023,3.7773,3.6331,3.6471,3.5943,3.5428,3.5913,3.5983,3.5916,3.5792,3.5769,3.5687,3.5284,3.448,3.3757,3.368,3.3035,3.2451,3.223,3.2355,3.2299,3.1562,3.1418,3.112,3.0307,3.0121,0.0,2.9664,2.9288,2.8668,2.7695,2.6939,2.5831,2.4147,2.3707,2.3189,2.2358,2.218,2.2017,2.1794,2.1802,2.1961,2.2296,2.0611,1.9358,0.0,0.0,0.0,0.0,0.0,0.0,0.0,0.0,0.0,0.0,0.0,0.0,0.0,0.0,0.0,0.0,0.0,0.0,0.0,0.0,0.0,0.0,3.3546,3.6009,3.7007,3.7992,3.928,4.1087,4.202,4.2722,4.3226,4.3264,4.3264,4.3264,4.3594,4.3788,4.3788,4.4522,4.4954,4.4954,4.5384,4.5594,4.5594,4.5448,4.54,4.54,4.5253,4.5085,4.4884,4.4508,4.4219,0.0,4.3788,4.371,4.3742,4.4106,4.4146,0.0,0.0,0.0,0.0,0.0,4.368,4.2712,4.2109,4.0545,3.8796,3.8796,3.7279,3.555,3.5938,3.5593,3.5188,3.5868,3.6054,3.6054,3.6054,3.6054,3.5985,3.5672,3.4925,3.4161,3.3772,3.3022,3.2279,3.1877,3.1879,0.0,3.1324,3.1411,3.1294,3.0594,3.0049,2.9631,2.9428,2.9049,2.853,2.7846,2.7372,2.6568,2.5274,2.4568,0.0,0.0,0.0,2.1891,2.1167,2.1895,0.0,0.0,0.0,0.0,0.0,0.0,0.0,0.0,1.799,1.7912,0.0,0.0,0.0,0.0,0.0,0.0,0.0,0.0,0.0,0.0,0.0,0.0,0.0,0.0,0.0,0.0,3.628,3.8277,4.0511,4.0997,4.1384,4.2176,4.2849,4.3278,4.3374,4.3374,4.3374,4.3374,4.4047,4.4423,4.4397,0.0,0.0,0.0,0.0,4.5495,4.5495,4.5201,4.5052,4.5041,4.4732,4.4567,4.4514,4.4161,4.3986,4.394,4.394,4.394,4.3971,4.4337,4.4266,4.3971,4.4337,4.4474,4.4433,4.4117,4.355,4.2888,4.2592,0.0,0.0,3.8559,3.6801,3.4835,3.5418,3.5121,3.4759,3.5476,3.5694,3.5694,3.5694,3.5694,3.5672,3.5622,3.4964,3.429,3.4003,3.2948,3.1979,3.1595,3.1242,3.0995,3.0995,3.1163,3.1243,3.1137,3.0006,2.912,2.8926,2.8385,2.7986,2.7897,0.0,0.0,2.6737,2.5467,2.4617,2.4491,2.3191,2.2004,2.1062,2.2,2.2226,2.158,2.2209,2.2675,2.2892,2.2861,2.2965,2.3077,1.885,1.8294,0.0,0.0,0.0,0.0,0.0,0.0,0.0,0.0,0.0,0.0,0.0,0.0,0.0,0.0,0.0,3.517,3.7991,4.0368,4.1431,4.2749,4.3681,4.3835,4.3976,4.4335,4.5056,4.5114,4.5114,4.5114,4.5267,4.5236,4.4963,4.5105,4.5074,4.4793,4.4781,4.4781,4.4781,4.472,4.4714,4.4701,0.0,0.0,4.4102,4.4046,4.3849,4.3597,4.3597,4.3597,4.3614,4.3679,4.3662,4.3614,4.3679,4.3712,4.3744,4.3924,4.3904,4.3759,4.3701,4.2343,4.0524,3.9638,3.7597,3.5489,3.557,3.5121,0.0,3.5933,3.6245,3.6245,3.6245,3.6245,3.6139,3.5694,3.4615,3.3531,3.2934,3.1724,3.0603,2.9989,2.981,2.9739,2.9739,3.0569,3.095,3.0144,3.0161,2.9796,2.8444,2.8564,2.8555,2.795,2.777,2.7324,2.6391,2.6327,2.5941,2.5024,2.4632,2.4379,2.4218,2.4072,2.3958,2.3848,2.4,2.4105,2.4146,2.3833,2.3687,2.3703,2.236,2.2134,0.0,0.0,0.0,0.0,0.0,0.0,0.0,0.0,0.0,0.0,0.0,3.018,3.105,0.0,3.6742,3.7951,4.0287,4.2208,4.2956,4.3778,4.4297,4.4297,4.4682,4.5133,4.5556,4.5438,4.5342,4.5342,4.5182,4.5022,4.4861,4.4849,4.4769,4.4612,4.4593,4.4593,4.4593,4.4406,4.429,4.4308,4.414,4.3927,4.3758,4.3758,4.3662,4.3515,4.3515,4.3515,4.3515,4.3515,4.3339,4.3105,4.3105,4.3268,4.3513,4.3695,4.3758,4.3758,4.3758,4.252,4.0851,4.0308,3.8114,3.5687,3.5671,3.4913,3.4309,3.5255,3.5504,3.5587,3.5924,3.6006,3.5941,3.565,3.4808,3.3867,3.3143,3.192,3.0727,3.0039,2.9624,2.9406,2.9406,2.9892,3.0124,2.9638,2.9483,2.9143,2.8322,2.806,2.781,2.7451,2.7508,2.7375,2.6797,2.69,2.6507,2.5366,2.5464,2.5485,2.5371,2.5125,2.5014,2.5056,2.5056,2.5247,2.5649,2.5441,2.54,2.5504,2.5395,2.4783,0.0,0.0,0.0,0.0,0.0,0.0,0.0,2.6736,2.809,2.9014,3.1091,3.3184,3.4587,3.6968,3.9134,4.0365,4.2109,4.3497,4.4037,4.425,4.4355,4.4355,4.5035,4.5504,4.5504,4.5201,4.4988,4.4988,4.4745,4.4567,4.4487,4.4382,4.4294,4.4243,4.4134,4.4071,4.4071,4.3722,4.3631,4.3749,4.3475,4.3392,4.3515,4.3515,4.3515,4.3515,4.3515,4.3515,4.3479,4.3392,4.3087,4.2674,4.2386,4.2564,4.296,4.3195,4.3265,4.3265,4.3265,4.2208,4.0825,4.0598,3.8625,3.6257,3.5811,3.4904,3.4064,3.4317,3.4406,3.4544,3.5052,3.5316,3.5407,3.5407,3.4988,3.4371,3.3505,3.2385,3.122,3.0243,2.9604,2.92,2.9058,2.9042,2.9088,2.9203,2.8838,2.8429,2.817,2.757,2.7124,2.6977,2.7262,2.7476,2.7513,2.7338,2.6892,2.6121,2.6368,2.6435,2.615,2.615,2.6111,2.6046,2.6046,2.6357,2.7004,2.6935,2.7058,2.7357,2.7555,2.6524,2.629,2.4952,2.4298,2.5678,2.6755,2.8068,0.0,3.1545,3.2436,3.3339,3.4911,3.6201,3.6414,3.8527,4.0223,4.0109,4.2125,4.3664,4.3433,4.4089,4.4575,4.4575,4.4909,4.5169,4.5169,4.4861,4.4663,4.4663,4.4618,4.4447,4.4106,4.3624,4.3206,4.2922,4.239,4.2114,4.2114,4.207,4.2327,4.2847,4.2808,4.3032,4.3515,4.3515,4.3515,4.3515,4.3515,4.3515,4.3462,4.2976,4.2751,4.2578,4.1323,4.0859,4.106,4.2044,4.2427,4.2427,4.2427,4.1986,4.1248,4.0241,3.9317,3.8268,3.629,3.5589,3.5218,3.4039,3.371,3.3735,3.3811,3.426,3.4712,3.4712,3.4648,3.4258,3.2983,3.2117,3.1031,2.9167,2.8751,2.8509,2.7901,2.7795,2.7993,2.8511,2.8979,2.8846,2.7642,2.7879,2.7892,2.7242,2.7666,2.8077,2.8264,2.766,2.7513,2.8047,2.8124,2.8124,2.8098,2.8098,2.7955,2.7646,2.7646,2.7699,2.7787,2.7422,2.7594,2.826,2.793,2.7068,2.8875,2.7837,2.7184,2.7876,2.9429,3.1083,3.216,3.3449,3.4661,3.5488,3.7026,3.8354,3.8834,4.0413,4.1772,4.215,4.3369,4.4221,4.4083,4.4068,4.3924,4.3497,4.3357,4.3694,4.47,4.4468,4.4247,4.4247,4.3775,4.3418,4.3246,4.2701,4.2315,4.2183,4.1937,4.181,4.181,4.181,4.2101,4.2711,4.2711,4.2976,4.3515,4.3515,4.3515,4.3479,4.3178,4.3032,4.2958,4.1899,4.1288,4.0862,3.9253,3.844,3.8372,4.0051,4.0685,4.0685,4.0685,4.0608,4.0433,3.9949,3.9445,3.868,3.6879,3.5772,3.4888,3.3846,3.3285,3.3119,3.3495,3.3811,3.4012,3.4012,3.371,3.3286,3.273,3.172,3.0713,2.9858,2.9415,2.8966,2.8319,2.8173,2.8126,2.7995,2.8198,2.8003,2.7001,2.7031,2.6987,2.6542,2.7453,2.8119,2.8216,2.8442,2.8715,2.9026,2.8855,2.885,2.9084,2.866,2.8433,2.8551,2.8998,2.9129,2.8899,2.919,2.9342,2.9381,2.9057,2.8441,2.9707,2.9302,2.9261,2.9973,3.1891,3.368,3.391,3.5295,3.6719,3.7296,3.8604,3.9804,4.04,4.1598,4.269,4.3232,4.3812,4.4177,4.4094,4.3376,4.2675,4.2152,4.1637,4.1908,4.3382,4.3373,4.3393,4.3617,4.2904,4.246,4.246,4.1874,4.1556,4.1556,4.142,4.1331,4.1331,4.1331,4.1617,4.2203,4.2203,4.2483,4.3014,4.3014,4.3014,4.2996,4.239,4.2114,4.2014,4.0608,3.9664,3.8913,3.7297,3.6242,3.5829,3.7135,3.7872,3.8268,3.8537,3.8748,3.8934,3.941,3.9303,3.8714,3.7226,3.6085,3.4999,3.3615,3.29,3.2641,3.2938,3.3182,3.3313,3.3313,3.3093,3.2815,3.2641,3.179,3.0968,3.0565,3.0148,2.9624,2.8981,2.8876,2.8584,2.7702,2.7573,2.7317,2.6578,2.6242,2.6066,2.6079,2.7008,2.7722,2.8066,2.872,2.9213,2.9488,2.9262,2.9319,2.9719,2.9173,2.9022,2.9305,2.988,3.0021,2.9733,3.0048,3.0127,2.9983,2.9511,2.8985,2.8134,2.8525,2.9684,3.216,3.4115,3.5635,3.6404,3.793,3.9188,3.9227,3.9881,4.0477,4.0496,4.1598,4.2406,4.2102,4.2716,4.3137,4.2791,4.1624,4.0765,4.0745,4.0128,3.9971,4.0735,4.122,4.1829,4.2678,4.2183,4.1832,4.1832,4.1268,4.0926,4.0926,4.0417,4.0146,4.0146,4.0146,4.0417,4.0949,4.0949,4.1268,4.1853,4.1853,4.1853,4.1814,4.1019,4.066,4.0568,3.9218,3.8101,3.7132,3.5782,3.4691,3.3792,3.3087,3.3768,3.516,3.6153,3.6504,3.6775,3.8388,3.8918,3.8635,3.7233,3.677,3.6158,3.3331,3.2527,3.2362,3.1718,3.2092,3.2641,3.2641,3.3119,3.3391,3.2749,3.2586,3.2136,3.0766,3.0492,3.0283,2.9654,2.9577,2.9094,2.771,2.75,2.7256,2.6582,2.5877,2.5644,2.6225,2.6341,2.6824,2.7997,2.8127,2.8524,2.9437,2.9488,2.967,3.007,3.0068,3.0051,3.0066,3.0101,3.0101,3.007,2.9128,2.9038,2.9692,2.8762,2.8013,2.9178,3.0849,3.284,3.4276,3.6334,3.8101,3.8421,3.932,4.013,4.0211,3.9815,3.9608,4.0144,4.0247,4.0572,4.1579,4.2214,4.2627,4.2698,4.1498,4.0152,3.8858,3.8418,3.8134,3.7939,3.9764,4.1268,4.2029,4.1534,4.1183,4.1183,4.0672,4.0368,4.0368,4.0179,4.0096,4.0096,4.0096,4.0368,4.0903,4.1313,4.1599,4.1771,4.1262,4.0996,4.0929,3.9787,3.9269,3.914,3.715,3.6153,3.5658,3.3437,3.2346,3.1979,3.1068,3.059,3.0729,3.3078,3.4228,3.4874,3.606,3.6822,3.7175,3.68,3.635,3.5597,3.3713,3.2841,3.2229,3.1013,3.0896,3.1072,3.1072,3.1261,3.1476,3.1794,3.1881,3.1736,3.1254,3.1152,3.0943,3.0313,3.0193,2.9523,2.7597,2.6184,2.5295,2.5062,2.4823,2.4753,2.4953,2.5781,2.6657,2.7557,2.8014,2.8574,2.9383,2.8964,2.9043,2.9811,2.935,2.9418,3.009,3.0616,3.0552,2.9829,3.0031,2.9652,2.8748,2.8047,2.7329,3.0968,3.2812,3.4629,3.6411,3.8103,3.9438,3.9776,3.9992,4.0093,4.0089,3.8989,3.8212,3.8927,3.8368,3.8548,4.077,4.1127,4.1433,4.2263,4.0955,3.9382,3.7907,3.7178,3.6759,3.6594,3.8216,3.9784,4.0993,4.0786,4.0607,4.0607,4.0286,4.0096,4.0096,4.0096,4.0096,4.0096,4.0096,4.0262,4.0607,4.1007,4.1024,4.074,4.0216,3.9848,3.9556,3.8374,3.7705,3.7239,3.5497,3.4386,3.3582,3.1884,3.1007,3.0582,2.9574,2.8727,2.843,3.0703,3.1581,3.1949,3.3566,3.4673,3.547,3.595,3.6014,3.5674,3.4241,3.3544,3.2809,3.1061,3.0616,3.0497,2.9962,2.9858,3.0042,3.0896,3.1058,3.1161,3.1438,3.1511,3.1361,3.0913,3.0444,2.9522,2.7819,2.6064,2.4744,2.4265,2.3985,2.3767,2.3475,2.4743,2.5737,2.6131,2.7034,2.7871,2.8576,2.843,2.8568,2.9169,2.9012,2.9173,2.9842,3.0376,3.0154,2.921,2.95,2.8948,2.7578,2.6975,2.639,3.3256,3.434,3.5244,3.8496,3.938,3.9652,4.044,3.9975,3.9276,3.8898,3.745,3.6396,3.6806,3.6096,3.6472,3.9598,3.9516,3.9713,4.1537,4.0043,3.8522,3.7837,3.6502,3.5892,3.6517,3.6665,3.753,3.9496,0.0,4.0045,4.0096,4.0096,4.0096,4.0096,4.0045,4.0045,4.0045,3.9995,3.9978,3.9978,3.9978,3.9584,3.8854,3.8799,3.8414,3.769,3.6843,3.598,3.5061,3.4206,3.282,3.1217,3.1143,3.0545,2.9573,2.8518,2.8044,2.8072,2.8961,2.8638,2.8264,3.0983,3.2527,3.3518,3.4632,3.5651,3.6122,3.4748,3.4409,3.3938,3.1693,3.1142,3.0797,2.9341,2.898,2.9202,3.0056,3.0238,3.0464,3.1278,3.1467,3.1511,3.1511,3.0367,2.9186,2.836,2.7026,2.5633,2.423,2.3534,2.2867,2.2018,2.3305,2.4097,2.3822,2.5204,2.6315,2.6945,2.7665,2.8112,2.8121,2.8856,2.9255,2.93,2.93,2.894,2.8199,2.7614,2.6949,2.622,2.5659,2.5288,3.3916,3.6052,3.8207,3.9092,3.9764,4.007,3.9545,3.9223,3.8542,3.6811,3.5371,3.4069,3.3006,3.3863,3.5326,3.7043,3.8756,4.0341,4.1608,4.0486,3.8898,3.7237,3.6673,3.6048,3.5141,3.6034,3.6908,0.0,3.8547,3.9463,4.007,4.0096,4.0096,4.0096,3.9516,3.9209,3.9209,3.8652,3.8374,3.8374,3.8374,3.8262,3.8064,3.7454,3.7068,3.6813,3.531,3.4537,3.4172,3.2579,3.1646,3.1143,3.0419,2.9484,2.8518,2.8215,2.7064,2.5692,2.5909,2.6363,2.7099,2.8514,2.9669,3.0705,3.1766,3.2807,3.3451,3.2583,3.2892,3.29,3.05,3.0396,3.051,2.9,2.8632,2.8744,2.9212,2.9317,2.9566,3.0419,3.1087,3.1511,3.1511,3.0705,2.9768,2.8924,2.7615,2.6171,2.4778,2.4449,2.3901,2.2635,2.2861,2.2892,2.2311,2.2653,2.3178,2.3881,2.4708,2.538,2.583,2.6663,2.729,2.7738,2.7762,2.7459,2.6799,2.6674,2.618,2.5401,2.5253,2.5074,3.5993,3.7841,3.9381,3.9746,3.9823,3.9554,3.8451,3.7526,3.6255,3.4041,3.2395,3.1076,3.0079,3.1105,3.2775,3.4863,3.7252,3.9336,4.0735,4.0264,3.9156,3.7456,3.6883,3.6192,3.5033,3.5676,3.6288,3.6584,3.7745,3.8624,3.9065,3.9076,3.9076,3.9076,3.8652,3.8414,3.8414,3.8007,3.7793,3.7793,3.7393,3.699,3.6628,3.5762,3.517,3.4809,0.0,3.3136,3.2713,3.1646,3.097,3.0482,2.9445,2.8648,2.7964,2.7012,2.5859,2.4745,2.4211,2.4467,2.5168,2.6206,2.7571,2.8989,3.0024,3.1416,3.2524,3.2157,3.2458,3.2401,3.0383,3.0223,3.025,2.869,2.7972,2.7905,2.8966,2.8592,2.8527,3.0023,3.0644,3.097,3.097,3.0614,2.9858,2.862,2.7771,2.6674,2.508,2.4847,2.4185,2.2579,2.2754,2.2482,2.1338,2.1371,2.1669,2.2051,2.2694,2.3187,2.3534,2.4693,2.549,2.5836,2.6457,2.6443,2.5758,2.6021,2.5499,2.4318,2.4763,2.4798,3.8457,3.9381,3.9596,4.0194,3.9544,3.8421,3.7002,3.5182,3.3143,3.0877,2.9138,2.7962,2.7717,2.8464,3.0117,3.3256,3.5666,3.781,3.9688,3.9781,3.9218,3.7933,3.71,3.6306,3.5554,3.5504,3.5718,3.6229,3.6888,3.744,3.7777,3.7674,3.7512,3.7275,3.7275,3.7216,3.7097,3.7097,3.7097,3.7097,3.6261,3.5513,3.4833,3.4008,3.3267,3.2593,0.0,0.0,3.118,3.1068,3.052,2.9702,2.8557,2.8016,2.7643,2.5577,2.4702,2.4414,2.343,2.3091,2.3309,2.4414,2.6135,2.7901,2.8987,3.0703,3.2213,3.2213,3.2321,3.2091,3.0672,3.0408,3.0118,2.8556,2.7408,2.706,2.8685,2.7962,2.7575,2.9565,3.0147,3.033,3.033,3.0168,2.9509,2.7848,2.7464,2.6727,2.5028,2.4813,2.4071,2.2148,2.2594,2.232,2.0578,2.0735,2.0939,2.0939,2.1316,2.1549,2.1549,2.3138,2.3982,2.3982,2.5309,2.5703,2.507,2.5392,2.4829,2.3451,2.4308,2.4569,3.8938,3.9785,4.0159,3.9637,3.8531,3.6979,3.4615,3.2499,3.0371,2.7877,2.6686,2.5959,2.5605,2.7751,3.048,3.3192,3.5768,3.82,4.0383,3.9741,3.8739,3.7892,3.71,3.6306,3.5554,3.5504,3.5198,3.4518,3.4589,3.5569,3.769,3.7064,3.5983,3.4545,3.4479,3.4176,3.3516,3.3516,3.3516,3.3516,3.3344,3.317,3.3059,3.2884,3.2721,3.2558,3.1779,0.0,3.1143,3.0343,2.9934,2.9702,2.8557,2.7574,2.6637,2.5294,2.4211,2.3387,2.3178,2.3091,2.3309,2.4414,2.5703,2.693,2.802,2.9252,3.0292,3.0292,3.0833,3.1204,3.0164,3.0491,3.0682,2.9125,2.7945,2.715,2.7034,2.7299,2.7684,2.8084,2.9468,3.056,3.056,2.9508,2.8318,2.7351,2.6111,2.4908,2.3904,2.4483,2.4061,2.1743,2.1628,2.1119,1.967,1.9597,1.9629,1.9629,2.0358,2.0783,2.0783,2.2495,2.3429,2.3429,2.4493,2.4976,2.4861,2.4112,2.3838,2.4055,2.4238,2.4513,3.9293,3.9989,4.0138,3.9478,3.7434,3.4884,3.2182,2.9747,2.7257,2.4425,2.3967,2.3916,2.3332,2.5917,2.868,3.0318,3.2947,3.5595,3.7838,3.7594,3.7188,3.7166,3.6813,3.6119,3.4843,3.4725,3.4327,3.3345,3.3276,3.3819,3.5011,3.4687,3.4042,3.3212,3.3177,3.2996,3.2593,3.2593,3.2593,3.2593,3.2105,3.1852,3.1852,3.1378,3.1132,3.1132,3.0671,0.0,3.0457,3.0011,2.9456,2.8819,2.7695,2.6584,2.542,2.3644,2.3042,2.3003,2.2403,2.258,2.3309,2.4414,2.5588,2.6678,2.7763,2.8897,2.9792,2.9792,3.0101,3.0216,2.9172,2.924,2.9257,2.7944,2.6731,2.5613,2.4468,2.4992,2.5716,2.5838,2.7176,2.8265,2.8265,2.7654,2.6881,2.6025,2.5257,2.4472,2.3503,2.382,2.3497,2.1887,2.1702,2.1219,2.0084,1.9746,1.9609,1.9609,1.9796,1.9909,1.9909,2.1667,2.2627,2.2627,2.4344,2.5222,2.5222,2.4534,2.419,2.419,2.419,2.4503,3.9081,3.9711,3.9643,3.8915,3.6021,3.2616,2.987,2.6958,2.4115,2.1644,2.1622,2.1972,2.1739,2.4016,2.6385,2.7739,3.0071,3.2645,3.5267,3.5522,3.5706,3.6504,3.6477,3.5725,3.4148,3.3993,3.3518,3.2393,3.1897,3.1811,3.2285,3.2321,3.2213,3.201,3.201,3.201,3.201,3.201,3.201,3.201,3.1254,3.0895,3.0871,3.0139,2.9792,2.9792,2.9792,0.0,0.0,2.9534,2.8897,2.7924,2.6356,2.5178,2.4116,2.1763,2.1667,2.2589,2.1614,2.2076,2.3309,2.4414,2.5588,2.6678,2.7763,2.8897,2.9792,2.9792,2.9624,2.9236,2.8347,2.7936,2.7441,2.6066,2.4977,2.3754,2.1931,2.2653,2.3681,2.3916,2.5138,2.6182,2.6182,2.5923,2.5454,2.4774,2.4392,2.3891,2.3101,2.298,2.2752,2.2041,2.1876,2.1517,2.0781,2.0303,2.0059,2.0059,1.9746,1.9597,1.9597,2.1136,2.216,2.2471,2.4349,2.5477,2.5772,2.5004,2.4414,2.399,2.399,2.4238,3.7667,3.8421,3.8591,3.7197,3.3984,3.0468,2.7706,2.4118,2.1204,2.0667,2.0213,2.0341,2.179,2.2859,2.4608,2.7906,2.9227,3.1244,3.5218,3.5201,3.5225,3.6445,3.6006,3.5184,3.4095,3.3993,3.3276,3.1462,2.959,2.9358,3.1241,3.1315,3.0945,3.0075,3.0075,3.0075,3.0075,3.0075,3.0075,3.0075,2.9972,2.9934,2.9934,2.983,2.9792,2.9792,2.9792,0.0,0.0,2.8676,2.8176,2.7792,2.4566,2.3248,2.2901,2.0549,2.044,2.1426,2.1337,2.2076,2.3309,2.4414,2.5588,2.6678,2.7763,2.8897,2.9792,2.9792,2.9067,2.8215,2.8136,2.736,2.6077,2.3851,2.3238,2.2533,2.0236,2.1485,2.3073,2.311,2.4924,2.6449,2.6449,2.5295,2.436,2.4247,2.3074,2.2122,2.204,2.204,2.2011,2.1932,2.1527,2.1242,2.1132,2.0762,2.0546,2.0546,2.0507,2.0488,2.0488,2.147,2.2665,2.4078,2.4247,2.5033,2.6397,2.4437,2.3416,2.3379,2.3379,2.34,3.4641,3.5634,3.5911,3.5124,3.2109,2.8606,2.581,2.2596,1.9912,1.8802,1.8865,1.9325,1.9981,2.0921,2.2301,2.4523,2.5139,2.6594,3.0287,3.0523,3.1039,3.3031,3.39,3.3761,3.2417,3.282,3.1802,2.8497,2.6863,2.6374,2.718,2.857,2.9498,2.9792,2.9792,2.9792,2.9792,2.9792,2.9792,2.9792,2.9106,2.8767,2.8767,2.8767,2.8767,2.8806,2.9495,0.0,0.0,2.8557,2.7735,2.686,2.4098,2.2562,2.1799,2.0116,2.026,2.1293,2.1293,2.2076,2.3178,2.3637,2.4553,2.5672,2.6789,2.7464,2.7799,2.7799,2.7504,2.6994,2.6273,2.4735,2.3148,2.2196,2.0846,1.9555,1.8634,1.916,2.0036,2.0756,2.2221,2.3601,2.4339,2.3352,2.2716,2.3453,2.2394,2.1782,2.2551,2.2637,2.2637,2.2637,2.2031,2.1621,2.1621,2.1465,2.1398,2.1398,2.1398,2.1398,2.1398,2.2297,2.3058,2.367,2.4266,2.4487,2.4397,2.2928,2.2349,2.2557,2.2013,2.2621,3.0254,3.1342,3.1806,3.1329,2.8842,2.5857,2.3356,2.0818,1.8586,1.7072,1.7484,1.8093,1.8051,1.8804,1.987,2.1219,2.1715,2.3159,2.6614,2.7123,2.8136,3.083,3.2154,3.2492,3.155,3.1275,2.9618,2.5984,2.4367,2.371,2.4008,2.5675,2.7406,2.9236,2.9624,2.9792,2.9792,2.9792,2.9792,2.9792,2.8988,2.8426,2.8096,2.8096,2.8096,2.8136,2.8609,0.0,0.0,2.7855,2.6673,2.569,2.3012,2.1248,2.0124,1.9268,1.9716,2.08,2.1159,2.2076,2.3091,2.3091,2.3637,2.4467,2.5263,2.5975,2.6524,2.6524,2.6265,2.5672,2.417,2.2557,2.1114,2.0395,1.861,1.7102,1.7124,1.7109,1.7554,1.9169,2.0486,2.1569,2.2403,2.1845,2.148,2.1952,2.1302,2.1078,2.1952,2.2041,2.2041,2.2041,2.1537,2.1419,2.2038,2.1963,2.1885,2.1885,2.1885,2.1885,2.1885,2.2523,2.291,2.3002,2.3408,2.3226,2.2458,2.1778,2.157,2.1854,2.1575,2.2265,2.4383,2.537,2.6103,2.5362,2.3725,2.1812,2.0116,1.8384,1.6824,1.573,1.6009,1.6396,1.6351,1.6657,1.737,1.8724,1.9887,2.1915,2.5684,2.637,2.768,3.0828,3.1315,3.1604,3.2033,2.945,2.6788,2.449,2.2347,0.0,2.2656,2.2948,2.4598,2.8004,2.9197,2.9792,2.9792,2.9792,2.9792,2.9792,2.9792,2.9197,2.8096,2.8096,2.8096,0.0,0.0,0.0,0.0,2.6202,2.4756,2.4292,2.0864,1.8818,1.7731,1.7738,1.8503,1.9679,2.089,2.2076,2.3091,2.3091,2.3091,2.3135,2.3135,2.4723,2.6524,2.6524,2.5683,2.4265,2.195,2.1337,2.0711,1.8326,1.6699,1.5738,1.5812,1.5772,1.6476,1.9015,2.0486,2.1293,2.1337,2.1293,2.089,1.9716,1.9542,1.9542,1.9542,1.9542,1.9542,1.9542,1.9534,2.0338,2.2316,2.2129,2.1885,2.1885,2.1885,2.1885,2.1885,2.1926,2.2021,2.2324,2.1274,2.0885,2.1112,2.123,2.1284,2.1337,2.2526,2.2438,1.9356,2.0395,2.1287,2.0514,2.0119,1.9504,1.784,1.6946,1.6181,1.5154,1.5107,1.523,1.5207,1.53,1.5951,1.7668,1.8785,2.0103,2.2046,2.4503,2.6597,2.7958,2.999,3.133,3.1485,2.7921,2.4545,2.2112,1.9118,1.7558,1.7911,1.9482,2.2783,2.7952,2.8466,2.9028,2.9792,2.9792,2.9792,2.9792,2.9028,2.8068,2.7005,2.7005,2.6584,0.0,0.0,0.0,0.0,2.5535,2.4267,2.3252,2.0532,1.8772,1.7692,1.7692,1.7963,1.8457,1.967,2.0845,2.1845,2.1845,2.2448,2.3091,2.3091,2.3594,2.4188,2.4188,2.3327,2.2249,2.1515,2.0079,1.8434,1.6739,1.5367,1.4483,1.4507,1.4489,1.5238,1.7801,1.8596,1.9085,1.9943,1.9405,1.9001,1.9443,1.8818,1.8549,1.9405,1.9497,1.9497,1.9497,1.9497,1.9765,2.0419,2.0341,2.0633,2.1431,2.0721,2.0633,2.1475,2.0721,2.0315,2.0402,2.0071,1.95,1.877,1.8802,1.8818,1.891,2.0944,2.1212,1.4582,1.5279,1.6015,1.5516,1.5987,1.631,1.5371,1.5344,1.5255,1.4221,1.4201,1.4283,1.4071,1.3707,1.4,1.5712,1.6542,1.7656,1.9606,2.214,2.4563,2.6548,2.9615,3.1186,3.0305,2.7056,2.3488,1.9752,1.7145,1.5509,1.4997,1.7281,2.0944,2.603,2.7446,2.8426,2.9157,2.9585,2.9792,2.9792,2.9067,2.7947,2.6524,2.6524,2.588,0.0,0.0,0.0,0.0,2.4106,2.2727,2.1441,1.9555,1.8087,1.7037,1.7498,1.7692,1.787,1.9085,1.9988,2.0621,2.0621,2.1123,2.1721,2.1721,2.2041,2.2403,2.2403,2.1534,2.0531,2.0079,1.8472,1.6612,1.5319,1.4046,1.3295,1.3776,1.3926,1.4638,1.721,1.7692,1.7963,1.868,1.8187,1.7777,1.8079,1.7444,1.7264,1.8033,1.8118,1.8118,1.8118,1.7678,1.7585,1.8072,1.8948,1.9807,2.0567,1.9898,1.9852,2.0576,1.9898,1.9268,1.8818,1.8818,1.8226,1.699,1.7458,1.7909,1.8411,1.9898,1.9988,0.0,1.0404,1.0684,1.0595,1.1555,1.2538,1.2859,1.3633,0.0,1.3081,1.3348,1.3573,1.3071,1.2097,1.1887,1.3484,1.3833,1.5032,1.8228,1.9824,2.2236,2.6471,2.991,3.104,2.88,2.6616,2.3183,1.7847,1.6334,1.5114,1.3886,1.6169,1.9099,2.2499,2.5865,2.774,2.7964,2.904,2.9585,2.9663,2.9585,2.8502,2.6472,2.6348,2.5619,0.0,0.0,0.0,0.0,2.2026,2.038,1.9092,1.811,1.6897,1.592,1.7131,1.7552,1.7731,1.8864,1.9314,1.9405,1.9488,1.9497,1.9497,1.9497,2.026,2.1159,2.1159,2.0305,1.9085,1.7855,1.6558,1.5259,1.4058,1.2818,1.2285,1.359,1.3926,1.4638,1.707,1.7552,1.7552,1.7552,1.7552,1.7178,1.5967,1.5784,1.5784,1.5784,1.5784,1.5784,1.5683,1.4609,1.4316,1.5439,1.774,1.9169,1.936,1.9314,1.926,1.936,1.926,1.8726,1.7598,1.7552,1.699,1.5784,1.7084,1.8226,1.9222,1.9314,1.8726,0.8781,0.0,0.8632,0.783,0.8891,1.0389,0.0,1.2162,1.2953,1.291,1.3017,1.3263,1.3747,1.2248,1.2026,1.5388,1.5445,1.56,1.7194,2.0864,2.4494,2.7457,2.9202,2.9617,2.8331,2.4545,2.1222,1.895,1.604,1.4208,1.3903,1.5313,1.7005,1.8886,2.1414,2.4058,2.6842,2.7139,2.7706,2.8478,2.7666,2.7017,2.6431,2.4639,2.3225,0.0,0.0,0.0,2.0649,2.0152,1.9214,1.8064,1.7816,1.6897,1.5825,1.6157,1.6244,1.6292,1.6567,1.7304,1.828,1.9177,1.9497,1.9497,1.9497,1.9716,1.9898,1.9898,1.9039,1.7801,1.6497,1.5231,1.4004,1.2668,1.2139,1.2285,1.359,1.3926,1.4358,1.5954,1.6244,1.6244,1.6244,1.6244,1.615,1.5825,1.5784,1.5784,1.5784,1.5784,1.5439,1.4459,1.407,1.359,1.2866,1.4285,1.6048,1.8002,1.721,1.7124,1.8095,1.721,1.652,1.6244,1.6244,1.6109,1.5784,1.7084,1.7358,1.6702,1.7677,1.7451,0.819,0.7938,0.8048,0.7489,0.8334,0.9541,1.0377,1.118,1.1763,1.1911,1.2172,1.2591,1.3242,1.2263,1.2195,1.4777,1.4679,1.4929,1.6798,2.0225,2.3353,2.5485,2.6517,2.6714,0.0,2.2836,1.9985,1.7781,1.5859,1.4513,1.3926,1.5061,1.6048,1.6753,1.7965,2.0348,2.4014,2.4556,2.5092,2.5653,2.5092,2.4524,2.3972,2.2713,2.1522,0.0,0.0,0.0,1.868,1.868,1.7948,1.681,1.681,1.6433,1.5784,1.5784,1.5784,1.5784,1.5784,1.6244,1.6943,1.7576,1.7801,1.7801,1.7801,1.7907,1.8138,1.8542,1.7375,1.5778,1.5041,1.3513,1.2086,1.1945,1.1896,1.2311,1.3782,1.4546,1.5032,1.5157,1.5237,1.5035,1.4335,1.4783,1.5231,1.5237,1.5781,1.5982,1.5335,1.5237,1.4734,1.3336,1.2636,1.2238,1.2149,1.284,1.4064,1.5839,1.5859,1.6109,1.6803,1.6157,1.5784,1.5784,1.5965,1.6032,1.6032,1.6835,1.6898,1.6233,1.6898,1.6849,0.8273,0.8163,0.8349,0.8042,0.842,0.9089,0.9881,1.029,1.0526,1.0762,1.1284,1.1898,1.2458,1.214,1.2249,1.3647,1.3687,1.4478,1.717,1.91,2.0932,2.279,2.3438,2.3558,2.3046,2.133,1.9146,1.6502,1.5981,1.5337,1.4268,1.5045,1.546,1.5448,1.5442,1.6893,1.9954,2.1332,2.2091,2.2265,2.2293,2.1886,2.1086,2.074,2.0084,1.9222,0.0,0.0,1.7412,1.7412,1.6756,1.5784,1.5784,1.5784,1.5784,1.5784,1.5784,1.5784,1.5784,1.5784,1.5784,1.5784,1.5811,1.5899,1.5899,1.5954,1.6175,1.7008,1.5673,1.3893,1.3451,1.1742,1.0326,1.1407,1.185,1.2441,1.3969,1.5226,1.5753,1.4708,1.4394,1.3886,1.2607,1.337,1.4191,1.4247,1.5267,1.5626,1.44,1.4247,1.3733,1.2243,1.1061,1.0802,1.1733,1.2289,1.2941,1.3631,1.5124,1.5917,1.5917,1.5917,1.5917,1.5917,1.6213,1.6339,1.6339,1.6587,1.6707,1.6707,1.6707,1.6707,0.9126,0.9217,0.9058,0.7285,0.7135,0.7695,0.8705,0.8974,0.9356,1.0551,1.1112,1.1689,1.2726,1.1738,1.1912,1.553,1.6043,1.6789,1.9243,1.9307,2.0097,2.2703,2.2151,2.1948,2.2935,2.0048,1.8356,1.8878,1.6969,1.573,1.5534,1.4657,1.4214,1.4202,1.4202,1.4429,1.5022,1.7189,1.8776,1.9745,1.9915,2.0399,2.1042,1.9112,1.8126,1.7917,0.0,1.6244,1.6109,1.6109,1.5967,1.5784,1.5784,1.5784,1.5784,1.5784,1.5784,1.5784,1.5784,1.5784,1.5784,1.5784,1.5999,1.6206,1.6206,1.5549,1.4835,1.5044,1.4731,1.387,1.1527,1.0664,1.0407,1.0561,1.1578,1.2862,1.4173,1.4639,1.4758,1.4597,1.358,1.2659,1.2453,1.2607,1.271,1.2761,1.2915,1.2966,1.2761,1.2761,1.2243,1.0854,1.0543,1.0028,0.9156,1.1259,1.2669,1.2801,1.5194,1.6573,1.6573,1.6573,1.6573,1.6573,1.6613,1.664,1.664,1.6687,1.6707,1.6707,1.6707,1.6707,0.9045,0.9191,0.9,0.72,0.7388,0.7905,0.7462,0.7221,0.7306,0.8052,0.8616,0.9375,1.0713,1.1855,1.3554,1.6392,1.6202,1.6106,1.7334,1.7327,1.7934,1.9921,0.0,1.8738,2.0028,1.8018,1.6889,1.7483,0.0,0.0,1.5784,1.5242,1.4609,1.392,1.3926,1.3536,1.2813,1.4636,1.6168,1.7365,1.7446,1.7771,1.8187,1.7149,1.6662,1.6622,0.0,1.5784,1.5784,1.5784,1.5784,1.5784,1.5784,1.5784,1.5798,1.6012,1.6072,1.6092,1.6253,1.6306,1.6306,1.6306,1.6393,1.6351,1.5594,1.5115,1.4442,1.294,1.2383,1.1981,1.075,0.9875,0.9567,1.0236,1.0901,1.1808,1.3272,1.3558,1.3387,1.2836,1.2173,1.1434,1.0642,1.1172,1.1695,1.1695,1.2385,1.2596,1.1801,1.1695,1.1167,0.9739,0.9578,0.9366,0.878,1.058,1.2646,1.4716,1.5985,1.6707,1.6707,1.6707,1.6707,1.6707,1.6867,1.6947,1.6947,1.7101,1.7181,1.7181,1.7181,1.7181,0.8644,0.8671,0.8329,0.6845,0.7455,0.8003,0.6546,0.5766,0.5582,0.6276,0.6907,0.7777,0.9259,1.2361,1.5131,1.6396,1.5959,1.5558,1.5913,1.5873,1.6244,1.7552,1.6574,1.6292,1.7598,1.6527,1.592,1.6197,0.0,0.0,1.5784,1.5534,1.4902,1.3926,1.3926,1.3392,1.2382,1.3686,1.4704,1.5343,1.5683,1.5784,1.5784,1.5784,1.5784,1.5784,1.5784,1.5784,1.5784,1.5784,1.5784,1.5791,1.5905,1.5979,1.6066,1.6286,1.6373,1.6406,1.6627,1.6707,1.6707,1.6707,1.6546,1.6087,1.5002,1.4401,1.3646,1.1425,1.042,1.0051,1.0051,0.9323,0.8849,0.9791,1.031,1.0923,1.2129,1.2375,1.2156,1.1293,1.0836,1.0241,0.9103,0.986,1.0566,1.0566,1.1577,1.1928,1.0788,1.0663,1.0251,0.915,0.9008,0.9095,0.9425,1.0556,1.2571,1.5768,1.6253,1.6546,1.6914,1.6596,1.6387,1.6387,1.6658,1.6769,1.6769,1.7311,1.7582,1.7582,1.7582,1.7582,0.8155,0.77,0.6857,0.5563,0.622,0.7036,0.6356,0.5311,0.5095,0.7145,0.7976,0.8768,1.0236,1.3282,1.5514,1.5218,1.6116,1.7023,1.747,1.6513,1.6244,1.7552,1.6574,1.6292,1.7598,1.6527,1.6292,0.0,0.0,0.0,1.5784,1.4704,1.3974,1.3926,1.3926,1.3872,1.3776,1.4997,1.5099,1.407,1.5242,1.5784,1.5784,1.5784,1.5784,1.5784,1.5784,1.5784,1.5784,1.5784,1.5784,1.5804,1.6132,1.6406,1.6647,1.6667,1.6673,1.6673,1.67,1.6707,1.6707,1.6707,1.5954,1.5116,1.5006,1.328,1.1357,1.1143,1.0049,0.9013,0.9013,0.8958,0.8906,0.8958,1.0042,1.1071,1.1189,1.1193,1.1197,1.1105,0.997,0.9047,0.894,0.8992,0.9047,0.9047,0.9328,0.9472,0.9363,0.9431,0.9463,0.9351,0.9279,0.9691,1.1019,1.1341,1.2165,1.3826,1.4913,1.6119,1.7463,1.6225,1.547,1.547,1.5541,1.5553,1.5553,1.6922,1.7582,1.7582,1.7582,1.7582,0.7291,0.6653,0.5877,0.507,0.4784,0.4446,0.3405,0.3385,0.3848,0.4787,0.6291,0.8499,1.1893,1.3363,1.4436,1.5788,1.6155,1.6341,1.6506,1.6109,1.5967,1.648,1.6109,1.5967,1.648,1.6062,1.6015,0.0,0.0,0.0,1.5784,1.5337,1.5092,1.5092,1.5092,1.5092,1.5092,1.5581,1.5581,1.5099,1.5581,1.5784,1.5784,1.5784,1.5784,1.5784,1.5784,1.5784,1.5798,1.6025,1.6106,1.6132,1.6426,1.6607,1.6727,1.6914,1.7032,1.7007,1.7188,1.6665,1.5873,1.5873,1.5036,1.3784,1.2875,1.1855,1.0891,0.997,0.9316,0.8885,0.8885,0.8885,0.8885,0.8885,0.9316,0.978,0.9876,0.9898,0.9928,1.0032,0.9607,0.9211,0.9211,0.9211,0.9211,0.9211,0.9259,0.9354,0.9354,0.9347,0.9381,0.9381,0.933,0.9523,1.0082,1.0141,1.0801,1.2219,1.3527,1.4462,1.5006,1.4516,1.4238,1.4238,1.4322,1.4839,1.5844,1.6405,1.719,1.8143,1.8143,1.8143,0.598,0.5178,0.4324,0.3703,0.289,0.2112,0.1573,0.2278,0.3425,0.4841,0.7087,0.9838,1.33,1.3804,1.416,1.5823,1.5939,1.5784,1.5784,1.5784,1.5784,1.5784,1.5784,1.5784,1.5784,1.5784,0.0,0.0,0.0,0.0,0.0,1.5784,1.5784,1.5784,1.5784,1.5784,1.5784,1.5784,1.5784,1.5784,1.5784,1.5784,1.5784,1.5784,1.5879,1.5972,1.5972,1.6019,1.6119,1.6326,1.6466,1.6616,1.6767,1.6901,1.7007,1.7266,1.7016,1.6671,1.6864,1.5956,1.4716,1.4716,1.375,1.2403,1.1433,1.0822,1.0263,0.9279,0.9042,0.9079,0.9079,0.9042,0.9018,0.9066,0.9079,0.9106,0.9262,0.9282,0.9313,0.9361,0.9381,0.9381,0.9381,0.9381,0.9381,0.9381,0.9422,0.9452,0.9452,0.9493,0.9503,0.9459,0.9493,0.9503,0.9456,0.9493,0.9925,1.0903,1.1774,1.266,1.3537,1.3146,1.2866,1.2866,1.2942,1.3524,1.4662,1.5114,1.6198,1.7742,1.7742,1.8027,0.4227,0.3213,0.2002,0.1271,0.0568,0.0336,0.1527,0.2391,0.4092,0.8248,1.1051,1.3123,1.4254,1.4763,1.5015,1.497,1.5451,1.5784,1.5784,1.5784,1.5784,1.5784,1.5784,1.5784,1.5784,1.5784,0.0,0.0,0.0,0.0,0.0,1.5778,1.5778,1.5784,1.5778,1.5778,1.5784,1.5784,1.5784,1.5784,1.5784,1.5784,1.5784,1.5784,1.5999,1.6321,1.6279,1.644,1.6707,1.6707,1.6887,1.7206,1.7206,1.738,1.7582,1.7582,1.6658,1.5364,1.5364,1.4449,1.327,1.327,1.2295,1.1055,1.1055,1.0191,0.921,0.921,0.932,0.9381,0.9384,0.9326,0.9251,0.9347,0.9381,0.9381,0.9384,0.9384,0.9384,0.9384,0.9384,0.9384,0.9384,0.9384,0.9384,0.9384,0.9517,0.9612,0.9612,0.9734,0.9768,0.9629,0.9737,0.9764,0.9625,0.9741,0.9822,0.9822,0.969,1.0817,1.3534,1.228,1.1487,1.1487,1.1487,1.1487,1.1487,1.296,1.4493,1.6092,1.6092,1.695,0.2956,0.2115,0.1363,0.117,0.1172,0.1581,0.2776,0.329,0.4627,0.8436,1.0586,1.1812,1.2084,1.3859,1.4983,1.4038,1.4957,1.5784,1.5784,1.5784,1.5784,1.5784,1.5784,1.5784,1.5784,1.5784,0.0,0.0,0.0,0.0,0.0,1.4949,1.4848,1.5784,1.4949,1.4902,1.5778,1.5784,1.5784,1.5784,1.5784,1.5784,1.5791,1.6046,1.6186,1.6335,1.6486,1.6627,1.672,1.6934,1.7239,1.7507,1.7507,1.6911,1.6062,1.6062,1.515,1.3911,1.3911,1.2994,1.1755,1.1755,1.0726,0.9555,0.972,0.9507,0.9231,0.934,0.9347,0.9405,0.9513,0.9507,0.9459,0.9395,0.9381,0.9412,0.9517,0.954,0.9571,0.9673,0.969,0.969,0.969,0.969,0.969,0.969,1.0681,1.1423,1.1423,1.0453,0.9805,0.9764,0.9795,0.9802,0.9761,0.9795,0.9822,0.9822,0.9781,1.0046,1.0762,1.041,1.0178,1.0178,1.0283,1.0867,1.1989,1.2458,1.3457,1.5046,1.5046,1.5285,0.1814,0.1172,0.0768,0.1272,0.1233,0.1535,0.3367,0.494,0.6697,0.9017,1.0478,1.1358,1.126,1.2683,1.3584,1.2778,1.3992,1.5045,1.5045,1.5486,1.5784,1.5784,1.5784,1.5784,1.5784,0.0,0.0,0.0,0.0,0.0,0.0,1.4316,1.4022,1.4226,1.4022,1.4262,1.5045,1.554,1.5784,1.5784,1.5784,1.5784,1.5791,1.6139,1.6382,1.6466,1.6881,1.7054,1.7068,1.73,1.7474,1.7582,1.7582,1.6717,1.5417,1.5417,1.4126,1.2403,1.2403,1.1483,1.0241,1.0241,0.9688,0.9042,0.9183,0.9296,0.9354,0.9445,0.9513,0.9578,0.9669,0.9693,0.9669,0.9578,0.9554,0.9581,0.9673,0.9693,0.972,0.9805,0.9822,0.9822,0.9822,0.9822,0.9822,0.9822,1.066,1.1257,1.1257,1.0422,0.9822,0.9822,0.9876,0.9852,0.9852,0.9968,1.0002,1.0002,1.0002,0.9964,0.988,0.9758,0.9693,0.9693,0.9778,1.0301,1.1257,1.1257,1.2097,1.3651,1.3651,1.4004,0.0858,0.0412,0.0255,0.1348,0.0897,0.0913,0.3688,0.6854,0.9248,0.9554,1.0544,1.1342,1.12,1.139,1.1485,1.139,1.2714,1.3728,1.3728,1.4704,1.5439,1.5439,1.5439,1.5439,1.5439,0.0,0.0,0.0,0.0,0.0,0.0,1.3632,1.3054,1.1945,1.2958,1.368,1.3926,1.5045,1.5683,1.5784,1.5784,1.5784,1.5791,1.6139,1.6446,1.6774,1.7315,1.7555,1.7582,1.7582,1.7582,1.7582,1.7582,1.6605,1.5198,1.5198,1.3367,1.0891,1.0891,1.0021,0.8885,0.8898,0.9045,0.9214,0.9245,0.9388,0.9612,0.9625,0.9724,0.9822,0.9822,0.9822,0.9822,0.9822,0.9822,0.9822,0.9822,0.9822,0.9822,0.9822,0.9822,0.9825,0.9839,0.9842,0.9846,1.0039,0.992,0.9924,1.0042,0.992,0.9863,0.9863,0.9926,1.0007,1.0007,1.0198,1.028,1.028,1.028,1.028,1.028,1.0012,0.9863,0.9863,0.9863,0.9856,0.9842,0.9856,1.0576,1.2001,1.2018,1.2806,0.0194,0.009,0.0065,0.0321,0.0904,0.2364,0.5983,0.6711,0.6931,0.8122,0.94,0.9983,0.8962,1.0418,1.1487,1.0467,1.1429,1.2334,1.2334,1.2576,1.2721,1.2721,1.2721,1.2721,1.2721,0.0,0.0,0.0,0.0,0.0,1.2334,1.1361,1.1165,1.1901,1.1214,1.1843,1.3878,1.4166,1.48,0.0,1.5784,1.5784,1.5791,1.6139,1.661,1.7112,1.7239,1.7427,1.7582,1.7582,1.7582,1.7582,1.7582,1.6015,1.375,1.375,1.1914,0.9372,0.9372,0.9154,0.8902,0.9069,0.9183,0.9255,0.9439,0.9557,0.9632,0.9744,0.9798,0.9822,0.9822,0.9822,0.9822,0.9822,0.9822,0.9822,0.9822,0.9822,0.9822,0.9822,0.9822,0.9859,0.9916,0.9936,1.0466,1.1884,1.0981,1.0678,1.1904,1.0985,1.0181,1.0181,1.0212,1.0232,1.0232,1.0259,1.028,1.028,1.028,1.028,1.028,1.0215,1.0181,1.0181,1.0181,1.012,0.9936,1.0124,1.0305,1.0493,1.0617,1.0866,-0.0431,-0.028,0.0,0.0,0.1786,0.3911,0.5422,0.5746,0.5929,0.6795,0.8076,0.8825,0.8137,0.9114,0.9801,0.9167,1.0145,1.0974,1.0974,1.1507,1.1896,1.1896,1.1896,1.1896,0.0,0.0,0.0,0.0,0.0,1.1604,1.1023,1.0342,0.9998,1.0047,0.9998,1.0632,1.2037,1.3247,1.4214,1.4902,1.5486,1.5784,1.5791,1.6139,1.6643,1.7199,1.7199,1.7367,1.7582,1.7582,1.7199,1.6552,1.6552,1.477,1.224,1.224,1.0836,0.8895,0.9018,0.9042,0.9066,0.9215,0.931,0.9401,0.9561,0.9656,0.9727,0.9798,0.9822,0.9822,0.9822,0.9876,0.9869,0.9869,0.9873,0.9839,0.9852,0.9869,0.9954,1.0025,1.0039,1.0066,1.0144,1.0158,1.0433,1.1385,1.0841,1.0591,1.1463,1.0841,1.028,1.028,1.0341,1.0382,1.0382,1.0449,1.049,1.049,1.049,1.049,1.049,1.049,1.0426,1.0283,1.028,1.0243,1.0158,1.0243,1.0239,1.0161,1.0243,1.028,-0.0905,-0.0543,0.0035,0.0243,0.2413,0.4336,0.3893,0.4394,0.5054,0.5398,0.6443,0.7385,0.7637,0.7637,0.7739,0.7939,0.8924,0.9657,0.9657,1.0583,1.1214,1.1214,1.1214,1.1214,0.0,0.0,0.0,0.0,0.0,1.0779,0.9706,0.9657,0.9167,0.8038,0.9069,0.9756,0.9998,1.2129,1.3343,1.3584,1.4609,1.5146,1.5153,1.539,1.611,1.7125,1.7125,1.732,1.7582,1.7312,1.6499,1.5364,1.515,1.3421,1.1105,1.1105,1.0186,0.8905,0.9103,0.921,0.9241,0.9361,0.9507,0.9615,0.9639,0.9727,0.9825,0.9852,0.9859,0.9866,0.9893,0.9995,1.0027,1.0027,0.9992,0.9934,1.0,1.0027,1.0127,1.0256,1.03,1.0317,1.0317,1.0337,1.0354,1.0354,1.0354,1.0354,1.0354,1.0354,1.0354,1.0354,1.0463,1.0531,1.0531,1.0649,1.0721,1.0721,1.0721,1.0721,1.0721,1.0721,1.0605,1.0361,1.0354,1.0344,1.0317,1.0344,1.0341,1.0317,1.0344,1.0354,-0.0912,-0.0465,0.0251,0.1312,0.1139,0.1278,0.3334,0.3138,0.282,0.3994,0.4413,0.4868,0.6077,0.6279,0.6631,0.7789,0.8137,0.8283,0.8283,0.8432,0.8531,0.8531,0.8531,0.8531,0.0,0.0,0.0,0.0,0.8531,0.8432,0.8283,0.8283,0.8187,0.7988,0.8187,0.8821,0.9998,1.0337,1.1068,1.2188,1.2334,1.2431,1.2436,1.2462,1.4071,1.6767,1.6767,1.7074,1.7477,1.6227,1.5577,1.5257,1.4073,1.2566,1.1105,1.1105,1.0186,0.8905,0.9103,0.921,0.9258,0.9486,0.9595,0.9632,0.9754,0.9805,0.9849,0.992,0.9957,0.9987,1.0185,1.0236,1.0249,1.0249,1.0236,1.0226,1.0246,1.0249,1.0256,1.0276,1.0378,1.0463,1.0463,1.0575,1.0663,1.0663,1.0663,1.0663,1.0663,1.0663,1.0663,1.0663,1.0677,1.069,1.069,1.0707,1.0721,1.0721,1.0721,1.0721,1.0721,1.0721,1.07,1.0663,1.0663,1.0595,1.0463,1.0599,1.0595,1.0466,1.0599,1.0663,-0.0404,-0.0197,0.011,0.0647,0.0891,0.1313,0.2431,0.2258,0.207,0.2638,0.2249,0.2384,0.451,0.5475,0.6179,0.6781,0.7487,0.7988,0.7988,0.7988,0.7988,0.7988,0.7988,0.7988,0.0,0.0,0.0,0.0,0.7988,0.7988,0.7988,0.7988,0.7988,0.7988,0.7988,0.8283,0.8871,0.9608,1.0632,1.1896,1.1896,1.1896,1.1901,1.2022,1.2899,1.4388,1.4388,1.4677,1.515,1.4502,1.375,1.294,1.2295,1.116,0.9871,1.0017,0.9608,0.9093,0.9327,0.9408,0.9445,0.9659,0.9727,0.9741,0.9802,0.988,0.9903,0.9967,1.0048,1.0195,1.0263,1.0337,1.0399,1.0399,1.0466,1.0527,1.0527,1.046,1.0426,1.051,1.0578,1.0619,1.0619,1.0677,1.0721,1.0721,1.0721,1.0721,1.0721,1.0721,1.0721,1.0721,1.0721,1.0721,1.0721,1.0721,1.0721,1.0721,1.0721,1.0721,1.0721,1.0721,1.0721,1.0721,1.0721,1.0687,1.0619,1.0687,1.0683,1.0622,1.0687,1.0721,-0.003,0.0,0.0,0.0,0.0664,0.1323,0.1323,0.1355,0.1339,0.1326,0.0629,0.0592,0.2605,0.4069,0.5225,0.5879,0.6833,0.7587,0.7939,0.7988,0.7988,0.7988,0.7988,0.7988,0.0,0.0,0.0,0.0,0.7988,0.7988,0.7988,0.7988,0.7988,0.7988,0.7988,0.7988,0.7988,0.897,0.9948,1.0921,1.0921,1.0921,1.093,1.1129,1.1332,1.1625,1.2348,1.2906,1.3264,1.2886,1.2077,1.1051,1.0672,0.986,0.8902,0.91,0.921,0.9255,0.9503,0.9608,0.9632,0.9774,0.9822,0.9829,0.9866,0.9896,1.0004,1.0078,1.0246,1.0344,1.0382,1.047,1.0551,1.0551,1.0636,1.0721,1.0721,1.0629,1.0582,1.0697,1.0721,1.0721,1.0721,1.0721,1.0721,1.0721,1.0721,1.0721,1.0721,1.0721,1.0721,1.0721,1.0721,1.0721,1.0721,1.0721,1.0721,1.0721,1.0721,1.0721,1.0721,1.0721,1.0721,1.0721,1.0721,1.0721,1.0721,1.0721,1.0721,1.0721,1.0721,1.0721,-0.0163,0.0,0.0,0.0,0.0038,0.008,0.0086,0.0089,0.0091,0.0095,0.0048,0.0049,0.0201,0.131,0.3016,0.5577,0.6079,0.6531,0.7839,0.7988,0.7988,0.7988,0.7988,0.7988,0.0,0.0,0.0,0.0,0.7988,0.7988,0.7988,0.7988,0.7988,0.7988,0.7988,0.7988,0.7988,0.8088,0.8137,0.8187,0.8187,0.8187,0.8191,0.84,0.8601,0.8853,1.162,1.2994,1.321,1.181,1.116,1.0945,0.9537,0.8992,0.8902,0.91,0.921,0.9255,0.9503,0.9608,0.9632,0.9774,0.9822,0.9846,0.993,0.998,1.0044,1.0388,1.0473,1.0514,1.066,1.0704,1.0707,1.0707,1.0714,1.0721,1.0721,1.0714,1.0711,1.0717,1.0721,1.0721,1.0721,1.0721,1.0721,1.0721,1.0721,1.0721,1.0721,1.0721,1.0721,1.0721,1.0721,1.0721,1.0721,1.0721,1.0721,1.0721,1.0721,1.0721,1.0721,1.0721,1.0721,1.0721,1.0721,1.0721,1.0721,1.0721,1.0721,1.0721,1.0721,1.0721,-0.0532,-0.0631,-0.0682,-0.061,-0.0657,-0.0581,-0.0121,0.0,0.0,0.0,0.0,0.0,0.0,0.11,0.2314,0.3267,0.4169,0.487,0.537,0.542,0.542,0.542,0.542,0.0,0.0,0.0,0.0,0.0,0.0,0.7988,0.7988,0.7988,0.7988,0.7988,0.7988,0.7988,0.7988,0.7988,0.7988,0.7988,0.7988,0.7988,0.7998,0.8296,0.8435,0.8548,0.9758,1.0342,1.0457,0.9915,0.9699,0.9644,0.9099,0.8994,0.9093,0.9245,0.9361,0.9473,0.9676,0.9744,0.9754,0.9805,0.9886,0.9916,0.997,1.0118,1.0354,1.0463,1.0561,1.0653,1.0707,1.0721,1.0721,1.0721,1.0721,1.0721,1.0721,1.0721,1.0721,1.0721,1.0721,1.0721,1.0721,1.0721,1.0721,1.0721,1.0721,1.0721,1.0721,1.0721,1.0721,1.0721,1.0721,1.0721,1.0721,1.0721,1.0721,1.0721,1.0721,1.0721,1.0721,1.0721,1.0721,1.0721,1.0721,1.0721,1.0721,1.0721,1.0721,1.0721,1.0721,1.0721,-0.0804,-0.1034,-0.1157,-0.1449,-0.1285,-0.0987,-0.0626,-0.0246,0.0,0.0,0.0,0.0,0.0,0.074,0.15,0.191,0.2765,0.3465,0.3915,0.4016,0.4016,0.4016,0.4016,0.0,0.0,0.0,0.0,0.0,0.0,0.0,0.7335,0.7335,0.7335,0.7335,0.7335,0.7537,0.7988,0.7988,0.7988,0.7988,0.7988,0.7988,0.8002,0.8347,0.8482,0.8499,0.8804,0.8885,0.8885,0.8885,0.8885,0.8885,0.8885,0.9025,0.9228,0.9323,0.9479,0.9632,0.9771,0.9822,0.9829,0.988,0.9906,0.9879,0.9406,0.9819,1.037,0.9823,1.0172,1.0721,1.0721,1.0721,1.0721,1.0721,1.0721,1.0721,1.0721,1.0721,1.0721,1.0721,1.0721,1.0721,1.0721,1.0721,1.0721,1.0721,1.0721,1.0721,1.0721,1.0721,1.0721,1.0721,1.0721,1.0721,1.0721,1.0721,1.0721,1.0721,1.0721,1.0721,1.0721,1.0721,1.0721,1.0721,1.0721,1.0721,1.0721,1.0721,1.0721,1.0721,1.0721,1.0721,0.0,0.0,0.0,-0.246,-0.1929,-0.1243,-0.1562,-0.0794,-0.004,-0.0088,-0.0045,0.0,-0.0047,0.0,0.0444,0.1705,0.1962,0.2413,0.3715,0.3865,0.3865,0.3865,0.3865,0.0,0.0,0.0,0.0,0.0,0.5929,0.5929,0.5929,0.5929,0.5929,0.5929,0.5979,0.6631,0.7939,0.7988,0.7988,0.7988,0.7988,0.7988,0.8002,0.8347,0.8482,0.8499,0.8804,0.8885,0.8885,0.8885,0.8885,0.8885,0.8885,0.9028,0.9234,0.9327,0.9483,0.9635,0.9774,0.9822,0.9846,0.9936,0.999,0.9669,0.8259,0.8986,1.0,0.84,0.9172,1.0518,1.0518,1.0585,1.0654,1.0654,1.0651,1.0721,1.0721,1.0721,1.0721,1.0721,1.0721,1.0721,1.0721,1.0721,1.0721,1.0721,1.0721,1.0721,1.0721,1.0721,1.0721,1.0721,1.0721,1.0721,1.0721,1.0721,1.0721,1.0721,1.0721,1.0721,1.0721,1.0721,1.0721,1.0721,1.0721,1.0721,1.0721,1.0721,1.0721,1.0721,1.0721,1.0721,-0.2373,0.0,0.0,0.0,0.0,0.0,-0.215,-0.1395,-0.1038,-0.1925,-0.0996,-0.0259,-0.1151,-0.0609,0.0143,0.0492,0.055,0.0706,0.1058,0.1109,0.1109,0.1109,0.1109,0.0,0.0,0.0,0.0,0.0,0.4568,0.4568,0.4568,0.4568,0.4568,0.4568,0.5475,0.6179,0.6531,0.7537,0.7988,0.7988,0.7988,0.7988,0.8002,0.8347,0.8482,0.8499,0.8804,0.8885,0.8885,0.8885,0.8885,0.8885,0.8885,0.9096,0.9323,0.9364,0.9544,0.9768,0.9805,0.9822,0.9846,0.9936,0.9233,0.8193,0.7894,0.7334,0.6732,0.6225,0.6498,0.6833,0.6833,0.7833,0.8767,0.8767,0.9775,1.0721,1.0721,1.0721,1.0721,1.0721,1.0721,1.0721,1.0721,1.0721,1.0721,1.0721,1.0721,1.0721,1.0721,1.0721,1.0721,1.0721,1.0721,1.0721,1.0721,1.0721,1.0721,1.0721,1.0721,1.0721,1.0721,1.0721,1.0721,1.0721,1.0721,1.0721,1.0721,1.0721,1.0721,1.0721,1.0721,1.0721,-0.2646,-0.281,-0.2989,-0.3301,0.0,0.0,-0.2943,-0.2309,-0.1906,-0.2732,-0.1994,-0.1323,-0.1669,-0.1126,-0.0506,-0.0094,0.0,0.0,0.0,0.0,0.0,0.0,0.0,0.0,0.0,0.1159,0.1712,0.3065,0.3165,0.3165,0.3165,0.2614,0.2564,0.3165,0.3919,0.4872,0.5979,0.6781,0.7437,0.7988,0.7988,0.7988,0.8002,0.8347,0.8482,0.8499,0.8804,0.8885,0.8885,0.8885,0.8885,0.8888,0.9005,0.9174,0.933,0.8682,0.8596,0.8711,0.7978,0.7763,0.776,0.7942,0.7294,0.6429,0.5865,0.5527,0.523,0.4494,0.4827,0.5431,0.5431,0.6698,0.803,0.803,0.9374,1.0721,1.0721,1.0721,1.0721,1.0721,1.0721,1.0721,1.0721,1.0721,1.0721,1.0721,1.0721,1.0721,1.0721,1.0721,1.0721,1.0721,1.0721,1.0382,0.9643,0.9573,0.9241,0.8507,0.8507,0.8507,0.8507,0.9175,0.9573,0.9573,1.0316,1.0721,1.0721,1.0721,1.0721,1.0721,1.0721,1.0721,-0.2391,-0.2266,-0.2439,-0.3382,-0.2981,0.0,-0.369,-0.3263,-0.2737,-0.3086,-0.2961,-0.2634,-0.2018,-0.1717,-0.1238,-0.0311,-0.0046,0.0,0.0,0.0,0.0,0.0,0.0,0.0,0.0,0.0,0.0504,0.1711,0.1762,0.1762,0.1762,0.0656,0.0555,0.1762,0.1913,0.3167,0.5527,0.5727,0.6379,0.7534,0.7686,0.7786,0.7799,0.8295,0.843,0.8286,0.8532,0.8546,0.8432,0.8432,0.8491,0.8673,0.8868,0.8895,0.869,0.7336,0.6967,0.6933,0.5406,0.49,0.4908,0.5046,0.4993,0.4541,0.3141,0.369,0.4492,0.2887,0.3556,0.4827,0.4827,0.6229,0.7698,0.7698,0.9238,1.0721,1.0721,1.0721,1.0721,1.0721,1.0721,1.0721,1.0721,1.0721,1.0721,1.0721,1.0721,1.0721,1.0721,1.0721,1.0721,1.0721,1.0721,0.9978,0.8163,0.803,0.7231,0.5498,0.5431,0.5498,0.5696,0.6965,0.7897,0.8299,0.9911,1.0721,1.0721,1.0721,1.0721,1.0721,1.0721,1.0721,-0.3351,-0.2781,-0.2265,-0.2448,-0.3005,0.0,-0.3507,-0.3545,-0.377,-0.4506,-0.3426,-0.2605,-0.3527,-0.2328,-0.1175,-0.1074,-0.0437,0.0,0.0,0.0,0.0,0.0,0.0,0.0,0.0,0.0,0.0101,0.0353,0.0404,0.0404,0.0404,0.0151,0.0101,0.0404,0.1461,0.2264,0.2766,0.3867,0.4518,0.4818,0.5877,0.6381,0.6439,0.7875,0.7842,0.6743,0.6986,0.6478,0.5363,0.5363,0.6033,0.716,0.7158,0.6525,0.5578,0.5251,0.5273,0.5345,0.5039,0.49,0.4908,0.5046,0.4151,0.2964,0.274,0.1948,0.1009,0.0605,0.0807,0.1075,0.1075,0.3488,0.5897,0.5897,0.8371,1.0721,1.0721,1.0721,1.0721,1.0721,1.0721,1.0721,1.0721,1.0721,1.0721,1.0721,1.0721,1.0721,1.0721,1.0721,1.0721,1.0721,1.0721,0.9978,0.8163,0.803,0.7231,0.5498,0.5431,0.603,0.7431,0.6498,0.7234,1.0114,1.0518,1.0721,1.0721,1.0721,1.0721,1.0721,1.0721,1.0721,-0.2633,-0.202,-0.1661,-0.1635,-0.205,0.0,0.0,-0.36,-0.4019,-0.5117,-0.4452,-0.3772,-0.415,-0.2954,-0.1751,-0.1288,-0.0536,0.0,0.0,0.0,0.0,0.0,0.0,0.0,0.0,0.0,0.0,0.0,0.0,0.0,0.0,0.0,0.0,0.0,0.0656,0.131,0.2013,0.2665,0.3316,0.4016,0.467,0.502,0.5029,0.5942,0.5936,0.5259,0.5503,0.5196,0.4526,0.4526,0.4492,0.453,0.535,0.5294,0.4586,0.3856,0.3665,0.3571,0.2732,0.2452,0.2488,0.2524,0.197,0.1265,0.1341,0.074,0.0,0.0,0.0,0.0,0.0,0.2685,0.5431,0.5431,0.8105,1.0721,1.0721,1.0721,1.0721,1.0721,1.0721,1.0721,1.0721,1.0721,1.0721,1.0721,1.0721,1.0721,1.0721,1.0721,1.0721,1.0721,1.0721,0.9643,0.6898,0.7498,0.6896,0.4225,0.4896,0.5362,0.5359,0.6229,0.7969,1.0651,1.0721,1.0721,1.0721,1.0721,1.0721,1.0721,1.0721,1.0721,-0.1628,-0.1008,-0.0887,-0.0879,-0.1052,-0.1532,0.0,0.0,0.0,-0.4921,-0.4948,-0.4642,-0.4174,0.0,0.0,0.0,0.0,0.0,0.0,-0.0393,0.0,-0.0047,0.0,0.0,0.0,0.0,0.0,0.0,0.0,0.0,0.0,0.0,0.0,0.0,0.0,0.0504,0.1611,0.1611,0.2163,0.3215,0.3515,0.3623,0.3639,0.4023,0.4039,0.3793,0.397,0.3911,0.3634,0.3634,0.2879,0.1952,0.3556,0.4054,0.3667,0.2437,0.2033,0.1852,0.044,0.0,0.0,0.0,0.0,0.0,0.0,0.0,0.0,0.0,0.0,0.0,0.0,0.2685,0.5431,0.5431,0.8105,1.0721,1.0721,1.0721,1.0721,1.0721,1.0721,1.0721,1.0721,1.0721,1.0721,1.0721,1.0721,1.0721,1.0721,1.0721,1.0721,1.0721,1.0721,0.9377,0.6164,0.7162,0.6627,0.3422,0.4559,0.4894,0.3756,0.6829,0.9036,1.018,1.0518,1.0721,1.0721,1.0721,1.0721,1.0721,1.0721,1.0721,-0.1638,-0.0699,0.0,0.0,-0.0824,-0.1528,0.0,0.0,-0.2961,-0.353,0.0,-0.3618,-0.3646,0.0,0.0,0.0,0.0,0.0,-0.1147,-0.1764,-0.1684,-0.0174,0.0,0.0,0.0,0.0,0.0,0.0,0.0,0.0,0.0,0.0,0.0,0.0,0.0,0.005,0.0202,0.0252,0.0303,0.0454,0.1661,0.2233,0.2271,0.3575,0.348,0.2232,0.2384,0.1734,0.0504,0.0504,0.0396,0.0403,0.1926,0.166,0.0542,0.0368,0.0309,0.0247,0.0063,0.0,0.0,0.0,0.0,0.0,0.0,0.0,0.0,0.0,0.0,0.0,0.0,0.2685,0.5431,0.5431,0.8105,1.0721,1.0721,1.0721,1.0721,1.0721,1.0721,1.0721,1.0721,1.0721,1.0721,1.0721,1.0721,1.0721,1.0721,1.0721,1.0721,1.0721,1.0721,0.9911,0.7897,0.7897,0.7162,0.5228,0.5297,0.603,0.7362,0.9308,0.9709,0.8366,0.9911,1.0721,1.0721,1.0721,1.0721,1.0721,1.0721,1.0721,0.0,0.0,0.0,0.0,0.0,0.0,-0.1044,0.0,-0.2654,0.0,0.0,0.0,0.0,0.0,0.0,0.0,-0.2113,0.0,0.0,0.0,-0.2129,0.0,0.0,0.0,0.0,0.0,0.0,0.0,-0.0788,-0.0463,0.0,0.0,0.0,0.0,0.0,0.0,0.0,0.0,0.0,0.0,0.0561,0.0823,0.0882,0.1494,0.1411,0.0821,0.089,0.056,0.0,0.0,0.0,0.0058,0.0652,0.0539,0.0,0.0,0.0,0.0,0.0,0.0,0.0,0.0,0.0,0.0,0.0,0.0,0.0,0.0,0.0,0.0,0.0,0.2685,0.5163,0.4092,0.7367,1.0382,0.9374,0.9978,1.0721,1.0721,1.0721,1.0721,1.0721,1.0721,1.0721,1.0721,1.0721,1.0721,1.0721,1.0721,1.0721,1.0721,1.0721,0.9978,0.8163,0.8969,0.8837,0.7031,0.6898,0.77,0.9507,0.9305,0.9241,0.9573,1.0316,1.0721,1.0721,1.0721,1.0721,1.0721,1.0721,1.0721,-0.053,0.0,0.0,0.0,0.0,0.0,0.0,0.0,0.0,0.0,0.0,0.0,0.0,0.0,-0.352,-0.3228,0.0,-0.2708,0.0,-0.2746,0.0,0.0,0.0,0.0,0.0,0.0,0.0,0.0,0.0,-0.1251,-0.0537,-0.0497,-0.0352,0.0,0.0,0.0,0.0,0.0,0.0,0.0,0.0,0.0,0.0,0.0,0.0,0.0,0.0,0.0,0.0,0.0,0.0,0.0,0.0,0.0,0.0,0.0,0.0,0.0,0.0,0.0,0.0,0.0,0.0,0.0,0.0,0.0,0.0,0.0,0.0,0.0,0.0,0.2351,0.4359,0.3021,0.6028,0.8906,0.7564,0.8304,0.9377,0.9845,0.9978,1.0114,1.0588,1.0721,1.0721,1.0721,1.0721,1.0721,1.0721,1.0721,1.0721,1.0721,1.0758,1.0241,0.8887,1.0069,1.0296,0.8935,0.8867,0.9478,1.0772,0.9548,0.9478,1.0843,1.0802,1.0782,1.0782,1.0741,1.0721,1.0721,1.0721,1.0721,0.0,0.0,0.0,-0.1184,0.0,0.0,0.0,0.0,-0.3216,0.0,0.0,0.0,0.0,-0.4484,-0.4131,-0.3071,-0.361,0.0,0.0,0.0,0.0,0.0,0.0,0.0,0.0,0.0,0.0,0.0,0.0,0.0,-0.1798,-0.1765,-0.1188,-0.005,0.0,0.0,0.0,0.0,0.0,0.0,0.0,0.0,0.0,0.0,0.0,0.0,0.0,0.0,0.0,0.0,0.0,0.0,0.0,0.0,0.0,0.0,0.0,0.0,0.0,0.0,0.0,0.0,0.0,0.0,0.0,0.0,0.0,0.0,0.0,0.0,0.0,0.1411,0.2752,0.2685,0.4158,0.5564,0.5498,0.5498,0.6097,0.7764,0.8097,0.8634,1.0382,1.0721,1.0721,1.0721,1.0721,1.0721,1.0721,1.0721,1.0721,1.0721,1.0853,1.0873,1.0802,1.1067,1.1148,1.1079,1.1079,1.1148,1.1148,1.1148,1.1148,1.1148,1.1012,1.0873,1.0873,1.0792,1.0721,1.0721,1.0721,1.0721,0.0,0.0,-0.3202,-0.2941,0.0,0.0,0.0,0.0,0.0,0.0,0.0,0.0,0.0,-0.537,-0.5174,-0.4629,-0.4794,-0.4845,0.0,0.0,0.0,0.0,0.0,-0.4588,0.0,0.0,0.0,0.0,-0.3903,0.0,0.0,-0.2285,-0.1631,-0.1309,-0.0454,0.0,0.0,0.0,0.0,0.0,0.0,0.0,0.0,0.0,0.0,0.0,0.0,0.0,0.0,0.0,0.0,0.0,0.0,0.0,0.0,0.0,0.0,0.0,0.0,0.0,0.0,0.0,0.0,0.0,0.0,0.0,0.0,0.0,0.0,0.0,0.0,0.1344,0.2417,0.121,0.3221,0.5095,0.389,0.4559,0.5981,0.786,0.8213,0.8782,1.072,1.1012,1.0978,1.082,1.0951,1.1012,1.1012,1.1012,1.1012,1.1012,1.106,1.109,1.109,1.1134,1.1231,1.1231,1.1231,1.1231,1.1231,1.1231,1.1231,1.1231,1.1114,1.109,1.109,1.104,1.1012,1.1012,1.1012,1.0907,-0.291,-0.3662,0.0,-0.4346,-0.4353,0.0,-0.4191,0.0,0.0,0.0,0.0,0.0,0.0,0.0,-0.5959,-0.5757,-0.5535,-0.5218,0.0,-0.4685,0.0,0.0,0.0,-0.543,-0.5477,-0.5371,-0.5291,-0.5331,-0.4947,0.0,0.0,0.0,-0.2304,-0.2011,-0.0706,0.0,0.0,0.0,0.0,0.0,0.0,0.0,0.0,0.0,0.0,0.0,0.0,0.0,0.0,0.0,0.0,0.0,0.0,0.0,0.0,0.0,0.0,0.0,0.0,0.0,0.0,0.0,0.0,0.0,0.0,0.0,0.0,0.0,0.0,0.0,0.0,0.0874,0.1478,0.0269,0.1814,0.3154,0.2015,0.2629,0.4268,0.6823,0.7342,0.8146,1.0727,1.1209,1.1192,1.1046,1.1104,1.1231,1.1231,1.1231,1.1231,1.1231,1.1212,1.1267,1.1321,1.1324,1.1324,1.1324,1.1324,1.1324,1.1324,1.1324,1.1324,1.1324,1.127,1.1243,1.1243,1.1189,1.1231,1.1231,1.1231,1.106]}]]